[[{"header":{"parameterUnit":"m.s-1","parameterCategory":1,"la1":30.6,"la2":29.2853,"lo1":-89.7004,"lo2":-87.6739,"dy":0.0162,"dx":0.0183,"nx":112,"ny":82,"refTime":"2025-08-27T00:00:00:Z","depth":0,"parameterNumber":2,"parameterNumberName":"U-component_of_WINDS"},"data":[0.0,0.0,0.0,0.0,0.0,0.0,0.0,0.0,0.0,0.0,0.0,0.0,0.0,0.0,0.0,0.0,0.0,0.0,0.0,0.0,0.0,0.0,0.0,0.0,0.0,0.0,0.0,0.0,0.0,0.0,0.0,0.0,0.0,0.0,0.0,0.0,0.0,0.0,0.0,0.0,0.0,0.0,0.0,0.0,0.0,0.0,0.0,0.0,0.0,0.0,0.0,0.0,0.0,0.0,0.0,0.0,0.0,0.0,0.0,0.0,0.0,0.0,0.0,0.0,0.0,0.0,0.0,0.0,0.0,0.0,0.0,0.0,0.0,0.0,0.0,0.0,0.0,0.0,0.0,0.0,0.0,0.0,0.0,0.0,0.0,0.0,0.0,0.0,0.0,0.0,0.0,2.5219,2.9888,3.2817,3.2869,3.1331,2.8765,2.507,0.0,0.0,0.0,0.0,0.0,0.0,0.0,0.0,0.0,0.0,0.0,0.0,0.0,0.0,0.0,0.0,0.0,0.0,0.0,0.0,0.0,0.0,0.0,0.0,0.0,0.0,0.0,0.0,0.0,0.0,0.0,0.0,0.0,0.0,0.0,0.0,0.0,0.0,0.0,0.0,0.0,0.0,0.0,0.0,0.0,0.0,0.0,0.0,0.0,0.0,0.0,0.0,0.0,0.0,0.0,0.0,0.0,0.0,0.0,0.0,0.0,0.0,0.0,0.0,0.0,0.0,0.0,0.0,0.0,0.0,0.0,0.0,0.0,0.0,0.0,0.0,0.0,0.0,0.0,0.0,0.0,0.0,0.0,0.0,0.0,0.0,0.0,0.0,0.0,0.0,0.0,0.0,0.0,0.0,0.0,0.0,0.0,0.0,0.0,0.0,0.0,0.0,0.0,0.0,2.1972,2.7164,3.1303,3.3696,3.3718,3.0415,2.7231,2.4646,0.0,0.0,0.0,0.0,0.0,0.0,0.0,0.0,0.0,0.0,0.0,0.0,0.0,0.0,0.0,0.0,0.0,0.0,0.0,0.0,0.0,0.0,0.0,0.0,0.0,0.0,0.0,0.0,0.0,0.0,0.0,0.0,0.0,0.0,0.0,0.0,0.0,0.0,0.0,0.0,0.0,0.0,0.0,0.0,0.0,0.0,0.0,0.0,0.0,0.0,0.0,0.0,0.0,0.0,0.0,0.0,0.0,0.0,0.0,0.0,0.0,0.0,0.0,0.0,0.0,0.0,0.0,0.0,0.0,0.0,0.0,0.0,0.0,0.0,0.0,0.0,0.0,0.0,0.0,0.0,0.0,0.0,0.0,0.0,0.0,0.0,0.0,0.0,0.0,0.0,0.0,0.0,0.0,0.0,0.0,0.0,0.0,0.0,0.0,0.0,0.0,0.0,0.0,1.9612,2.2342,2.7258,2.94,3.112,3.2626,3.0003,2.7774,2.6582,2.1917,0.0,0.0,0.0,0.0,0.0,0.0,0.0,0.0,0.0,0.0,0.0,0.0,0.0,0.0,0.0,0.0,0.0,0.0,0.0,0.0,0.0,0.0,0.0,0.0,0.0,0.0,0.0,0.0,0.0,0.0,0.0,0.0,0.0,0.0,0.0,0.0,0.0,0.0,0.0,0.0,0.0,0.0,0.0,0.0,0.0,0.0,0.0,0.0,0.0,0.0,0.0,0.0,0.0,0.0,0.0,0.0,0.0,0.0,0.0,0.0,0.0,0.0,0.0,0.0,0.0,0.0,0.0,0.0,0.0,0.0,0.0,0.0,0.0,0.0,0.0,0.0,0.0,0.0,0.0,0.0,0.0,0.0,0.0,0.0,0.0,0.0,0.0,0.0,0.0,0.0,0.0,0.0,0.0,0.0,0.0,0.0,0.0,0.0,0.0,0.0,0.0,0.0,2.0447,2.2403,2.5792,2.7019,2.8623,3.1238,3.0041,2.8899,2.8338,2.1711,0.0,0.0,0.0,0.0,0.0,0.0,0.0,0.0,0.0,0.0,0.0,0.0,0.0,0.0,0.0,0.0,0.0,0.0,0.0,0.0,0.0,0.0,0.0,0.0,0.0,0.0,0.0,0.0,0.0,0.0,0.0,0.0,0.0,0.0,0.0,0.0,0.0,0.0,0.0,0.0,0.0,0.0,0.0,0.0,0.0,0.0,0.0,0.0,0.0,0.0,0.0,0.0,0.0,0.0,0.0,0.0,0.0,0.0,0.0,0.0,0.0,0.0,0.0,0.0,0.0,0.0,0.0,0.0,0.0,0.0,0.0,0.0,0.0,0.0,0.0,0.0,0.0,0.0,0.0,0.0,0.0,0.0,0.0,0.0,0.0,0.0,0.0,0.0,0.0,0.0,0.0,0.0,0.0,0.0,0.0,0.0,0.0,0.0,0.0,0.0,0.0,0.0,1.847,2.1351,2.2444,2.5581,2.8394,3.0347,3.0648,3.004,2.8394,1.7188,0.0,0.0,0.0,0.0,0.0,0.0,0.0,0.0,0.0,0.0,0.0,0.0,0.0,0.0,0.0,0.0,0.0,0.0,0.0,0.0,0.0,0.0,0.0,0.0,0.0,0.0,0.0,0.0,0.0,0.0,0.0,0.0,0.0,0.0,0.0,0.0,0.0,0.0,0.0,0.0,0.0,0.0,0.0,0.0,0.0,0.0,0.0,0.0,0.0,0.0,0.0,0.0,0.0,0.0,0.0,0.0,0.0,0.0,0.0,0.0,0.0,0.0,0.0,0.0,0.0,0.0,0.0,0.0,0.0,0.0,0.0,0.0,0.0,0.0,0.0,0.0,0.0,0.0,0.0,0.0,0.0,0.0,0.0,0.0,0.0,0.0,0.0,0.0,0.0,0.0,0.0,0.0,0.0,0.0,0.0,0.0,0.0,0.0,0.0,0.0,0.0,0.0,1.4257,1.5866,0.0,1.2511,1.3973,2.2852,2.8315,2.8319,2.1394,0.0,0.0,0.0,0.0,0.0,0.0,0.0,0.0,0.0,0.0,0.0,0.0,0.0,0.0,0.0,0.0,0.0,0.0,0.0,0.0,0.0,0.0,0.0,0.0,0.0,0.0,0.0,0.0,0.0,0.0,0.0,0.0,0.0,0.0,0.0,0.0,0.0,0.0,0.0,0.0,0.0,0.0,0.0,0.0,0.0,0.0,0.0,0.0,0.0,0.0,0.0,0.0,0.0,0.0,0.0,0.0,0.0,0.0,0.0,0.0,0.0,0.0,0.0,0.0,0.0,0.0,0.0,0.0,0.0,0.0,0.0,0.0,0.0,0.0,0.0,0.0,0.0,0.0,0.0,0.0,0.0,0.0,0.0,0.0,0.0,0.0,0.0,0.0,0.0,0.0,0.0,0.0,0.0,0.0,0.0,0.0,0.0,0.0,0.0,0.0,0.0,0.0,0.9291,1.0279,1.1384,0.0,0.5196,0.3623,1.2546,1.9768,2.1526,1.6181,0.0,0.0,0.0,0.0,0.0,0.0,0.0,0.0,0.0,0.0,0.0,0.0,0.0,0.0,0.0,0.0,0.0,0.0,0.0,0.0,0.0,0.0,0.0,0.0,0.0,0.0,0.0,0.0,0.0,0.0,0.0,0.0,0.0,0.0,0.0,0.0,0.0,0.0,0.0,0.0,0.0,0.0,0.0,0.0,0.0,0.0,0.0,0.0,0.0,0.0,0.0,0.0,0.0,0.0,0.0,0.0,0.0,0.0,0.0,0.0,0.0,0.0,0.0,0.0,0.0,0.0,0.0,0.0,0.0,0.0,0.0,0.0,0.0,0.0,0.0,0.0,0.0,0.0,0.0,0.0,0.0,0.0,0.0,0.0,0.0,0.0,0.0,0.0,0.0,0.0,0.0,0.0,0.0,0.0,0.0,0.0,0.0,0.0,0.0,0.0,0.0,0.0,0.7512,0.6909,0.8734,1.4582,0.6095,-0.0,-0.0075,0.4301,0.9115,0.0,0.0,0.0,0.0,0.0,0.0,0.0,0.0,0.0,0.0,0.0,0.0,0.0,0.0,0.0,0.0,0.0,0.0,0.0,0.0,0.0,0.0,0.0,0.0,0.0,0.0,0.0,0.0,0.0,0.0,0.0,0.0,0.0,0.0,0.0,0.0,0.0,0.0,0.0,0.0,0.0,0.0,0.0,0.0,0.0,0.0,0.0,0.0,0.0,0.0,0.0,0.0,0.0,0.0,0.0,0.0,0.0,0.0,0.0,0.0,0.0,0.0,0.0,0.0,0.0,0.0,0.0,0.0,0.0,0.0,0.0,0.0,0.0,0.0,0.0,0.0,0.0,0.0,0.0,0.0,0.0,0.0,0.0,0.0,0.0,0.0,0.0,0.0,0.0,0.0,0.0,0.0,0.0,0.0,0.0,0.0,0.0,0.0,0.0,0.0,0.0,0.0,0.0,0.7865,0.9743,0.9354,0.4985,0.1797,-0.1878,-0.6587,-0.4954,-0.1625,0.338,0.0,0.0,0.0,0.0,0.0,0.0,0.0,0.0,0.0,0.0,0.0,0.0,0.0,0.0,0.0,0.0,0.0,0.0,0.0,0.0,0.0,0.0,0.0,0.0,0.0,0.0,0.0,0.0,0.0,0.0,0.0,0.0,0.0,0.0,0.0,0.0,0.0,0.0,0.0,0.0,0.0,0.0,0.0,0.0,0.0,0.0,0.0,0.0,0.0,0.0,0.0,0.0,0.0,0.0,0.0,0.0,0.0,0.0,0.0,0.0,0.0,0.0,0.0,0.0,0.0,0.0,0.0,0.0,0.0,0.0,0.0,0.0,0.0,0.0,0.0,0.0,0.0,0.0,0.0,0.0,0.0,0.0,0.0,0.0,0.0,0.0,0.0,0.0,0.0,0.0,0.0,0.0,0.0,0.0,0.0,0.0,0.0,0.0,0.0,0.0,0.0,0.0,0.5677,0.9871,0.8032,-0.4751,-0.6165,-0.6953,-0.8838,-1.0769,-1.0336,-0.6641,0.0,0.0,0.0,0.0,0.0,0.0,0.0,0.0,0.0,0.0,0.0,0.0,0.0,0.0,0.0,0.0,0.0,0.0,0.0,0.0,0.0,0.0,0.0,0.0,0.0,0.0,0.0,0.0,0.0,0.0,0.0,0.0,0.0,0.0,0.0,0.0,0.0,0.0,0.0,0.0,0.0,0.0,0.0,0.0,0.0,0.0,0.0,0.0,0.0,0.0,0.0,0.0,0.0,0.0,0.0,0.0,0.0,0.0,0.0,0.0,0.0,0.0,0.0,0.0,0.0,0.0,0.0,0.0,0.0,0.0,0.0,0.0,0.0,0.0,0.0,0.0,0.0,0.0,0.0,0.0,0.0,0.0,0.0,0.0,0.0,0.0,0.0,0.0,0.0,0.0,0.0,0.0,0.0,0.0,0.0,0.0,0.0,0.0,0.0,0.0,0.0,0.0,0.2149,0.7586,0.4868,-1.3074,-1.4944,-1.3201,-0.8903,-1.3848,-1.6534,-1.5213,0.0,0.0,0.0,0.0,0.0,0.0,0.0,0.0,0.0,0.0,0.0,0.0,0.0,0.0,0.0,0.0,0.0,0.0,0.0,0.0,0.0,0.0,0.0,0.0,0.0,0.0,0.0,0.0,0.0,0.0,0.0,0.0,0.0,0.0,0.0,0.0,0.0,0.0,0.0,0.0,0.0,0.0,0.0,0.0,0.0,0.0,0.0,0.0,0.0,0.0,0.0,0.0,0.0,0.0,0.0,0.0,0.0,0.0,0.0,0.0,-2.2673,0.0,0.0,0.0,0.0,0.0,0.0,0.0,0.0,0.0,0.0,0.0,0.0,0.0,0.0,0.0,0.0,0.0,0.0,0.0,0.0,0.0,0.0,0.0,0.0,0.0,0.0,0.0,0.0,0.0,0.0,0.0,0.0,0.0,0.0,0.0,0.0,0.0,0.0,0.0,0.0,0.0,0.1945,0.2332,-0.0939,-1.061,-1.1632,-1.2504,-1.4631,-1.5488,-1.6202,-1.6671,0.0,0.0,0.0,0.0,0.0,0.0,0.0,0.0,0.0,0.0,0.0,0.0,0.0,0.0,0.0,0.0,0.0,0.0,0.0,0.0,0.0,0.0,0.0,0.0,0.0,0.0,0.0,0.0,0.0,0.0,0.0,0.0,0.0,0.0,0.0,0.0,0.0,0.0,0.0,0.0,0.0,0.0,0.0,0.0,0.0,0.0,0.0,0.0,0.0,0.0,0.0,0.0,0.0,0.0,0.0,0.0,0.0,0.0,0.0,0.0,0.0,-2.4771,0.0,0.0,0.0,0.0,0.0,0.0,0.0,0.0,0.0,0.0,0.0,0.0,0.0,0.0,0.0,0.0,0.0,0.0,0.0,0.0,0.0,0.0,0.0,0.0,0.0,0.0,0.0,0.0,0.0,0.0,0.0,0.0,0.0,0.0,0.0,0.0,0.0,0.0,0.0,0.0,0.0693,-0.1321,-0.4857,-1.0712,-1.1313,-1.278,-1.6307,-1.6566,-1.7055,-1.815,-1.7655,0.0,0.0,0.0,0.0,0.0,0.0,0.0,0.0,0.0,0.0,0.0,0.0,0.0,0.0,0.0,0.0,0.0,0.0,0.0,0.0,0.0,0.0,0.0,0.0,0.0,0.0,0.0,0.0,0.0,0.0,0.0,0.0,0.0,0.0,0.0,0.0,0.0,0.0,0.0,0.0,0.0,0.0,0.0,0.0,0.0,0.0,0.0,0.0,0.0,0.0,0.0,0.0,0.0,-2.888,-2.8999,-3.0378,-2.9145,-2.8926,-2.9483,-2.8151,-2.7336,-2.7186,0.0,0.0,0.0,0.0,0.0,0.0,0.0,0.0,0.0,0.0,0.0,0.0,0.0,0.0,0.0,0.0,0.0,0.0,0.0,0.0,0.0,0.0,0.0,0.0,0.0,-0.4983,1.3032,0.0,0.0,0.0,0.0,0.0,0.0,0.0,0.0,0.0,0.0,0.0,0.0,-0.0642,-0.4004,-0.7728,-1.1437,-1.2305,-1.3718,-1.6244,-1.7269,-1.8306,-1.958,-1.9249,-1.8948,0.0,0.0,0.0,0.0,0.0,0.0,0.0,0.0,0.0,0.0,0.0,0.0,0.0,0.0,0.0,0.0,0.0,0.0,0.0,0.0,0.0,0.0,0.0,0.0,0.0,0.0,0.0,0.0,0.0,0.0,0.0,0.0,-1.6644,-1.6837,0.0,0.0,0.0,0.0,0.0,0.0,0.0,0.0,0.0,0.0,0.0,0.0,0.0,-3.1884,-3.2774,-3.2552,-3.3139,-3.4473,-3.3419,-3.3071,-3.3194,-3.1418,-3.1175,-3.2139,-3.2435,0.0,-3.0001,-2.9367,0.0,0.0,0.0,0.0,0.0,0.0,0.0,0.0,0.0,0.0,0.0,0.0,0.0,0.0,0.0,0.0,0.0,0.0,0.0,0.0,0.0,0.0,-2.7999,-1.5889,-1.039,-0.4935,0.0,1.9444,2.4147,0.5743,0.1205,0.0,0.0,0.0,0.0,0.0,0.0,0.0,-0.0789,-0.5891,-0.9968,-1.0648,-1.3215,-1.531,-1.6352,-1.7616,-1.9158,-2.1016,-2.1943,-2.237,-2.2248,-2.1606,0.0,0.0,0.0,0.0,0.0,0.0,0.0,0.0,0.0,0.0,0.0,0.0,0.0,0.0,0.0,0.0,0.0,0.0,0.0,0.0,0.0,0.0,0.0,0.0,0.0,0.0,0.0,0.0,0.0,-1.7062,-1.8561,-2.0061,-2.1328,-2.2672,0.0,0.0,0.0,0.0,0.0,0.0,0.0,0.0,0.0,-3.3194,-3.4888,-3.6075,-3.6551,-3.6819,-3.6983,-3.7128,-3.6585,-3.6305,-3.6275,-3.543,-3.5554,-3.6519,-3.6774,-3.6627,-3.6102,-3.444,-3.4255,-3.4883,0.0,0.0,0.0,0.0,-3.4001,-3.4386,-3.6433,-3.7086,0.0,-3.5204,0.0,0.0,0.0,0.0,0.0,0.0,0.0,0.0,0.0,0.0,0.0,-2.1622,-1.8971,-1.6037,-0.94,-0.1142,0.5716,0.0,0.0195,-0.64,-0.4801,0.0,0.0,0.0,0.0,0.0,-0.5211,-0.919,-1.2243,-1.2464,-1.41,-1.5871,-1.7577,-1.8596,-1.9712,-2.0968,-2.2342,-2.3064,-2.3022,-2.2665,-2.1808,0.0,0.0,0.0,0.0,0.0,0.0,0.0,0.0,0.0,0.0,0.0,0.0,0.0,0.0,0.0,0.0,0.0,0.0,0.0,0.0,0.0,0.0,0.0,0.0,0.0,0.0,0.0,0.0,-1.9149,-2.0708,-2.2916,-2.4099,-2.5531,0.0,0.0,0.0,0.0,0.0,0.0,-3.4048,-3.6093,-3.7249,-3.7286,-3.9039,-3.998,-4.0055,-4.0524,-4.0549,-3.9994,-3.9715,-3.9516,-3.9539,-3.9222,-3.9412,-3.9961,-4.0141,-4.0481,-4.0736,-3.8921,-3.8108,-3.7966,-3.7184,-3.7124,-3.7514,-3.7687,-3.7859,-3.8311,-4.0701,-4.1465,-4.1117,-3.9491,0.0,-3.5213,-3.1437,0.0,0.0,0.0,0.0,-2.7624,-2.9119,-2.7787,-2.6195,-2.6826,-2.4639,-2.1899,-2.0029,-1.7582,-1.063,0.0,-0.0846,-0.8981,-0.5821,0.0,0.0,0.0,0.0,-0.8804,-0.9462,-1.1655,-1.343,-1.4109,-1.529,-1.6786,-1.8785,-2.0029,-2.0922,-2.1472,-2.2963,-2.3923,-2.4106,-2.4078,-2.3677,-2.2915,0.0,0.0,0.0,0.0,0.0,0.0,0.0,0.0,0.0,0.0,0.0,0.0,0.0,0.0,0.0,0.0,0.0,0.0,0.0,0.0,0.0,0.0,0.0,0.0,0.0,0.0,0.0,0.0,0.0,-2.4132,-2.7072,0.0,0.0,0.0,0.0,-3.4154,-3.6426,-3.8128,-3.8995,-4.1244,-4.2247,-4.1614,-4.2425,-4.2874,-4.2909,-4.2944,-4.3271,-4.3923,-4.3201,-4.2874,-4.2826,-4.204,-4.1492,-4.1157,-4.1921,-4.2032,-4.1571,-4.0442,-4.0397,-4.1036,-4.0539,-4.0394,-4.0574,-4.1417,-4.1714,-4.1878,-4.291,-4.3279,-4.331,-4.3656,-4.084,-3.6973,-3.5207,-3.143,0.0,0.0,-2.9192,-2.8828,-3.1152,-2.9475,-2.6987,-2.607,-2.3906,-2.1497,-1.9703,-1.8017,-1.4584,0.0,-0.4285,-0.4417,-0.7095,0.0,-0.9068,-0.7437,-0.928,-1.1049,-1.1636,-1.1992,-1.2822,-1.4513,-1.6899,-1.8742,-1.9608,-2.1881,-2.3302,-2.336,-2.4932,-2.6165,-2.6871,-2.6656,-2.6506,-2.6428,-2.4242,0.0,0.0,0.0,0.0,0.0,0.0,0.0,0.0,0.0,0.0,0.0,0.0,0.0,0.0,0.0,0.0,0.0,0.0,0.0,0.0,0.0,0.0,0.0,0.0,0.0,0.0,0.0,0.0,-2.9368,-3.0967,0.0,-3.3931,-3.5258,-3.6765,-3.8439,-4.0524,-4.2038,-4.2822,-4.4353,-4.5106,-4.4869,-4.5611,-4.6019,-4.6019,-4.6019,-4.6137,-4.639,-4.5984,-4.5787,-4.5769,-4.5407,-4.5164,-4.5023,-4.5286,-4.5008,-4.4326,-4.425,-4.3799,-4.3202,-4.3414,-4.3709,-4.4015,-4.4378,-4.4559,-4.4676,-4.4914,-4.5,-4.4737,-4.3109,-4.0945,-3.8743,-3.7307,-3.5664,-3.417,-3.3654,-3.2939,-3.2013,-3.0719,-2.8886,-2.6789,-2.4789,-2.3121,-2.1408,-1.925,-1.8115,-1.6561,-1.3022,-1.1867,-1.1462,-1.1464,-1.1295,-1.0979,-1.0145,-1.1255,-1.2683,-1.4067,-1.5626,-1.7069,-1.8306,-2.0017,-2.1193,-2.1458,-2.301,-2.3738,-2.3254,-2.4713,-2.5463,-2.5241,-2.5691,-2.5857,-2.5679,-2.4871,-2.3596,0.0,0.0,0.0,0.0,0.0,0.0,0.0,0.0,0.0,0.0,0.0,0.0,0.0,0.0,0.0,0.0,0.0,0.0,0.0,0.0,0.0,0.0,0.0,0.0,0.0,0.0,-3.0053,-3.2615,-3.4036,-3.5534,-3.7474,-3.8814,-4.0217,-4.1842,-4.349,-4.4732,-4.5451,-4.6599,-4.7291,-4.7519,-4.7986,-4.8245,-4.8245,-4.8245,-4.8245,-4.8245,-4.8119,-4.8041,-4.8041,-4.7966,-4.7837,-4.7743,-4.7743,-4.7315,-4.665,-4.6711,-4.6103,-4.5159,-4.5303,-4.5553,-4.5847,-4.5935,-4.6006,-4.603,-4.5896,-4.5704,-4.515,-4.3275,-4.1729,-4.0317,-3.9163,-3.841,-3.7586,-3.5886,-3.4406,-3.2787,-3.0348,-2.812,-2.6138,-2.4422,-2.322,-2.204,-2.0392,-1.9777,-1.9248,-1.7924,-1.6358,-1.4911,-1.3723,-1.3147,-1.2691,-1.2275,-1.3388,-1.4767,-1.6123,-1.7791,-1.9454,-2.0884,-2.1865,-2.2651,-2.3123,-2.4216,-2.4649,-2.4097,-2.4924,-2.5285,-2.5065,-2.5262,-2.5447,-2.5615,-2.5404,-2.4746,-2.3582,0.0,0.0,0.0,0.0,0.0,0.0,0.0,0.0,0.0,0.0,0.0,0.0,0.0,0.0,0.0,0.0,0.0,0.0,0.0,0.0,0.0,0.0,0.0,-2.846,-3.0913,-3.3065,-3.371,-3.6213,-3.845,-3.987,-4.0683,-4.2012,-4.4121,-4.536,-4.627,-4.6948,-4.8057,-4.8971,-4.957,-4.9608,-4.9627,-4.9627,-4.9627,-4.9608,-4.9637,-4.9599,-4.958,-4.958,-4.9561,-4.9365,-4.9085,-4.9085,-4.8784,-4.8283,-4.7553,-4.7153,-4.6946,-4.6183,-4.5899,-4.5916,-4.6045,-4.6022,-4.5893,-4.5823,-4.5266,-4.4599,-4.458,-4.3321,-4.1629,-4.0844,-3.944,-3.7691,-3.6079,-3.3502,-3.1032,-3.021,-2.7592,-2.5099,-2.5016,-2.4264,-2.3464,-2.2992,-2.2891,-2.2587,-2.1621,-1.7329,-1.3848,-1.3833,-1.425,-1.4413,-1.3922,-1.576,0.0,-1.7937,-1.8366,-1.956,-2.1948,-2.2463,-2.3124,-2.4492,-2.5608,-2.6163,-2.6046,-2.5765,-2.5918,-2.6657,-2.5652,-2.5595,-2.6594,-2.6043,-2.5496,-2.4959,0.0,0.0,0.0,0.0,0.0,0.0,0.0,0.0,0.0,0.0,0.0,0.0,0.0,0.0,0.0,0.0,0.0,0.0,0.0,0.0,0.0,0.0,-3.2724,-3.1633,-3.3455,-3.5594,-3.7257,-3.9007,-4.0662,-4.2,-4.3775,-4.5226,-4.623,-4.739,-4.8296,-4.8759,-4.993,-5.0774,-5.1216,-5.1852,-5.2177,-5.2177,-5.2177,-5.2212,-5.2319,-5.1684,-5.1447,-5.1513,-5.0937,-5.0608,-5.0525,-5.0525,-5.0095,-4.9333,-4.858,-4.7879,-4.7196,-4.6255,-4.5967,-4.6045,-4.6084,-4.6015,-4.5884,-4.5825,-4.5266,-4.4535,-4.4093,-4.2973,-4.1664,-4.1018,-4.0226,-3.9068,-3.6837,-3.5245,-3.3562,-3.0457,-2.8697,-2.7214,-2.5443,-2.4791,-2.4374,-2.3503,-2.3127,-2.2801,-2.252,-2.0737,-1.9137,-1.8752,-1.8227,-1.8045,-1.8604,-1.8644,0.0,-2.064,-2.1369,-2.2253,-2.3619,-2.4667,-2.5586,-2.6459,-2.6631,-2.6759,-2.6939,-2.6056,-2.5746,-2.6236,-2.5664,-2.5876,-2.7004,-2.6864,-2.6733,0.0,0.0,0.0,0.0,0.0,0.0,0.0,0.0,0.0,0.0,0.0,0.0,0.0,0.0,0.0,0.0,0.0,0.0,0.0,0.0,0.0,0.0,-3.3736,-3.5512,-3.53,-3.6373,-3.7525,-3.8755,-4.0215,-4.1727,-4.3342,-4.4971,-4.6338,-4.7514,-4.8713,-4.95,-4.9759,-5.1063,-5.194,-5.2203,-5.2852,-5.3203,-5.3203,-5.3203,-5.3244,-5.3314,-5.2872,-5.2704,-5.2729,-5.1968,-5.1628,0.0,-5.13,-5.086,-5.0329,-4.9556,-4.8705,0.0,0.0,0.0,0.0,0.0,-4.593,-4.5839,-4.5756,-4.5227,-4.4535,-4.4186,-4.322,-4.2121,-4.175,-4.1059,-4.0085,-3.8297,-3.6949,-3.5248,-3.1825,-3.0038,-2.8665,-2.6454,-2.5822,-2.5569,-2.5286,-2.4789,-2.4469,-2.455,-2.3819,0.0,-2.2138,-2.0797,-1.9998,-2.0515,-2.047,-2.0819,-2.2188,-2.3037,-2.4024,-2.5157,-2.6156,-2.7005,-2.7646,-2.7945,0.0,0.0,0.0,-2.6499,-2.6397,-2.6826,0.0,0.0,0.0,0.0,0.0,0.0,0.0,0.0,-2.7894,-2.8631,0.0,0.0,0.0,0.0,0.0,0.0,0.0,0.0,0.0,0.0,0.0,0.0,0.0,0.0,0.0,0.0,-3.6307,-3.7866,-3.902,-3.9322,-3.9338,-3.9164,-4.0591,-4.2287,-4.412,-4.5125,-4.6413,-4.8284,-4.9454,-5.0112,-5.0222,0.0,0.0,0.0,0.0,-5.3491,-5.3491,-5.3491,-5.3492,-5.3493,-5.3539,-5.3553,-5.3571,-5.2716,-5.2407,-5.2464,-5.1605,-5.1215,-5.1132,-5.0339,-4.9332,-4.8179,-4.6667,-4.608,-4.6045,-4.5878,-4.5796,-4.5769,-4.5651,0.0,0.0,-4.4676,-4.3788,-4.2752,-4.2752,-4.1919,-4.0822,-4.0097,-3.8515,-3.647,-3.3976,-3.1832,-2.9841,-2.8157,-2.7232,-2.6973,-2.767,-2.7284,-2.6819,-2.7063,-2.6466,-2.5599,-2.4645,-2.2531,-2.0978,-2.0921,-2.1604,-2.2408,-2.3072,-2.404,-2.5148,-2.6481,0.0,0.0,-2.8522,-2.933,-2.9498,-2.8841,-2.8558,-2.8013,-2.7227,-2.878,-2.9998,-3.0673,-3.1244,-3.2034,-3.3045,-3.3141,-3.3237,-3.3263,-3.0361,-3.0845,0.0,0.0,0.0,0.0,0.0,0.0,0.0,0.0,0.0,0.0,0.0,0.0,0.0,0.0,0.0,-3.6241,-3.8638,-4.0474,-4.0709,-4.1716,-4.2022,-4.0914,-4.2466,-4.4019,-4.5007,-4.6663,-4.8184,-4.9279,-4.9579,-5.0083,-5.1041,-5.2347,0.0,-5.3556,-5.4645,-5.5222,-5.5222,-5.5222,-5.5267,-5.5374,0.0,0.0,-5.4722,-5.3176,-5.2522,-5.2615,-5.1736,-5.1308,-5.1135,-5.0332,-4.8931,-4.7201,-4.6297,-4.5932,-4.5935,-4.5832,-4.5796,-4.5769,-4.5651,-4.5342,-4.4988,-4.4988,-4.413,-4.3083,-4.3083,-4.2397,0.0,-4.066,-3.9827,-3.8667,-3.6342,-3.425,-3.2308,-3.0714,-2.9398,-2.8556,-2.8684,-2.862,-2.8529,-2.8598,-2.8124,-2.7653,-2.7421,-2.5172,-2.3157,-2.269,-2.3339,-2.3872,-2.4034,-2.5671,-2.6902,-2.7223,-2.8307,-2.9396,-3.0299,-3.0044,-3.023,-3.1249,-3.0939,-3.0392,-2.9588,-3.0691,-3.1497,-3.1845,-3.2205,-3.2881,-3.3949,-3.4661,-3.5334,-3.593,-3.4669,-3.4482,0.0,0.0,0.0,0.0,0.0,0.0,0.0,0.0,0.0,0.0,0.0,-3.1731,-3.2705,0.0,-3.7415,-3.88,-4.0506,-4.1848,-4.2208,-4.3127,-4.3358,-4.2344,-4.3728,-4.5036,-4.5738,-4.7042,-4.8342,-4.9517,-4.9958,-5.0628,-5.1599,-5.2841,-5.3696,-5.4135,-5.4957,-5.5489,-5.5703,-5.5703,-5.5728,-5.5808,-5.5451,-5.5375,-5.5452,-5.3864,-5.3181,-5.319,-5.1932,-5.1365,-5.1235,-5.0282,-4.9234,-4.8086,-4.6878,-4.6125,-4.5744,-4.5718,-4.5692,-4.5677,-4.5618,-4.5381,-4.5096,-4.5096,-4.4556,-4.3855,-4.3656,-4.3083,-4.2361,-4.1819,-4.1039,-3.9897,-3.7933,-3.5941,-3.397,-3.2003,-3.0482,-2.9503,-2.9637,-2.9317,-2.9129,-2.9566,-2.9066,-2.8512,-2.8283,-2.7283,-2.6202,-2.4925,-2.5086,-2.5411,-2.5793,-2.6996,-2.8005,-2.8355,-2.9268,-3.0143,-3.0858,-3.0905,-3.1292,-3.2237,-3.2107,-3.1881,-3.1607,-3.2667,-3.3579,-3.4243,-3.4522,-3.5134,-3.6103,-3.6546,-3.6969,-3.7353,-3.7392,-3.7392,0.0,0.0,0.0,0.0,0.0,0.0,0.0,0.0,-2.9199,-3.0585,-3.2189,-3.386,-3.5509,-3.7336,-3.9172,-4.1104,-4.21,-4.2871,-4.3607,-4.4347,-4.4617,-4.4125,-4.4933,-4.5739,-4.6446,-4.7313,-4.8398,-4.9756,-5.0582,-5.1371,-5.2179,-5.331,-5.4083,-5.4355,-5.4905,-5.5331,-5.5577,-5.5662,-5.5703,-5.5703,-5.5807,-5.5874,-5.5846,-5.4392,-5.3741,-5.3718,-5.2068,-5.1344,-5.1277,-5.0377,-4.9769,-4.926,-4.7913,-4.6759,-4.5817,-4.5663,-4.5586,-4.5586,-4.5586,-4.5419,-4.5201,-4.5201,-4.4966,-4.4631,-4.4233,-4.3769,-4.3275,-4.2959,-4.2021,-4.077,-3.9429,-3.7557,-3.5513,-3.3622,-3.2003,-3.0974,-3.1101,-3.051,-3.0107,-3.0808,-3.0363,-2.9768,-2.9314,-2.9565,-2.9139,-2.6933,-2.6734,-2.7063,-2.7545,-2.823,-2.8916,-2.9524,-3.0175,-3.0801,-3.1302,-3.1959,-3.2492,-3.2808,-3.2999,-3.3158,-3.3375,-3.448,-3.5509,-3.6444,-3.6725,-3.7233,-3.8007,-3.8185,-3.8281,-3.8277,-3.9171,-3.9494,-1.9614,-2.1368,-2.2686,-2.478,-2.5522,-2.7095,0.0,0.0,-3.2389,-3.3713,-3.572,-3.7102,-3.6741,-3.8957,-4.1104,-4.1954,-4.3242,-4.4356,-4.4982,-4.6195,-4.7029,-4.6942,-4.6506,-4.6458,-4.7186,-4.8516,-4.9735,-5.06,-5.1408,-5.2215,-5.3023,-5.3941,-5.4255,-5.3869,-5.5015,-5.5489,-5.516,-5.5512,-5.5703,-5.5703,-5.5726,-5.577,-5.5846,-5.4207,-5.3572,-5.3699,-5.1968,-5.1199,-5.1122,-5.0882,-5.0236,-4.9375,-4.9183,-4.8144,-4.6663,-4.5893,-4.5586,-4.5586,-4.5586,-4.5568,-4.5531,-4.5531,-4.5322,-4.4966,-4.4631,-4.4261,-4.3844,-4.3511,-4.26,-4.1664,-4.1464,-3.9586,-3.7662,-3.7404,-3.5728,-3.4162,-3.4206,-3.363,-3.3119,-3.3203,-3.3135,-3.3051,-3.3024,-3.2554,-3.1099,-2.7719,-2.8255,-2.8848,-2.8276,-2.9294,-3.0107,-3.0208,-3.1055,-3.2004,-3.2885,-3.3356,-3.3606,-3.366,-3.4357,-3.4743,-3.477,-3.5873,-3.6649,-3.7001,-3.7281,-3.7611,-3.8007,-3.8839,-3.9213,-3.9176,-4.0178,-4.018,-2.0015,-2.1835,0.0,0.0,-2.6228,-2.8317,-3.207,-3.289,-3.326,-3.4748,-3.6506,-3.771,-3.7406,-3.9445,-4.1443,0.0,-4.3475,-4.4739,-4.577,-4.6364,-4.6843,-4.7165,-4.6952,-4.708,-4.7864,-4.8483,-4.9389,-5.071,-5.1318,-5.2213,-5.3471,-5.4171,-5.4516,-5.456,-5.5088,-5.5399,-5.5446,-5.5618,-5.5748,-5.5825,-5.5825,-5.5842,-5.5846,-5.4327,-5.3189,-5.2353,-5.1639,-5.124,-5.1103,-5.105,-5.0681,-5.0106,-4.9606,-4.8663,-4.7509,-4.6663,-4.6028,-4.5586,-4.5586,-4.5586,-4.5586,-4.5586,-4.5513,-4.5322,-4.4988,-4.4657,-4.4261,-4.3881,-4.3069,-4.2244,-4.1895,-4.0405,-3.889,-3.8143,-3.6918,-3.57,-3.4883,-3.4697,-3.4561,-3.4121,-3.4266,-3.4471,-3.4471,-3.4564,-3.4008,-3.2076,-3.1429,-3.0935,-3.018,-3.1133,-3.1781,-3.1605,-3.2616,-3.3455,-3.3888,-3.4746,-3.5238,-3.5238,-3.5569,-3.591,-3.6211,-3.6691,-3.7397,-3.8362,-3.8487,-3.8853,-3.945,-3.9846,-4.0039,-4.0023,-4.043,-4.0467,-2.008,0.0,0.0,-2.4415,-2.6452,-2.8821,-3.1581,-3.282,-3.3856,-3.5469,-3.689,-3.7863,-3.8092,-3.9769,-4.1493,-4.2414,-4.358,-4.4942,-4.6465,-4.638,-4.6527,-4.7331,-4.726,-4.7443,-4.8233,-4.8526,-4.926,-5.0692,-5.138,-5.2324,-5.374,-5.4336,-5.475,-5.4924,-5.516,-5.5356,-5.5535,-5.564,-5.5769,-5.5904,-5.5904,-5.5936,-5.5938,-5.4476,-5.2897,-5.1344,-5.1386,-5.1301,-5.1094,-5.1094,-5.0945,-5.0625,-5.001,-4.9086,-4.8029,-4.7451,-4.6547,-4.5586,-4.5586,-4.5586,-4.5586,-4.5586,-4.5586,-4.555,-4.5201,-4.4919,-4.4631,-4.4146,-4.3435,-4.2698,-4.2185,-4.1108,-3.9914,-3.9209,-3.8335,-3.7406,-3.6539,-3.6315,-3.6156,-3.5537,-3.5589,-3.5677,-3.5677,-3.608,-3.6225,-3.5702,-3.4555,-3.344,-3.2502,-3.3055,-3.3476,-3.3359,-3.4181,-3.478,-3.4921,-3.5773,-3.6303,-3.6303,-3.6505,-3.685,-3.7295,-3.7544,-3.8222,-3.949,-3.9525,-3.9845,-4.0489,-4.0549,-4.0549,-4.0504,-4.0568,-4.0746,0.0,0.0,-2.253,-2.4636,-2.6252,-2.8211,-3.1775,-3.3268,-3.4455,-3.6229,-3.7203,-3.8035,-3.8745,-4.016,-4.1631,-4.3022,-4.3915,-4.5089,-4.7086,-4.6675,-4.6726,-4.8101,-4.759,-4.7443,0.0,-4.9058,-4.9903,-5.0747,-5.1899,-5.292,-5.3777,-5.4602,-5.4924,-5.4535,-5.5262,-5.5489,-5.5115,-5.5512,-5.5769,-5.5904,-5.5904,-5.601,-5.6133,-5.4534,-5.2855,-5.121,-5.1343,-5.1301,-5.1094,-5.1094,-5.0945,-5.0702,-5.0664,-4.9606,-4.8105,-4.8067,-4.7028,-4.5586,-4.5586,-4.5586,-4.5586,-4.5586,-4.5586,-4.555,-4.5201,-4.5096,-4.4924,-4.4204,-4.361,-4.3101,-4.2772,-4.175,-4.0978,-4.1542,-4.0656,-3.9849,-4.0387,-3.9345,-3.8284,-3.8267,-3.7648,-3.7135,-3.7135,-3.7173,-3.7173,-3.7137,-3.7082,-3.6498,-3.4996,-3.4818,-3.5009,-3.5475,-3.5525,-3.5737,-3.6219,-3.6285,-3.6303,-3.6303,-3.7019,-3.7589,-3.7877,-3.8622,-3.9357,-4.0062,-4.0082,-4.0212,-4.0489,-4.0636,-4.0636,-4.0504,-4.0703,-4.1209,0.0,0.0,-2.3187,-2.5092,-2.6143,-2.7763,-3.1694,-3.282,-3.3587,-3.5479,-3.6516,-3.7158,-3.7367,-3.9093,-4.0933,-4.2345,-4.3586,-4.5089,-4.7129,-4.6717,-4.6504,-4.7404,-4.7278,0.0,0.0,0.0,0.0,-5.071,-5.1687,-5.2803,-5.418,-5.5061,-5.5423,-5.5306,-5.5577,-5.564,-5.5489,-5.564,-5.5769,-5.5904,-5.6038,-5.5619,-5.472,-5.4094,-5.2897,-5.1343,-5.1386,-5.1301,-5.1094,-5.1094,-5.0945,-5.0702,-5.0702,-4.9625,-4.8105,-4.8105,-4.7048,-4.5586,-4.5586,-4.5586,-4.5586,-4.5586,-4.5586,-4.5586,-4.5476,-4.5282,-4.4988,-4.4508,-4.4098,-4.3564,-4.2885,-4.2382,-4.2021,-4.1853,-4.147,-4.1049,-4.0748,-4.0107,-3.9442,-3.8959,-3.8506,-3.8219,-3.8219,-3.8219,-3.8219,-3.8219,-3.7166,-3.6327,-3.6125,-3.5672,-3.553,-3.6024,-3.6529,-3.6918,-3.7074,-3.7588,-3.7982,-3.8146,-3.8232,-3.8619,-3.9337,-3.9402,-3.9735,-4.0356,-4.0372,-4.0406,-4.0489,-4.0545,-4.0838,-4.1354,-4.1431,-4.1909,-2.234,-2.3043,-2.365,-2.5591,-2.6563,-2.8036,-3.1761,-3.2593,-3.317,-3.51,-3.597,-3.6382,-3.668,-3.7915,-3.9538,-4.1462,-4.2805,-4.4523,-4.7057,-4.6952,-4.7089,-4.8284,-4.8177,0.0,0.0,0.0,0.0,-5.0729,-5.167,-5.2887,-5.4428,-5.5134,-5.5535,-5.5703,-5.5703,-5.5703,-5.5703,-5.5703,-5.5789,-5.601,-5.6202,-5.5639,-5.4453,-5.4052,-5.3134,-5.1855,-5.1543,-5.131,-5.1137,-5.1113,-5.0966,-5.0775,-5.0721,-4.9817,-4.8529,-4.8221,-4.724,-4.6009,-4.5701,-4.5586,-4.5586,-4.5586,-4.5586,-4.5586,-4.5586,-4.5438,-4.5222,-4.4872,-4.4527,-4.4039,-4.3351,-4.2922,-4.2655,-4.2444,-4.2284,-4.206,-4.174,-4.1305,-4.0743,-3.9979,-3.9433,-3.9038,-3.8762,-3.8707,-3.8707,-3.8707,-3.7715,-3.7068,-3.7388,-3.7017,-3.6802,-3.7118,-3.7624,-3.7918,-3.7918,-3.8395,-3.8792,-3.8933,-3.8884,-3.9181,-3.9901,-3.9819,-4.0023,-4.0489,-4.0489,-4.0642,-4.095,-4.095,-4.1412,-4.2258,-4.2258,-4.272,-2.2594,-2.3314,-2.4019,-2.5991,-2.736,-2.8917,-3.192,-3.2579,-3.318,-3.5156,-3.5493,-3.569,0.0,0.0,-3.7699,-4.0458,-4.166,-4.3454,-4.6913,-4.7421,-4.8285,0.0,0.0,0.0,0.0,0.0,0.0,-5.0857,0.0,-5.3153,-5.4382,-5.4867,-5.5262,-5.5662,-5.5703,-5.5703,-5.5703,-5.5703,-5.588,-5.6191,-5.6328,-5.5989,-5.5215,-5.4375,-5.3496,-5.2598,-5.1758,-5.1322,-5.1196,-5.1128,-5.102,-5.0894,-5.0757,-5.0163,-4.9298,-4.8471,-4.7625,-4.6778,-4.5951,-4.5624,-4.5586,-4.5586,-4.5586,-4.5586,-4.5586,-4.5586,-4.5531,-4.5201,-4.4872,-4.4527,-4.4117,-4.3419,-4.2921,-4.3426,-4.316,-4.2921,-4.3444,-4.2889,-4.2066,-4.1313,-4.0487,-3.9662,-3.8891,-3.8726,-3.8707,-3.8719,-3.8719,-3.8719,-3.8719,-3.8707,-3.8689,-3.875,-3.8719,-3.8719,-3.875,-3.875,-3.875,-3.878,-3.8971,-3.9264,-3.9622,-3.9922,-4.0233,-4.0531,-4.0566,-4.0989,-4.1873,-4.1873,-4.2316,-4.3162,-4.3162,-4.3585,-2.2438,-2.3543,-2.4828,-2.6157,-2.7865,-2.977,-3.2064,-3.2765,-3.3266,-3.4439,-3.4352,-3.4085,0.0,0.0,0.0,-3.9067,-4.1429,0.0,-4.7047,-4.7951,0.0,0.0,0.0,-5.0563,-5.0784,-5.1334,0.0,0.0,-5.227,-5.3011,-5.394,-5.4682,-5.516,-5.5237,-5.5535,-5.5703,-5.5703,-5.5703,-5.588,-5.6191,-5.6232,-5.5574,-5.4316,-5.4101,-5.3164,-5.1719,-5.1504,-5.1322,-5.1201,-5.1185,-5.1064,-5.0908,-5.0848,-5.027,-4.9375,-4.9144,-4.8144,-4.6874,-4.6644,-4.6144,-4.5586,-4.5586,-4.5586,-4.5586,-4.5586,-4.5586,-4.5531,-4.5201,-4.5052,-4.4896,-4.4553,-4.4271,-4.4157,-4.428,-4.3998,-4.3717,-4.3831,-4.3033,-4.2249,-4.2029,-4.0855,-3.9827,-3.9625,-3.9093,-3.8762,-3.899,-3.8999,-3.8999,-3.8999,-3.8815,-3.8892,-3.9327,-3.9144,-3.909,-3.9352,-3.9377,-3.9476,-3.9728,-3.9576,-3.9622,-3.9962,-4.0042,-4.0425,-4.1074,-4.1349,-4.1893,-4.2777,-4.2777,-4.3181,-4.3989,-4.3989,-4.4451,-2.2676,-2.4111,-2.5714,-2.6307,-2.8409,-3.0511,-3.1496,-3.2411,-3.2974,-3.2665,-3.2819,0.0,0.0,0.0,0.0,0.0,0.0,0.0,-4.7071,-4.869,-5.0143,0.0,-5.1848,0.0,-5.1848,-5.227,-5.2527,0.0,-5.2739,-5.3142,-5.3758,-5.4465,-5.4924,-5.5088,-5.5489,-5.5703,-5.5703,-5.5703,-5.588,-5.6191,-5.6191,-5.5828,-5.5117,-5.4355,-5.3476,-5.25,0.0,-5.1365,-5.1274,-5.1215,-5.1128,-5.1014,-5.094,-5.0577,-5.0002,-4.9547,-4.8798,-4.7894,-4.7163,-4.6586,-4.6105,-4.572,-4.5586,-4.5586,-4.5586,-4.5586,-4.5568,-4.5362,-4.5222,-4.5052,-4.4872,-4.4707,-4.458,-4.458,-4.4447,-4.4261,-4.4261,-4.3751,-4.3193,-4.2821,-4.1315,-4.0104,-4.0104,-3.942,-3.8884,-3.8923,-3.9144,-3.9314,-3.9314,-3.9189,-3.9216,-3.9552,-3.9414,-3.9389,-3.9599,-3.9599,-3.9668,-3.988,-3.984,-3.9989,-4.039,-4.0554,-4.0996,-4.1817,-4.2011,-4.2618,-4.3624,-4.3624,-4.4066,-4.4874,-4.4874,-4.5124,-2.3461,-2.5136,-2.6719,-2.6871,-2.9127,-3.1288,-3.0992,-3.1959,-3.242,-3.0726,0.0,-3.1638,-3.0818,-3.2662,-3.4939,-3.6823,0.0,-4.3815,-4.6898,-4.9172,-5.1142,-5.2858,-5.3133,-5.3206,-5.3206,-5.3206,-5.3206,-5.3206,-5.3206,-5.3359,-5.3683,-5.424,-5.4701,-5.516,-5.5512,-5.5703,-5.5703,-5.5703,-5.588,-5.6191,-5.6191,-5.6276,-5.6367,-5.4746,-5.3945,-5.373,0.0,0.0,-5.1386,-5.1271,-5.123,-5.1171,-5.1011,-5.0912,-5.0797,-4.9926,-4.9509,-4.9183,-4.7605,-4.699,-4.6759,-4.5874,-4.5586,-4.5586,-4.5586,-4.5586,-4.5586,-4.5586,-4.54,-4.518,-4.518,-4.4943,-4.4732,-4.4732,-4.4682,-4.4676,-4.4676,-4.4631,-4.4398,-4.3624,-4.2018,-4.0755,-4.0643,-3.9888,-3.9248,-3.8921,-3.9345,-3.9668,-3.9712,-3.9645,-3.9622,-3.9712,-3.969,-3.9668,-3.9712,-3.9712,-3.9712,-3.9712,-3.9983,-4.0364,-4.0854,-4.1178,-4.178,-4.2675,-4.2714,-4.3312,-4.447,-4.447,-4.4855,-4.5586,-4.5586,-4.5586,-2.5619,-2.6871,-2.7992,-2.8778,-3.069,-3.2402,-3.2556,-3.2482,0.0,0.0,0.0,-2.9781,-3.0551,-3.2093,0.0,-3.6779,0.0,0.0,0.0,0.0,-4.9774,0.0,0.0,0.0,0.0,0.0,0.0,0.0,0.0,-5.3248,-5.3295,-5.4067,-5.4838,-5.5577,-5.5662,-5.5703,-5.5703,-5.5703,-5.588,-5.6191,-5.6191,-5.5964,-5.5488,-5.4473,-5.3613,-5.2871,-5.1836,0.0,-5.1406,-5.1367,-5.1296,-5.1201,-5.1154,-5.1055,-5.0889,-5.0689,-5.0113,-4.926,-4.824,-4.7471,-4.6759,-4.5874,-4.5586,-4.5586,-4.5586,-4.5586,-4.5586,-4.5586,-4.5568,-4.5513,-4.5513,-4.5457,-4.5438,-4.5438,-4.5222,-4.5011,-4.5011,-4.48,-4.4542,-4.4417,-4.3516,-4.2605,-4.192,-4.1111,-4.0434,-3.993,-3.9941,-4.0101,-4.0319,-3.9905,-3.98,-4.0283,-4.0139,-4.0101,-4.0336,-4.0336,-4.0336,-4.0336,-4.0406,-4.0666,-4.1184,-4.1531,-4.2315,-4.3632,-4.3886,-4.4455,-4.5355,-4.5355,-4.5451,-4.5586,-4.5586,-4.5586,-2.6224,-2.7279,-2.8299,-2.9232,-3.0837,-3.2039,-3.2012,0.0,0.0,0.0,0.0,-2.905,-2.9216,0.0,0.0,0.0,0.0,0.0,0.0,0.0,0.0,0.0,0.0,0.0,0.0,0.0,0.0,0.0,0.0,-5.3206,-5.3206,-5.4015,-5.476,-5.5375,-5.5599,-5.5703,-5.5703,-5.5703,-5.5827,-5.6051,-5.6158,-5.6071,-5.5826,-5.4569,-5.3769,-5.3301,-5.1973,0.0,-5.1406,-5.1406,-5.1365,-5.1296,-5.1234,-5.1135,-5.1055,-5.102,-5.0646,-4.9994,-4.8662,-4.7904,-4.7317,-4.6009,-4.5586,-4.5586,-4.5586,-4.5586,-4.5586,-4.5586,-4.5586,-4.5586,-4.5586,-4.5586,-4.5586,-4.5586,-4.5476,-4.5362,-4.5362,-4.5243,-4.5118,-4.5118,-4.4284,-4.3491,-4.3111,-4.2332,-4.1648,-4.1206,-4.1055,-4.0975,-4.0917,-4.0424,-4.0175,-4.0473,-4.0389,-4.0356,-4.0489,-4.0489,-4.0489,-4.0489,-4.0931,-4.1409,-4.1893,-4.2527,-4.3369,-4.4489,-4.4651,-4.5017,-4.5586,-4.5586,-4.5586,-4.5586,-4.5586,-4.5586,-2.7163,-2.814,-2.9073,-3.0213,-3.1218,-3.1871,-3.1574,-3.1232,0.0,0.0,-2.8511,-2.8664,-2.844,0.0,0.0,0.0,0.0,0.0,0.0,0.0,0.0,0.0,0.0,0.0,0.0,0.0,0.0,0.0,0.0,0.0,-5.3462,-5.4206,-5.479,-5.5212,-5.5554,-5.5703,-5.5703,-5.5703,-5.5769,-5.5904,-5.6065,-5.6232,-5.6352,-5.4892,-5.4159,-5.3906,-5.2344,0.0,0.0,-5.1406,-5.1406,-5.1386,-5.1274,-5.1234,-5.1196,-5.1145,-5.1053,-5.0693,-4.8962,-4.8266,-4.7915,-4.6217,-4.5632,-4.5586,-4.5586,-4.5586,-4.5586,-4.5586,-4.5586,-4.5586,-4.5586,-4.5586,-4.5586,-4.5586,-4.5586,-4.5586,-4.5586,-4.5586,-4.5586,-4.5586,-4.4882,-4.4191,-4.4019,-4.3426,-4.2811,-4.2389,-4.2183,-4.198,-4.1724,-4.1159,-4.0777,-4.0777,-4.0604,-4.0489,-4.0489,-4.0489,-4.0489,-4.0489,-4.1316,-4.2059,-4.2603,-4.3463,-4.4322,-4.5182,-4.5201,-4.5342,-4.5586,-4.5586,-4.5586,-4.5586,-4.5586,-4.5586,-3.024,-3.0869,-3.1375,-3.3143,-3.3282,-3.2961,-3.3053,0.0,0.0,-2.9113,-2.8381,-2.834,-2.9806,-3.0885,0.0,0.0,0.0,0.0,0.0,0.0,0.0,0.0,0.0,0.0,0.0,0.0,0.0,0.0,0.0,0.0,-5.4373,-5.479,-5.5212,-5.564,-5.5684,-5.5703,-5.5703,-5.5703,-5.5769,-5.5904,-5.592,-5.6096,-5.6372,-5.544,-5.463,-5.3945,-5.2988,0.0,0.0,-5.1406,-5.1406,-5.1406,-5.1386,-5.1318,-5.1201,-5.1196,-5.114,-5.0821,-4.909,-4.8468,-4.8186,-4.6435,-4.5757,-4.5586,-4.5586,-4.5586,-4.5586,-4.5586,-4.5586,-4.5586,-4.5586,-4.5586,-4.5586,-4.5586,-4.5586,-4.5586,-4.5586,-4.5586,-4.5586,-4.5586,-4.5528,-4.5203,-4.4414,-4.4186,-4.3897,-4.3131,-4.2975,-4.297,-4.2936,-4.2203,-4.1681,-4.1681,-4.0969,-4.0489,-4.0489,-4.0489,-4.0489,-4.0489,-4.1316,-4.2165,-4.3013,-4.382,-4.4647,-4.5549,-4.5568,-4.5568,-4.5586,-4.5586,-4.5586,-4.5586,-4.5586,-4.5586,-3.0585,-3.118,-3.1669,-3.3518,-3.3565,-3.3106,-3.3246,0.0,-3.006,-2.9715,-2.8687,-2.8288,-2.9933,-3.0867,-3.2424,0.0,0.0,0.0,0.0,0.0,0.0,0.0,0.0,0.0,0.0,0.0,0.0,0.0,0.0,0.0,-5.4503,-5.4876,-5.5186,-5.5331,-5.5577,-5.5703,-5.5703,-5.5703,-5.5728,-5.5789,-5.5857,-5.5962,-5.6069,-5.5404,-5.4645,-5.3849,-5.3045,0.0,0.0,-5.1406,-5.1406,-5.1406,-5.1406,-5.1366,-5.132,-5.132,-5.1258,-5.0979,-4.9816,-4.9021,-4.8292,-4.7075,-4.626,-4.5769,-4.5769,-4.5764,-4.5733,-4.5764,-4.5699,-4.5635,-4.5757,-4.575,-4.5692,-4.562,-4.5586,-4.5586,-4.5586,-4.5586,-4.5586,-4.5586,-4.5586,-4.549,-4.5143,-4.5066,-4.497,-4.4643,-4.4162,-4.3816,-4.3816,-4.3104,-4.2585,-4.2585,-4.1335,-4.0489,-4.0489,-4.0489,-4.0489,-4.0489,-4.1816,-4.2739,-4.3085,-4.4374,-4.524,-4.5586,-4.5586,-4.5586,-4.5586,-4.5586,-4.5586,-4.5586,-4.5586,-4.5586,-3.1151,-3.1897,-3.2393,-3.4041,-3.4006,-3.3482,0.0,0.0,-3.0459,-3.0179,-2.9245,-2.8868,-3.0129,-3.1108,-3.2487,0.0,0.0,0.0,0.0,0.0,0.0,0.0,0.0,0.0,0.0,0.0,0.0,0.0,0.0,0.0,0.0,-5.4876,-5.516,-5.5282,-5.5535,-5.5703,-5.5703,-5.5703,-5.5703,-5.5703,-5.5789,-5.5857,-5.5885,-5.5519,-5.4738,-5.3702,0.0,0.0,0.0,-5.1386,-5.1406,-5.1406,-5.1406,-5.1386,-5.1343,-5.1343,-5.1268,-5.1054,-5.0234,-4.9324,-4.8421,-4.7548,-4.6665,-4.5977,-4.6014,-4.5938,-4.5836,-4.59,-4.5805,-4.5722,-4.5852,-4.5852,-4.5808,-4.5713,-4.5684,-4.5684,-4.5684,-4.5684,-4.5688,-4.5665,-4.5648,-4.5651,-4.5603,-4.5586,-4.5586,-4.5586,-4.5066,-4.4682,-4.4682,-4.3951,-4.3451,-4.3451,-4.2143,-4.1162,-4.0912,-4.0873,-4.0873,-4.0873,-4.2489,-4.3451,-4.3451,-4.4836,-4.5586,-4.5586,-4.5586,-4.5586,-4.5586,-4.5586,-4.5586,-4.5586,-4.5586,-4.5586,-3.2445,-3.3499,-3.4245,-3.5213,-3.4972,-3.4255,0.0,-3.224,-3.1054,-3.028,-3.0091,-3.019,-3.0612,-3.167,-3.3179,-3.5277,0.0,0.0,0.0,0.0,0.0,0.0,0.0,0.0,0.0,0.0,0.0,0.0,0.0,0.0,0.0,-5.4876,-5.5282,-5.5684,-5.5703,-5.5703,-5.5703,-5.5703,-5.5703,-5.5703,-5.5684,-5.5769,-5.5904,-5.5885,-5.504,0.0,0.0,0.0,0.0,-5.1344,-5.1406,-5.1406,-5.1406,-5.132,-5.1206,-5.1206,-5.1154,-5.0977,-5.0101,-4.9313,-4.8547,-4.7684,-4.6811,-4.612,-4.6268,-4.6113,-4.5899,-4.5899,-4.5899,-4.5899,-4.5899,-4.5899,-4.5899,-4.5899,-4.5899,-4.5899,-4.5899,-4.5899,-4.5881,-4.5815,-4.5796,-4.5761,-4.5618,-4.5586,-4.5586,-4.5586,-4.5586,-4.5586,-4.5586,-4.4816,-4.4297,-4.4297,-4.3566,-4.272,-4.1873,-4.1797,-4.1797,-4.1797,-4.3355,-4.4297,-4.4297,-4.5124,-4.5586,-4.5586,-4.5586,-4.5586,-4.5586,-4.5586,-4.5586,-4.5586,-4.5586,-4.5586,-2.9925,-3.0487,-3.0884,-3.1751,-3.2229,-3.2342,-3.1917,-3.1506,-3.1137,-3.0898,-3.0446,-3.0377,-3.1303,-3.1759,-3.2984,-3.5933,-3.6757,0.0,0.0,0.0,0.0,0.0,0.0,0.0,0.0,0.0,0.0,0.0,0.0,0.0,0.0,-5.4712,-5.516,-5.5282,-5.5554,-5.5577,-5.5306,-5.5577,-5.5703,-5.5703,-5.5703,-5.5707,-5.5769,-5.5857,0.0,0.0,0.0,0.0,0.0,-5.1225,-5.1268,-5.1268,-5.1365,-5.1366,-5.1322,-5.1238,-5.1191,-5.1115,-5.081,-5.0159,-4.9309,-4.8441,-4.7564,-4.6753,-4.6196,-4.5932,-4.5801,-4.5712,-4.5855,-4.6015,-4.5865,-4.5922,-4.6008,-4.5916,-4.5899,-4.5899,-4.5899,-4.5899,-4.589,-4.5872,-4.5862,-4.5839,-4.5742,-4.5733,-4.5708,-4.562,-4.5586,-4.5586,-4.5586,-4.5355,-4.5182,-4.5182,-4.4432,-4.3585,-4.2758,-4.2701,-4.2701,-4.2701,-4.3701,-4.4297,-4.4297,-4.5143,-4.5586,-4.5586,-4.5586,-4.5586,-4.5586,-4.5586,-4.5586,-4.5586,-4.5586,-4.5586,0.0,-2.9241,-2.9678,-3.0188,-3.0842,-3.1286,-3.1165,-3.1158,-3.119,-3.119,-3.0835,-3.0709,-3.1459,-3.1825,-3.2844,-3.5216,0.0,0.0,0.0,0.0,0.0,0.0,0.0,0.0,0.0,0.0,0.0,0.0,0.0,0.0,0.0,-5.4317,-5.4621,-5.4621,-5.5167,-5.5356,-5.5088,-5.5331,-5.5554,-5.5703,-5.5703,-5.5703,-5.5684,-5.5789,0.0,0.0,0.0,0.0,0.0,-5.1117,-5.1161,-5.1161,-5.1249,-5.1269,-5.1199,-5.1125,-5.1054,-5.1014,-5.0959,-5.0416,-4.9579,-4.8716,-4.7651,-4.66,-4.5972,-4.5803,-4.5825,-4.575,-4.587,-4.5991,-4.5873,-4.5936,-4.5996,-4.5911,-4.5907,-4.5905,-4.5968,-4.5984,-4.5972,-4.5975,-4.5981,-4.5944,-4.5859,-4.5828,-4.5783,-4.5722,-4.5645,-4.562,-4.5665,-4.5635,-4.5586,-4.5586,-4.5105,-4.4586,-4.4085,-4.3739,-4.3547,-4.3547,-4.4335,-4.4778,-4.4778,-4.5297,-4.5586,-4.5586,-4.5586,-4.5586,-4.5586,-4.5586,-4.5586,-4.5603,-4.5648,-4.568,0.0,-2.9134,-2.9935,-2.9991,-3.0417,-3.08,-3.0844,-3.1016,0.0,-3.1123,-3.1157,-3.1263,-3.1404,-3.2,-3.2839,-3.3913,0.0,0.0,0.0,0.0,0.0,0.0,0.0,0.0,0.0,0.0,0.0,0.0,0.0,0.0,0.0,-5.3777,-5.3777,-5.374,-5.4591,-5.5007,-5.5007,-5.5034,-5.5256,-5.5662,-5.5662,-5.5662,-5.5703,-5.5645,0.0,0.0,0.0,0.0,0.0,-5.1039,-5.1093,-5.1093,-5.1103,-5.1008,-5.0903,-5.0889,-5.0822,-5.0721,-5.0702,-5.0252,-4.9509,-4.858,-4.719,-4.5852,-4.5661,-4.5731,-4.589,-4.5881,-4.5881,-4.589,-4.589,-4.589,-4.5899,-4.5899,-4.5899,-4.5932,-4.6069,-4.6084,-4.6092,-4.6097,-4.6101,-4.606,-4.5932,-4.585,-4.5844,-4.5881,-4.5744,-4.568,-4.5796,-4.5708,-4.5618,-4.562,-4.562,-4.5603,-4.5586,-4.4855,-4.4393,-4.4393,-4.5143,-4.5586,-4.5586,-4.5586,-4.5586,-4.5586,-4.5586,-4.5586,-4.5586,-4.5603,-4.562,-4.562,-4.5747,-4.5822,-2.5229,0.0,-2.6645,-2.6921,-2.7539,-2.8147,0.0,-2.9505,-3.0362,0.0,0.0,-3.1686,-3.3266,-3.2913,-3.3561,0.0,0.0,0.0,0.0,0.0,0.0,0.0,0.0,0.0,0.0,0.0,0.0,0.0,0.0,0.0,0.0,-5.3624,-5.3663,-5.3359,-5.3851,-5.4099,-5.4099,-5.4465,-5.4819,-5.5237,-5.5237,-5.5399,-5.5684,-5.5049,0.0,0.0,0.0,0.0,-5.0757,-5.0894,-5.0959,-5.0972,-5.1053,-5.1074,-5.105,-5.0945,-5.0879,-5.0835,-5.074,-5.0587,-5.0181,-4.864,-4.7034,-4.5677,-4.5601,-4.5703,-4.5796,-4.5699,-4.5736,-4.582,-4.582,-4.5871,-4.5899,-4.5899,-4.5899,-4.5907,-4.5932,-4.5959,-4.5975,-4.6072,-4.61,-4.6093,-4.6065,-4.6033,-4.6001,-4.5907,-4.5852,-4.5841,-4.5872,-4.5852,-4.5805,-4.5756,-4.5761,-4.5708,-4.5603,-4.5413,-4.5278,-4.5278,-4.549,-4.5586,-4.5586,-4.5586,-4.5586,-4.5586,-4.5586,-4.5586,-4.5586,-4.5708,-4.5761,-4.5742,-4.5828,-4.5872,-2.4934,-2.5895,-2.684,-2.7399,-2.7753,-2.831,-2.9597,0.0,0.0,0.0,0.0,0.0,-3.3127,0.0,0.0,0.0,0.0,0.0,0.0,0.0,0.0,0.0,0.0,0.0,0.0,0.0,0.0,0.0,0.0,0.0,0.0,-5.3422,-5.3404,-5.3206,-5.3422,-5.3586,-5.3814,-5.4048,-5.4497,-5.5088,-5.5088,-5.5115,-5.5126,-5.4703,-5.3818,0.0,0.0,0.0,-5.0702,-5.0773,-5.0805,-5.0822,-5.0894,-5.0918,-5.0923,-5.0835,-5.0805,-5.0808,-5.074,-5.0315,-4.9637,-4.8491,-4.7108,-4.5879,-4.5666,-4.5651,-4.5692,-4.562,-4.5648,-4.5708,-4.5708,-4.5742,-4.5764,-4.5764,-4.5764,-4.5789,-4.5839,-4.585,-4.5872,-4.5981,-4.6001,-4.6041,-4.6093,-4.6049,-4.6036,-4.6089,-4.5981,-4.5916,-4.5988,-4.5932,-4.5891,-4.5839,-4.5847,-4.5813,-4.5744,-4.5744,-4.5699,-4.5603,-4.5648,-4.5692,-4.5692,-4.5692,-4.5703,-4.5731,-4.5744,-4.5744,-4.5744,-4.5813,-4.5847,-4.5859,-4.5944,-4.5988,-2.5762,-2.7388,-2.8702,-2.9003,-2.9059,-2.9471,-3.1376,0.0,0.0,0.0,0.0,0.0,0.0,0.0,0.0,0.0,0.0,0.0,0.0,0.0,0.0,0.0,0.0,0.0,0.0,0.0,0.0,0.0,0.0,0.0,0.0,-5.3206,-5.3206,-5.3206,-5.3206,-5.3359,-5.372,-5.372,-5.4099,-5.4905,-5.4846,-5.4658,-5.4389,-5.4182,-5.3299,-5.1895,0.0,0.0,-5.0702,-5.0702,-5.0702,-5.0702,-5.0702,-5.0663,-5.0604,-5.0604,-5.0565,-5.0523,-5.0523,-4.9717,-4.8634,-4.8254,-4.7269,-4.6157,-4.5744,-4.5534,-4.5438,-4.5438,-4.5513,-4.5586,-4.555,-4.5568,-4.5586,-4.5586,-4.5586,-4.5618,-4.5747,-4.5775,-4.579,-4.5872,-4.5872,-4.5907,-4.6045,-4.5975,-4.5973,-4.6207,-4.6069,-4.5975,-4.6088,-4.6025,-4.594,-4.5924,-4.5924,-4.5916,-4.5899,-4.5916,-4.5852,-4.5661,-4.5756,-4.5815,-4.5815,-4.5815,-4.5847,-4.5899,-4.5899,-4.5899,-4.5899,-4.5916,-4.5913,-4.5896,-4.605,-4.6095,-2.6752,-2.8816,-3.0234,-2.8481,-2.8527,-2.9102,-2.9421,0.0,0.0,0.0,0.0,0.0,0.0,0.0,0.0,0.0,0.0,0.0,0.0,0.0,0.0,0.0,0.0,0.0,0.0,0.0,0.0,0.0,0.0,0.0,-5.3206,-5.3206,-5.3206,-5.3206,-5.3206,-5.3248,-5.3295,-5.3295,-5.3545,-5.3994,-5.3653,-5.3623,-5.3868,-5.2787,-5.2164,-5.1875,0.0,-5.0798,-5.0702,-5.0702,-5.0702,-5.0702,-5.0702,-5.0483,-5.0183,-5.0183,-4.9974,-4.9673,-4.9673,-4.9069,-4.8285,-4.8226,-4.714,-4.5859,-4.5779,-4.53,-4.4757,-4.4757,-4.5161,-4.5531,-4.5243,-4.54,-4.5586,-4.5586,-4.5586,-4.5603,-4.5637,-4.5618,-4.5665,-4.579,-4.5815,-4.5836,-4.5927,-4.5901,-4.5908,-4.5967,-4.6026,-4.608,-4.6092,-4.6171,-4.62,-4.608,-4.6075,-4.6008,-4.5907,-4.6001,-4.6014,-4.5852,-4.5862,-4.5872,-4.5872,-4.5872,-4.5881,-4.5899,-4.5899,-4.5899,-4.5899,-4.6008,-4.6003,-4.5894,-4.6048,-4.603,-2.6677,-2.7987,-2.907,-2.9024,-3.0185,-3.1542,-3.2426,0.0,0.0,0.0,0.0,0.0,0.0,0.0,0.0,0.0,0.0,0.0,0.0,0.0,0.0,0.0,0.0,0.0,0.0,0.0,0.0,0.0,0.0,0.0,-5.3206,-5.3206,-5.3206,-5.3206,-5.2784,-5.2546,-5.2546,-5.2123,-5.2333,-5.3144,-5.2947,-5.2623,-5.2172,-5.1573,-5.1059,-5.0577,0.0,-5.0043,-5.0043,-5.0043,-5.0043,-5.0043,-5.0043,-4.9949,-4.9773,-4.9773,-4.9664,-4.9504,-4.9504,-4.9093,-4.8546,-4.8286,-4.7578,-4.6697,-4.5998,-4.5534,-4.5111,-4.4449,-4.4663,-4.5011,-4.4872,-4.5074,-4.5283,-4.5118,-4.5342,-4.555,-4.5362,-4.5457,-4.562,-4.568,-4.5692,-4.5733,-4.5825,-4.5847,-4.5861,-4.589,-4.594,-4.5988,-4.5988,-4.6045,-4.6085,-4.6093,-4.6093,-4.6092,-4.612,-4.6173,-4.6147,-4.6027,-4.6001,-4.6001,-4.6001,-4.608,-4.6117,-4.6117,-4.6041,-4.6009,-4.6009,-4.5992,-4.5968,-4.5904,-4.5949,-4.5967,-2.6733,-2.7494,-2.832,-2.9544,0.0,-3.2914,-3.4722,0.0,0.0,0.0,0.0,0.0,0.0,0.0,0.0,0.0,0.0,0.0,0.0,0.0,0.0,0.0,0.0,0.0,0.0,0.0,0.0,0.0,0.0,0.0,-5.3206,-5.3023,-5.2931,-5.2931,-5.2142,-5.172,-5.172,-5.1114,-5.124,-5.2178,-5.2064,-5.1544,-5.0628,-5.053,-5.0126,-4.9504,-4.9504,-4.9504,-4.9504,-4.9504,-4.9504,-4.9504,-4.9504,-4.9445,-4.9356,-4.9265,-4.9202,-4.9202,-4.9202,-4.9029,-4.8702,-4.8359,-4.7932,-4.7386,-4.6401,-4.5836,-4.5357,-4.442,-4.4255,-4.4364,-4.4447,-4.4707,-4.4919,-4.4657,-4.4988,-4.5322,-4.514,-4.5302,-4.5513,-4.5586,-4.5586,-4.5635,-4.5733,-4.5761,-4.5764,-4.5809,-4.5852,-4.5881,-4.5881,-4.5881,-4.5932,-4.6039,-4.6045,-4.6089,-4.62,-4.6202,-4.6169,-4.6052,-4.6117,-4.6131,-4.61,-4.6191,-4.6246,-4.6202,-4.6113,-4.6045,-4.6045,-4.594,-4.589,-4.5881,-4.5881,-4.5862,-2.7575,-2.8796,-2.9754,-2.9434,0.0,0.0,-3.2891,0.0,0.0,0.0,0.0,0.0,0.0,0.0,0.0,0.0,0.0,0.0,0.0,0.0,0.0,0.0,0.0,0.0,0.0,0.0,0.0,0.0,0.0,0.0,-5.3164,-5.2491,-5.2087,-5.2087,-5.1316,-5.0894,-5.0894,-5.0839,-5.082,-5.0937,-5.0472,-5.0238,-5.0142,-4.9758,-4.956,-4.9504,-4.9504,-4.9504,-4.9504,-4.9504,-4.9504,-4.9504,-4.9504,-4.9265,-4.8897,-4.8513,-4.8402,-4.8402,-4.8402,-4.8364,-4.8326,-4.829,-4.7776,-4.7132,-4.704,-4.5956,-4.4743,-4.4652,-4.4118,-4.3646,-4.3955,-4.4346,-4.4631,-4.4624,-4.465,-4.4732,-4.5052,-4.5118,-4.5222,-4.555,-4.5586,-4.5603,-4.562,-4.562,-4.562,-4.5618,-4.5733,-4.5822,-4.5822,-4.5861,-4.5907,-4.5907,-4.5916,-4.5916,-4.5924,-4.5924,-4.5924,-4.5913,-4.6156,-4.6229,-4.6101,-4.6117,-4.6069,-4.5924,-4.5916,-4.5916,-4.5916,-4.5907,-4.5881,-4.5822,-4.5822,-4.5747,-2.671,-2.8062,-2.9444,-2.9317,0.0,0.0,0.0,0.0,0.0,0.0,0.0,0.0,0.0,0.0,0.0,0.0,0.0,0.0,0.0,0.0,0.0,0.0,0.0,0.0,0.0,0.0,0.0,0.0,0.0,0.0,0.0,-5.1773,-5.1329,-5.1261,-5.007,-4.9633,-5.005,-4.9517,-4.926,-4.926,-4.96,-4.9491,-4.8956,-4.8841,-4.8763,-4.8763,-4.8763,-4.8763,-4.8763,-4.8763,-4.8763,-4.8763,-4.8763,-4.8657,-4.8513,-4.8364,-4.8306,-4.8306,-4.8306,-4.8306,-4.8306,-4.8306,-4.8104,-4.7755,-4.726,-4.6342,-4.5351,-4.4856,-4.4121,-4.3513,-4.3646,-4.3974,-4.4175,-4.3962,-4.4252,-4.4553,-4.4455,-4.4612,-4.4825,-4.4966,-4.514,-4.5302,-4.5302,-4.5457,-4.5586,-4.5586,-4.5651,-4.568,-4.568,-4.5703,-4.5764,-4.5825,-4.5872,-4.5899,-4.5899,-4.5899,-4.5899,-4.5899,-4.5995,-4.6033,-4.5981,-4.5981,-4.594,-4.5899,-4.5861,-4.5836,-4.5836,-4.5744,-4.5699,-4.568,-4.568,-4.5651,-2.6099,-2.7357,-2.8946,0.0,0.0,0.0,0.0,0.0,0.0,0.0,0.0,0.0,0.0,0.0,0.0,0.0,0.0,0.0,0.0,0.0,0.0,0.0,0.0,0.0,0.0,0.0,0.0,0.0,0.0,0.0,0.0,-5.0524,-5.01,-4.9846,-4.8779,-4.8448,-4.8894,-4.8504,-4.8306,-4.8324,-4.8893,-4.8875,-4.8306,-4.8306,-4.8306,-4.8306,-4.8306,-4.8306,-4.8306,-4.8306,-4.8306,-4.8267,-4.8075,-4.8114,-4.8267,-4.7838,-4.7838,-4.8035,-4.8035,-4.7879,-4.7738,-4.7937,-4.7879,-4.7588,-4.7062,-4.6154,-4.5249,-4.4892,-4.4072,-4.3304,-4.3444,-4.3679,-4.3772,-4.3529,-4.3886,-4.4194,-4.4046,-4.4204,-4.4447,-4.458,-4.48,-4.4985,-4.5074,-4.5302,-4.5476,-4.5586,-4.5586,-4.5586,-4.5586,-4.5586,-4.5635,-4.5737,-4.5783,-4.5817,-4.5817,-4.5817,-4.5817,-4.5817,-4.5817,-4.5809,-4.5881,-4.5862,-4.5861,-4.5817,-4.5764,-4.5733,-4.5733,-4.5651,-4.5586,-4.5586,-4.5586,-4.5586,-2.5979,-2.7017,-2.8481,0.0,0.0,0.0,0.0,0.0,0.0,0.0,0.0,0.0,0.0,0.0,0.0,0.0,0.0,0.0,0.0,0.0,0.0,0.0,0.0,0.0,0.0,0.0,0.0,0.0,0.0,0.0,0.0,-4.8675,-4.8308,-4.7731,-4.7474,-4.7385,-4.7385,-4.7977,-4.8306,-4.8306,-4.8306,-4.8306,-4.8306,-4.8306,-4.8306,-4.8306,-4.8306,-4.8306,-4.8267,-4.8267,-4.8267,-4.821,-4.7614,-4.7756,-4.8114,-4.6847,-4.6819,-4.7385,-4.7385,-4.6955,-4.6524,-4.7194,-4.6955,-4.6383,-4.6383,-4.5333,-4.4201,-4.4839,-4.3902,-4.2826,-4.3375,-4.3479,-4.3479,-4.3497,-4.3497,-4.3597,-4.3924,-4.4016,-4.4117,-4.4501,-4.458,-4.4682,-4.5052,-4.5096,-4.5222,-4.555,-4.5586,-4.5586,-4.5586,-4.5586,-4.5586,-4.5586,-4.5586,-4.5586,-4.5586,-4.5586,-4.5586,-4.5586,-4.5586,-4.5648,-4.5796,-4.5796,-4.5733,-4.5603,-4.5586,-4.5586,-4.5586,-4.5586,-4.5586,-4.5586,-4.5586,-4.5586,-2.5203,-2.6854,0.0,0.0,0.0,0.0,0.0,0.0,0.0,0.0,0.0,0.0,0.0,0.0,0.0,0.0,0.0,0.0,0.0,0.0,0.0,0.0,0.0,0.0,0.0,0.0,0.0,0.0,0.0,0.0,0.0,-4.7544,-4.7107,-4.6802,-4.6332,-4.6495,-4.7385,-4.7572,-4.7897,-4.8306,-4.7856,-4.7897,-4.8306,-4.8306,-4.8075,-4.7697,-4.8132,-4.7797,-4.6937,-4.6937,-4.6937,-4.6937,-4.6756,-4.6801,-4.6937,-4.6524,-4.6524,-4.671,-4.671,-4.6571,-4.643,-4.6618,-4.6571,-4.6383,-4.6383,-4.5333,-4.4156,-4.4289,-4.3273,-4.2203,-4.2808,-4.2939,-4.3014,-4.341,-4.3497,-4.3513,-4.3631,-4.3646,-4.3679,-4.3791,-4.4035,-4.429,-4.4682,-4.4943,-4.5222,-4.555,-4.5586,-4.5586,-4.5586,-4.5586,-4.5586,-4.5586,-4.5586,-4.5586,-4.5586,-4.5586,-4.5586,-4.5586,-4.5586,-4.562,-4.5648,-4.5648,-4.5635,-4.5586,-4.5586,-4.5586,-4.5586,-4.5586,-4.5586,-4.5586,-4.5586,-4.5586,-2.5695,0.0,0.0,0.0,0.0,0.0,0.0,0.0,0.0,0.0,0.0,0.0,0.0,0.0,0.0,0.0,0.0,0.0,0.0,0.0,0.0,0.0,0.0,0.0,0.0,0.0,0.0,0.0,0.0,0.0,0.0,-4.6291,-4.6066,-4.5699,-4.5545,-4.5965,-4.6999,-4.7299,-4.7572,-4.7937,-4.7572,-4.747,-4.7554,-4.7554,-4.7367,-4.6999,-4.7367,-4.7132,-4.6383,-4.6383,-4.6383,-4.6383,-4.6161,-4.6192,-4.6336,-4.5865,-4.5833,-4.6046,-4.6046,-4.5865,-4.5732,-4.5965,-4.5865,-4.5629,-4.5316,-4.4359,-4.3363,-4.3302,-4.2412,-4.1578,-4.2162,-4.2342,-4.2541,-4.3321,-4.3497,-4.3497,-4.3497,-4.3497,-4.3497,-4.3497,-4.3679,-4.3912,-4.4308,-4.4535,-4.4811,-4.5322,-4.5513,-4.555,-4.5419,-4.5513,-4.5586,-4.5586,-4.5586,-4.5586,-4.5586,-4.5586,-4.5586,-4.5586,-4.5586,-4.5586,-4.5586,-4.5586,-4.5586,-4.5586,-4.5586,-4.5586,-4.5586,-4.5586,-4.5586,-4.5586,-4.5586,-4.5586,-2.6673,0.0,0.0,0.0,0.0,0.0,0.0,0.0,0.0,0.0,0.0,0.0,0.0,0.0,0.0,0.0,0.0,0.0,0.0,0.0,0.0,0.0,0.0,0.0,0.0,0.0,0.0,0.0,0.0,0.0,0.0,-4.5142,-4.5196,-4.4626,-4.5142,-4.5681,-4.6336,-4.691,-4.7237,-4.7299,-4.7237,-4.691,-4.6336,-4.6383,-4.6383,-4.6365,-4.6288,-4.6288,-4.6336,-4.624,-4.624,-4.6192,-4.5648,-4.5732,-4.6094,-4.4998,-4.4961,-4.5407,-4.5407,-4.5035,-4.4665,-4.5232,-4.5001,-4.4333,-4.3639,-4.2844,-4.2191,-4.2049,-4.1449,-4.0949,-4.1578,-4.1707,-4.2003,-4.3105,-4.341,-4.341,-4.341,-4.3463,-4.3497,-4.3497,-4.3497,-4.3597,-4.3924,-4.4016,-4.4261,-4.4943,-4.5322,-4.54,-4.5096,-4.5322,-4.5513,-4.5513,-4.555,-4.5549,-4.5549,-4.5586,-4.5586,-4.5586,-4.5586,-4.5586,-4.5568,-4.5586,-4.5586,-4.5586,-4.5586,-4.5586,-4.5586,-4.5586,-4.5586,-4.5586,-4.5586,-4.5586,0.0,-2.736,0.0,0.0,0.0,0.0,0.0,0.0,0.0,0.0,0.0,0.0,0.0,0.0,0.0,0.0,0.0,0.0,0.0,0.0,0.0,0.0,0.0,0.0,0.0,0.0,0.0,0.0,0.0,0.0,-4.4626,-4.472,-4.472,-4.457,-4.472,-4.5089,-4.5681,-4.5833,-4.6161,0.0,-4.6112,-4.5833,-4.5681,-4.6192,-4.6383,-4.6336,-4.5425,-4.5284,-4.5648,-4.5178,-4.4998,-4.4944,-4.4869,-4.4852,-4.4961,-4.4682,-4.4665,-4.4814,-4.4814,-4.472,-4.4626,-4.4776,-4.4258,-4.3639,-4.347,-4.2489,-4.1407,-4.1393,-4.0832,-4.0417,-4.0967,-4.1087,-4.1251,-4.2003,-4.2541,-4.2864,-4.2864,-4.3214,-4.3497,-4.3497,-4.3497,-4.3597,-4.3924,-4.4016,-4.4146,-4.4631,-4.4757,-4.4781,-4.4726,-4.4757,-4.4825,-4.4825,-4.5052,-4.5201,-4.5201,-4.5438,-4.5586,-4.5586,-4.5586,-4.5495,-4.5222,-4.5457,-4.5586,-4.5586,-4.5586,-4.5586,-4.5586,-4.5586,-4.5586,-4.5586,-4.5586,-4.5586,0.0,0.0,0.0,0.0,0.0,0.0,0.0,0.0,0.0,0.0,0.0,0.0,0.0,0.0,0.0,0.0,0.0,0.0,0.0,0.0,0.0,0.0,0.0,0.0,0.0,0.0,0.0,0.0,0.0,-4.4181,-4.4553,-4.4587,-4.4587,-4.4587,-4.4587,-4.4736,-4.4957,-4.4957,-4.495,-4.4909,-4.4602,-4.4457,-4.454,-4.5252,-4.5563,-4.5494,-4.4852,-4.4759,-4.5035,-4.472,-4.4587,-4.4587,-4.4587,-4.4587,-4.4587,-4.4587,-4.4587,-4.4587,-4.4587,-4.4327,-4.3997,-4.4018,-4.3502,-4.2752,-4.2449,-4.1813,-4.1136,-4.0764,-4.0392,-4.0171,-4.0449,-4.0546,-4.0577,-4.0891,-4.1639,-4.2262,-4.2262,-4.2714,-4.3142,-4.3142,-4.3321,-4.3548,-4.3726,-4.3893,-4.4016,-4.4065,-4.4364,-4.4527,-4.4318,-4.4474,-4.458,-4.458,-4.4776,-4.4872,-4.4872,-4.5011,-4.5118,-4.5118,-4.5118,-4.5033,-4.4872,-4.5033,-4.5201,-4.5362,-4.5513,-4.5513,-4.5362,-4.5513,-4.5513,-4.5362,-4.5532,-4.5586,0.0,0.0,0.0,0.0,0.0,0.0,0.0,0.0,0.0,0.0,0.0,0.0,0.0,0.0,0.0,0.0,0.0,0.0,0.0,0.0,0.0,0.0,0.0,0.0,0.0,0.0,0.0,0.0,0.0,-4.3707,-4.435,-4.4502,-4.4519,-4.4384,-4.4384,-4.4306,-4.4026,-4.4026,-4.3698,-4.316,-4.316,-4.3151,-4.325,-4.3893,-4.4333,-4.4587,-4.4587,-4.4587,-4.457,-4.4305,-4.4255,-4.4367,-4.3973,-4.3866,-4.3996,-4.3866,-4.3809,-4.3809,-4.3809,-4.3356,-4.2752,-4.2812,-4.2285,-4.1535,-4.0976,-4.0702,-4.052,-4.0019,-3.9901,-3.9901,-4.007,-4.007,-4.007,-4.007,-4.0814,-4.1534,-4.1621,-4.2121,-4.2519,-4.2519,-4.2976,-4.341,-4.3479,-4.3726,-4.3836,-4.3548,-4.4004,-4.428,-4.3974,-4.4194,-4.4419,-4.4419,-4.4474,-4.4501,-4.4501,-4.4553,-4.458,-4.458,-4.458,-4.4553,-4.4501,-4.4553,-4.4682,-4.4919,-4.5263,-4.5283,-4.5011,-4.5283,-4.5283,-4.503,-4.5362,-4.5495,0.0,0.0,0.0,0.0,0.0,0.0,0.0,0.0,0.0,0.0,0.0,0.0,0.0,0.0,0.0,0.0,0.0,0.0,0.0,0.0,0.0,0.0,0.0,0.0,0.0,0.0,0.0,0.0,-4.3047,-4.347,-4.3572,-4.4215,-4.4265,-4.3589,-4.3572,-4.3254,-4.2598,-4.2581,-4.253,-4.2428,-4.2428,-4.2443,-4.2439,-4.2557,-4.3318,-4.4587,-4.4587,-4.4587,-4.4519,-4.3172,-4.2946,-4.3377,-4.1377,-4.1014,-4.16,-4.088,-4.0626,-4.0626,-4.0626,-4.0506,-4.043,-4.0453,-3.9957,-3.9323,-3.9247,-3.8779,-3.8391,-3.8887,-3.9086,-3.9209,-3.9901,-4.007,-4.007,-4.007,-4.0204,-4.0466,-4.092,-4.149,-4.1937,-4.1937,-4.2382,-4.2939,-4.341,-4.3548,-4.3529,-4.3532,-4.3563,-4.3631,-4.3563,-4.3597,-4.3664,-4.3664,-4.3912,-4.4087,-4.4087,-4.4419,-4.458,-4.458,-4.458,-4.4447,-4.4087,-4.4401,-4.4474,-4.4146,-4.4535,-4.4707,-4.4676,-4.4707,-4.4707,-4.4657,-4.5011,-4.5011,-2.5512,0.0,0.0,0.0,0.0,0.0,0.0,0.0,0.0,0.0,0.0,0.0,0.0,0.0,0.0,0.0,0.0,0.0,0.0,0.0,0.0,0.0,0.0,0.0,0.0,0.0,0.0,0.0,-4.1982,-4.2354,-4.276,-4.3115,-4.3132,-4.2794,-4.2777,-4.2439,-4.1694,-4.1677,-4.1474,-4.1052,-4.1491,-4.1677,-4.1694,-4.21,-4.2658,-4.3301,-4.3301,-4.3538,-4.3859,-4.2735,-4.2484,-4.2655,-4.1205,-4.0603,-4.0485,-4.0112,-3.9975,-3.9975,-3.9975,-3.9686,-3.9251,-3.9345,-3.8829,-3.8164,-3.8264,-3.8062,-3.7879,-3.8189,-3.858,-3.8962,-3.9315,-3.9782,-4.007,-4.007,-4.007,-4.0154,-4.0417,-4.0874,-4.1402,-4.1707,-4.2302,-4.277,-4.3014,-4.3286,-4.3497,-4.3497,-4.3497,-4.3497,-4.3497,-4.3497,-4.3497,-4.3497,-4.3612,-4.3726,-4.3726,-4.3868,-4.3992,-4.3992,-4.3992,-4.3899,-4.3726,-4.3899,-4.3899,-4.3726,-4.4308,-4.4501,-4.4261,-4.4501,-4.4474,-4.4261,-4.4657,-4.4732,0.0,0.0,0.0,0.0,0.0,0.0,0.0,0.0,0.0,0.0,0.0,0.0,0.0,0.0,0.0,0.0,0.0,0.0,0.0,0.0,0.0,0.0,0.0,0.0,0.0,0.0,0.0,0.0,-4.1085,-4.1441,-4.1982,-4.2185,-4.2202,-4.2016,-4.2016,-4.166,-4.0933,-4.0916,-4.0629,-4.0087,-4.0646,-4.0916,-4.0933,-4.1474,-4.1728,-4.1745,-4.2134,-4.2608,-4.3081,-4.2142,-4.1854,-4.1879,-4.0549,-3.9774,-3.9386,-3.8978,-3.8855,-3.8855,-3.8855,-3.845,-3.788,-3.798,-3.7577,-3.7109,-3.7212,-3.7251,-3.7235,-3.7456,-3.7889,-3.8342,-3.858,-3.9209,-3.9782,-3.9782,-3.9952,-4.007,-4.007,-4.04,-4.0874,-4.1446,-4.1937,-4.2302,-4.244,-4.279,-4.3069,-4.3069,-4.3196,-4.325,-4.3105,-4.3321,-4.3444,-4.3286,-4.341,-4.3497,-4.3497,-4.3497,-4.3497,-4.3497,-4.3497,-4.3497,-4.3497,-4.3497,-4.3497,-4.3497,-4.4035,-4.4165,-4.3881,-4.4165,-4.4165,-4.3881,-4.428,-4.4279,0.0,0.0,0.0,0.0,0.0,0.0,0.0,0.0,0.0,0.0,0.0,0.0,0.0,0.0,0.0,0.0,0.0,0.0,0.0,0.0,0.0,0.0,0.0,0.0,0.0,0.0,0.0,0.0,-4.0798,-4.1221,-4.1271,-4.1914,-4.1982,-4.1288,-4.1271,-4.0899,-4.0138,-4.0138,-4.0121,-4.007,-4.0121,-4.0138,-4.0138,-4.0172,-4.0189,-4.0273,-4.1677,-4.2303,-4.2233,-4.0795,-4.0638,-4.0942,-3.7982,-3.7254,-3.7759,-3.6239,-3.5724,-3.5724,-3.5724,-3.5724,-3.5659,-3.5679,-3.5679,-3.5599,-3.5634,-3.5619,-3.5797,-3.6446,-3.6661,-3.6904,-3.7632,-3.843,-3.8962,-3.8962,-3.9558,-4.007,-4.007,-4.0121,-4.0286,-4.0827,-4.0949,-4.1178,-4.175,-4.1895,-4.1895,-4.1895,-4.2382,-4.2519,-4.1979,-4.2847,-4.3304,-4.2788,-4.3214,-4.3497,-4.3497,-4.3497,-4.3497,-4.3497,-4.3497,-4.3497,-4.3497,-4.3497,-4.3497,-4.3497,-4.3548,-4.3548,-4.3513,-4.3548,-4.3548,-4.3548,-4.3881,-4.3441,0.0,0.0,0.0,0.0,0.0,0.0,0.0,0.0,0.0,0.0,0.0,0.0,0.0,0.0,0.0,0.0,0.0,0.0,0.0,0.0,0.0,0.0,0.0,0.0,0.0,0.0,0.0,0.0,0.0,-4.0476,-4.0476,-4.073,-4.0747,-4.0493,-4.0476,-4.0358,-4.007,-4.007,-4.007,-4.007,-4.007,-4.007,-4.007,-4.007,-4.007,-4.0104,-4.0646,-4.1153,-4.1542,-4.0488,-3.9943,-3.9593,-3.8505,-3.7381,-3.6305,-3.6243,-3.5894,-3.5504,-3.5504,-3.5504,-3.5504,-3.5504,-3.5504,-3.5504,-3.5504,-3.5504,-3.5554,-3.5846,-3.6212,-3.6676,-3.698,-3.7616,-3.8302,-3.8799,-3.9489,-4.007,-4.007,-4.007,-4.0171,-4.0319,-4.0655,-4.0995,-4.1258,-4.1552,-4.181,-4.181,-4.1979,-4.2021,-4.1853,-4.2144,-4.2364,-4.2162,-4.2637,-4.2976,-4.2976,-4.3286,-4.3497,-4.3497,-4.3497,-4.3497,-4.3497,-4.3497,-4.3497,-4.3497,-4.3497,-4.3497,-4.3497,-4.3497,-4.3497,-4.3479,-4.3096,-4.2709,-2.3846,0.0,0.0,0.0,0.0,0.0,0.0,0.0,0.0,0.0,0.0,0.0,0.0,0.0,0.0,0.0,0.0,0.0,0.0,0.0,0.0,0.0,0.0,0.0,0.0,0.0,0.0,0.0,0.0,0.0,-4.007,-4.007,-4.007,-4.007,-4.007,-4.007,-4.007,-4.007,-4.007,-4.007,-4.007,-4.007,-4.007,-4.007,-4.007,-4.007,-4.007,-4.0358,-4.0781,-4.029,-3.9615,-3.8893,-3.8649,-3.744,-3.5894,-3.6165,-3.5958,-3.5504,-3.5504,-3.5504,-3.5504,-3.5504,-3.5504,-3.5504,-3.5504,-3.5504,-3.5504,-3.5504,-3.5831,-3.6228,-3.6228,-3.6814,-3.7557,-3.8358,-3.8924,-3.9401,-3.9662,-3.9901,-4.007,-4.007,-4.0368,-4.0625,-4.0707,-4.1001,-4.1241,-4.1241,-4.1358,-4.1446,-4.1241,-4.1725,-4.1937,-4.1534,-4.2364,-4.2902,-4.2711,-4.3178,-4.3497,-4.3497,-4.3497,-4.3497,-4.3497,-4.3497,-4.3497,-4.3497,-4.3497,-4.3497,-4.3497,-4.3497,-4.3497,-4.3461,-4.2671,-4.2011,0.0,0.0,0.0,0.0,0.0,0.0,0.0,0.0,0.0,0.0,0.0,0.0,0.0,0.0,0.0,0.0,0.0,0.0,0.0,0.0,0.0,0.0,0.0,0.0,0.0,0.0,0.0,0.0,-4.007,-4.007,-4.007,-4.007,-4.007,-4.007,-4.007,-4.007,-4.007,-4.007,-4.007,-4.007,-4.007,-4.007,-4.007,-4.007,-4.007,-4.007,-4.007,-4.007,-4.007,-4.007,-3.961,-3.8854,-3.8092,-3.7338,-3.6492,-3.5782,-3.5504,-3.5504,-3.5504,-3.5504,-3.5504,-3.5504,-3.5504,-3.5504,-3.5504,-3.5504,-3.5504,-3.5504,-3.5504,-3.5504,-3.5504,-3.6054,-3.6798,-3.7573,-3.7822,-3.8035,-3.8745,-3.9489,-4.007,-4.007,-4.007,-4.007,-4.007,-4.007,-4.007,-4.007,-4.0528,-4.0703,-4.0171,-4.1613,-4.2203,-4.1041,-4.2447,-4.325,-4.2732,-4.3178,-4.3497,-4.3497,-4.3497,-4.3497,-4.3497,-4.3497,-4.3497,-4.3497,-4.3461,-4.3442,-4.3442,-4.3442,-4.3442,-4.3424,-4.2616,-4.1387,-2.3348,0.0,0.0,0.0,0.0,0.0,0.0,0.0,0.0,0.0,0.0,0.0,0.0,0.0,0.0,0.0,0.0,0.0,0.0,0.0,0.0,0.0,0.0,0.0,0.0,0.0,0.0,0.0,-4.007,-4.007,-4.007,-4.007,-4.007,-4.007,-4.007,-4.007,-4.007,-4.007,-4.007,-4.007,-4.007,-4.007,-4.007,-4.007,-4.007,-4.007,-4.007,-4.007,-4.007,-4.007,-3.961,-3.8854,-3.869,-3.7774,-3.6554,-3.6384,-3.5943,-3.5504,-3.5504,-3.5504,-3.5504,-3.5504,-3.5504,-3.5504,-3.5504,-3.5504,-3.5504,-3.5504,-3.5504,-3.5504,-3.5504,-3.6054,-3.6676,-3.6843,-3.7774,-3.8525,-3.8206,-3.9172,-4.007,-4.007,-4.007,-4.007,-4.007,-4.007,-4.007,-4.007,-4.0204,-4.0286,-4.0121,-4.0844,-4.1268,-4.0949,-4.2103,-4.2864,-4.2711,-4.3178,-4.3497,-4.3497,-4.3497,-4.3497,-4.3497,-4.3497,-4.3497,-4.3497,-4.2928,-4.2635,-4.2635,-4.2635,-4.2635,-4.2598,-4.1203,-4.001,0.0,0.0,0.0,0.0,0.0,0.0,0.0,-2.8127,0.0,0.0,0.0,0.0,0.0,0.0,0.0,0.0,0.0,0.0,0.0,0.0,0.0,0.0,0.0,0.0,0.0,-3.961,-4.007,-4.007,-4.007,-4.007,-4.007,-4.007,-4.007,-4.007,-4.007,-4.007,-4.007,-4.007,-4.007,-4.007,-4.007,-4.007,-4.007,-4.007,-4.007,-4.007,-4.007,-4.007,-4.007,-4.007,-3.961,-3.8908,-3.8908,-3.8173,-3.7084,-3.7084,-3.6646,-3.5943,-3.5943,-3.5782,-3.5504,-3.5504,-3.5504,-3.5504,-3.5504,-3.5504,-3.5504,-3.5504,-3.5504,-3.5504,-3.5504,-3.5846,-3.6165,-3.6165,-3.7084,-3.7889,-3.7806,-3.8761,-3.961,-3.961,-3.985,-4.007,-4.007,-4.007,-4.007,-4.007,-4.007,-4.007,-4.007,-4.0577,-4.081,-4.0577,-4.1639,-4.2342,-4.2342,-4.2619,-4.2977,-4.3479,-4.3286,-4.325,-4.3479,-4.3497,-4.3497,-4.3497,-4.2708,-4.1974,-4.1295,-4.1644,-4.1625,-4.1277,-4.0341,-3.946,0.0,0.0,0.0,0.0,0.0,0.0,-2.8641,-2.8603,0.0,0.0,0.0,0.0,0.0,0.0,0.0,0.0,0.0,0.0,0.0,0.0,0.0,0.0,0.0,0.0,-3.8908,-3.961,-4.007,-4.007,-4.007,-4.007,-4.007,-4.007,-4.0121,-4.0204,-4.0204,-4.0204,-4.0204,-4.0204,-4.0171,-4.007,-4.007,-4.007,-4.007,-4.007,-4.007,-4.007,-4.007,-4.007,-4.007,-4.007,-3.9662,-3.9016,-3.8908,-3.8525,-3.7921,-3.7806,-3.7279,-3.6615,-3.6615,-3.6117,-3.5504,-3.5504,-3.5504,-3.5504,-3.5504,-3.5504,-3.5504,-3.5504,-3.5504,-3.5504,-3.5504,-3.5504,-3.5504,-3.5619,-3.6117,-3.6783,-3.7632,-3.8358,-3.8908,-3.8908,-3.9542,-4.007,-4.007,-4.007,-4.007,-4.007,-4.007,-4.007,-4.007,-4.0577,-4.0703,-4.0254,-4.1168,-4.181,-4.181,-4.181,-4.2226,-4.3232,-4.2846,-4.2846,-4.341,-4.3318,-4.3316,-4.3369,-4.2436,-4.1192,-3.9671,-4.0547,-4.0561,-3.9772,-3.9772,-3.9386,0.0,0.0,0.0,0.0,0.0,0.0,0.0,-2.6926,0.0,0.0,0.0,0.0,0.0,0.0,0.0,0.0,0.0,0.0,0.0,0.0,0.0,0.0,0.0,0.0,-3.8908,-3.961,-4.007,-4.007,-4.007,-4.007,-4.007,-4.007,-4.0286,-4.0733,-4.0733,-4.0733,-4.0733,-4.0733,-4.0546,-4.007,-4.007,-4.007,-4.007,-4.007,-4.007,-4.007,-4.007,-4.007,-4.007,-4.007,-4.002,-3.9782,-3.9139,-3.8799,-3.8635,-3.8035,-3.7279,-3.6615,-3.6615,-3.6117,-3.5504,-3.5504,-3.5504,-3.5504,-3.5504,-3.5504,-3.5504,-3.5504,-3.5504,-3.5504,-3.5504,-3.5504,-3.5668,-3.6212,-3.6492,-3.6783,-3.7632,-3.8358,-3.8908,-3.8908,-3.9542,-4.007,-4.007,-4.007,-4.007,-4.007,-4.007,-4.007,-4.007,-4.0577,-4.0856,-4.075,-4.1358,-4.181,-4.181,-4.181,-4.1877,-4.2103,-4.2021,-4.2244,-4.2826,-4.2194,-4.205,-4.2525,-4.0666,-3.9259,-3.8282,-3.9538,-3.9717,-3.8927,-3.8927,-3.8854,0.0,0.0,0.0,-3.0129,0.0,0.0,0.0,0.0,0.0,0.0,0.0,0.0,0.0,0.0,0.0,0.0,0.0,0.0,0.0,0.0,0.0,0.0,0.0,0.0,-3.8955,-3.9631,-4.007,-4.007,-4.007,-4.007,-4.007,-4.007,-4.0204,-4.0497,-4.0497,-4.0607,-4.0903,-4.0903,-4.078,-4.0497,-4.0497,-4.0368,-4.007,-4.007,-4.007,-4.007,-4.007,-4.007,-4.007,-4.007,-4.007,-4.007,-3.9662,-3.9489,-3.9437,-3.9102,-3.8469,-3.7758,-3.7758,-3.7263,-3.66,-3.618,-3.6054,-3.6006,-3.5619,-3.5504,-3.5504,-3.5504,-3.5504,-3.5504,-3.5504,-3.5504,-3.5619,-3.5943,-3.6631,-3.7203,-3.7203,-3.8414,-3.9368,-3.8962,-3.9542,-4.007,-4.007,-4.007,-4.007,-4.007,-4.007,-4.007,-4.007,-4.0319,-4.0497,-4.0497,-4.0767,-4.1059,-4.1313,-4.1105,-4.1196,-4.175,-4.1534,-4.1445,-4.1672,-4.1495,-4.1307,-4.1111,-3.9553,-3.8474,-3.7893,-3.8564,-3.87,-3.83,-3.8596,-3.8707,0.0,0.0,0.0,0.0,0.0,-3.0697,0.0,0.0,0.0,0.0,0.0,0.0,0.0,0.0,0.0,0.0,0.0,0.0,0.0,0.0,0.0,0.0,0.0,0.0,0.0,-3.8954,-3.9462,-4.0037,-3.9681,-3.9631,-4.0054,-4.007,-4.0171,-4.0237,-4.0237,-4.0449,-4.0903,-4.1041,-4.0995,-4.0903,-4.1041,-4.0844,-4.0417,-4.0286,-4.0237,-4.0254,-4.0171,-4.007,-4.0121,-4.0204,-4.0204,-4.007,-4.007,-4.007,-4.007,-4.007,-3.961,-3.8908,-3.8908,-3.8414,-3.769,-3.7024,-3.6843,-3.6737,-3.6133,-3.5846,-3.5733,-3.5733,-3.5619,-3.5504,-3.5504,-3.5504,-3.5569,-3.5668,-3.6538,-3.7235,-3.6919,-3.8173,-3.9262,-3.8799,-3.9209,-3.9731,-4.007,-3.9952,-3.9901,-4.007,-3.985,-3.9731,-4.007,-3.9952,-3.9952,-4.007,-4.007,-4.0303,-4.0703,-4.0319,-4.0414,-4.1209,-4.0787,-4.0485,-4.0305,-4.0653,-4.0366,-3.9418,-3.847,-3.7887,-3.7614,-3.7614,-3.772,-3.7893,-3.8465,-3.8707,0.0,0.0,0.0,0.0,-3.3487,0.0,0.0,0.0,0.0,0.0,0.0,0.0,0.0,0.0,0.0,0.0,0.0,0.0,0.0,0.0,0.0,0.0,0.0,0.0,0.0,-3.6485,-3.7229,-3.9884,-3.8261,-3.8007,-3.9969,-4.007,-4.0336,-4.078,-4.0827,-4.0827,-4.0903,-4.1446,-4.1446,-4.0903,-4.1446,-4.1682,-4.1595,-4.1041,-4.0827,-4.078,-4.0286,-4.007,-4.0121,-4.0625,-4.0528,-4.007,-4.007,-4.007,-4.007,-4.007,-3.961,-3.8908,-3.8908,-3.8414,-3.7748,-3.769,-3.7632,-3.7648,-3.7589,-3.704,-3.6508,-3.6508,-3.6006,-3.5504,-3.5504,-3.5504,-3.5668,-3.6337,-3.6117,-3.6085,-3.7413,-3.7322,-3.7188,-3.7806,-3.7978,-3.8502,-3.985,-3.9489,-3.9262,-4.0003,-3.8941,-3.8557,-3.9901,-3.9489,-3.9315,-4.002,-4.007,-4.0121,-4.0221,-4.0121,-3.99,-3.9367,-3.9236,-3.9149,-3.8938,-3.88,-3.8353,-3.752,-3.6926,-3.6626,-3.6563,-3.6563,-3.702,-3.7893,-3.8465,-3.8707,0.0,0.0,0.0,0.0,0.0,0.0,0.0,0.0,-2.9485,0.0,0.0,0.0,0.0,0.0,0.0,0.0,0.0,0.0,0.0,0.0,0.0,0.0,0.0,0.0,0.0,0.0,0.0,0.0,-3.7087,-3.7149,-3.8717,-3.9225,-3.9763,-4.04,-4.0449,-4.075,-4.1402,-4.1664,-4.1853,-4.1937,-4.2203,-4.2121,-4.181,-4.1534,-4.1402,-4.1402,-4.078,-4.0577,-4.0577,-4.0497,-4.0286,-4.007,-4.007,-4.007,-4.007,-4.007,-3.9901,-3.961,-3.961,-3.9385,-3.9065,-3.8596,-3.8149,-3.7822,-3.7822,-3.7573,-3.7203,-3.6722,-3.6384,-3.6054,-3.5619,-3.5504,-3.5554,-3.5894,-3.6054,-3.618,-3.643,-3.6874,-3.7279,-3.7144,-3.7456,-3.7994,-3.8652,-3.8486,-3.8374,-3.8707,-3.8206,-3.8035,-3.8668,-3.8486,-3.8541,-3.9315,-3.9368,-3.9443,-3.9478,-3.9445,-3.914,-3.8413,-3.7956,-3.7797,-3.801,-3.7197,-3.6934,-3.719,-3.6374,-3.6097,-3.6374,-3.6374,-3.6603,-3.7041,-3.7843,-3.8234,-3.5431,0.0,0.0,0.0,0.0,0.0,0.0,0.0,0.0,0.0,0.0,0.0,0.0,0.0,0.0,0.0,0.0,0.0,0.0,0.0,0.0,0.0,0.0,0.0,0.0,0.0,0.0,0.0,0.0,-3.5822,-3.7787,-3.8413,-3.9123,-4.0054,-4.0254,-4.072,-4.1534,-4.1895,-4.2262,-4.2711,-4.2864,-4.2675,-4.2266,-4.2103,-4.2038,-4.2021,-4.1402,-4.1133,-4.1133,-4.072,-4.0466,-4.0336,-4.0336,-4.0254,-4.007,-4.007,-4.007,-4.007,-4.007,-4.007,-4.002,-3.9437,-3.887,-3.843,-3.843,-3.8262,-3.7962,-3.7365,-3.7068,-3.6737,-3.6006,-3.5782,-3.5718,-3.5569,-3.5894,-3.6165,-3.5619,-3.6368,-3.6995,-3.6399,-3.6753,-3.7175,-3.7175,-3.7354,-3.7573,-3.7764,-3.7413,-3.7294,-3.7764,-3.7472,-3.7502,-3.8215,-3.8161,-3.8064,-3.812,-3.8288,-3.8151,-3.7635,-3.6874,-3.6616,-3.699,-3.61,-3.5968,-3.6764,-3.6011,-3.5783,-3.6182,-3.6182,-3.6182,-3.6224,-3.723,-3.772,0.0,0.0,0.0,-3.3287,0.0,0.0,0.0,0.0,-3.2012,0.0,0.0,0.0,0.0,0.0,0.0,0.0,0.0,0.0,0.0,0.0,0.0,0.0,0.0,0.0,0.0,0.0,0.0,0.0,0.0,0.0,-3.7669,-3.7922,-3.8599,-4.002,-4.0625,-4.0903,-4.0949,-4.208,-4.2655,-4.2711,-4.3214,-4.3444,-4.3444,-4.2902,-4.2655,-4.2655,-4.2021,-4.175,-4.175,-4.175,-4.1402,-4.0856,-4.0856,-4.0577,-4.007,-4.007,-4.007,-4.007,-4.007,-4.007,-4.0087,-4.007,-4.007,-4.002,-4.002,-3.9489,-3.8854,-3.8854,-3.8302,-3.7573,-3.6798,-3.6538,-3.6384,-3.5668,-3.5504,-3.5504,-3.5504,-3.5569,-3.5569,-3.5569,-3.5569,-3.5554,-3.5554,-3.618,-3.6904,-3.769,-3.6554,-3.6085,-3.7589,-3.6562,-3.5962,-3.675,-3.6307,-3.5889,-3.5927,-3.6509,-3.6854,-3.6857,-3.6079,-3.5656,-3.5656,-3.5639,-3.5622,-3.5667,-3.5622,-3.5622,-3.5622,-3.5622,-3.5622,-3.5667,-3.6706,-3.721,0.0,0.0,-3.6986,-3.4295,0.0,0.0,0.0,0.0,0.0,0.0,0.0,0.0,0.0,0.0,0.0,0.0,0.0,0.0,0.0,0.0,0.0,0.0,0.0,0.0,0.0,0.0,0.0,0.0,-3.2372,0.0,0.0,-3.7077,-3.8345,-3.9326,-4.0031,-4.0528,-4.0903,-4.1707,-4.2302,-4.2711,-4.325,-4.3497,-4.3479,-4.3286,-4.3214,-4.3214,-4.2637,-4.2162,-4.175,-4.1358,-4.0874,-4.0368,-4.0368,-4.0237,-4.007,-4.007,-4.007,-4.007,-4.007,-4.007,-4.007,-4.007,-4.007,-4.007,-4.007,-3.9901,-3.9594,-3.9032,-3.8745,-3.8358,-3.7616,-3.6964,-3.6554,-3.6275,-3.5831,-3.5504,-3.5504,-3.5504,-3.5504,-3.5504,-3.5504,-3.5504,-3.5504,-3.5733,-3.5943,-3.6258,-3.5468,-3.5055,-3.5569,-3.4805,-3.4499,-3.5347,-3.52,-3.5078,-3.5091,-3.523,-3.5364,-3.534,-3.5513,-3.5622,-3.5622,-3.5622,-3.5622,-3.5622,-3.5622,-3.5622,-3.5622,-3.5622,-3.5622,-3.5622,-3.5968,-3.6316,-3.5906,-3.6658,0.0,-3.5175,-3.4713,0.0,-3.2086,0.0,0.0,0.0,0.0,0.0,0.0,0.0,0.0,0.0,0.0,0.0,0.0,0.0,0.0,0.0,0.0,0.0,0.0,0.0,-3.0845,-3.1738,0.0,0.0,0.0,0.0,-3.7973,-3.8954,-3.9912,-4.0528,-4.0903,-4.1707,-4.2302,-4.2711,-4.325,-4.3497,-4.3497,-4.3497,-4.3497,-4.3479,-4.3124,-4.2752,-4.2346,-4.1793,-4.1331,-4.1001,-4.0546,-4.0368,-4.0368,-4.0154,-4.007,-4.007,-4.007,-4.007,-4.007,-4.007,-4.007,-4.007,-4.007,-4.007,-4.0003,-3.9489,-3.9315,-3.9156,-3.8374,-3.7616,-3.6964,-3.6676,-3.6054,-3.5504,-3.5504,-3.5504,-3.5504,-3.5504,-3.5504,-3.5429,-3.519,-3.513,-3.513,-3.513,-3.4756,-3.4382,-3.4158,-3.3559,-3.3307,-3.3885,-3.3713,-3.3661,-3.3909,-3.3906,-3.3987,-3.4235,-3.4894,-3.5253,-3.5253,-3.547,-3.5622,-3.5622,-3.5622,-3.5622,-3.5622,-3.5622,-3.5622,-3.5622,-3.5622,-3.5783]},{"header":{"parameterUnit":"m.s-1","parameterCategory":1,"la1":30.6,"la2":29.2853,"lo1":-89.7004,"lo2":-87.6739,"dy":0.0162,"dx":0.0183,"nx":112,"ny":82,"refTime":"2025-08-27T00:00:00:Z","depth":0,"parameterNumber":3,"parameterNumberName":"V-component_of_WINDS"},"data":[0.0,0.0,0.0,0.0,0.0,0.0,0.0,0.0,0.0,0.0,0.0,0.0,0.0,0.0,0.0,0.0,0.0,0.0,0.0,0.0,0.0,0.0,0.0,0.0,0.0,0.0,0.0,0.0,0.0,0.0,0.0,0.0,0.0,0.0,0.0,0.0,0.0,0.0,0.0,0.0,0.0,0.0,0.0,0.0,0.0,0.0,0.0,0.0,0.0,0.0,0.0,0.0,0.0,0.0,0.0,0.0,0.0,0.0,0.0,0.0,0.0,0.0,0.0,0.0,0.0,0.0,0.0,0.0,0.0,0.0,0.0,0.0,0.0,0.0,0.0,0.0,0.0,0.0,0.0,0.0,0.0,0.0,0.0,0.0,0.0,0.0,0.0,0.0,0.0,0.0,0.0,-1.8322,-0.9711,-0.316,-0.2298,0.6374,1.0045,0.5845,0.0,0.0,0.0,0.0,0.0,0.0,0.0,0.0,0.0,0.0,0.0,0.0,0.0,0.0,0.0,0.0,0.0,0.0,0.0,0.0,0.0,0.0,0.0,0.0,0.0,0.0,0.0,0.0,0.0,0.0,0.0,0.0,0.0,0.0,0.0,0.0,0.0,0.0,0.0,0.0,0.0,0.0,0.0,0.0,0.0,0.0,0.0,0.0,0.0,0.0,0.0,0.0,0.0,0.0,0.0,0.0,0.0,0.0,0.0,0.0,0.0,0.0,0.0,0.0,0.0,0.0,0.0,0.0,0.0,0.0,0.0,0.0,0.0,0.0,0.0,0.0,0.0,0.0,0.0,0.0,0.0,0.0,0.0,0.0,0.0,0.0,0.0,0.0,0.0,0.0,0.0,0.0,0.0,0.0,0.0,0.0,0.0,0.0,0.0,0.0,0.0,0.0,0.0,0.0,-1.2686,-2.1414,-2.0719,-1.439,-0.1472,0.7092,0.8848,0.1994,0.0,0.0,0.0,0.0,0.0,0.0,0.0,0.0,0.0,0.0,0.0,0.0,0.0,0.0,0.0,0.0,0.0,0.0,0.0,0.0,0.0,0.0,0.0,0.0,0.0,0.0,0.0,0.0,0.0,0.0,0.0,0.0,0.0,0.0,0.0,0.0,0.0,0.0,0.0,0.0,0.0,0.0,0.0,0.0,0.0,0.0,0.0,0.0,0.0,0.0,0.0,0.0,0.0,0.0,0.0,0.0,0.0,0.0,0.0,0.0,0.0,0.0,0.0,0.0,0.0,0.0,0.0,0.0,0.0,0.0,0.0,0.0,0.0,0.0,0.0,0.0,0.0,0.0,0.0,0.0,0.0,0.0,0.0,0.0,0.0,0.0,0.0,0.0,0.0,0.0,0.0,0.0,0.0,0.0,0.0,0.0,0.0,0.0,0.0,0.0,0.0,0.0,0.0,-1.6824,-1.9251,-2.2172,-2.2867,-1.8514,-0.7233,0.0982,0.3903,0.0,-0.1821,0.0,0.0,0.0,0.0,0.0,0.0,0.0,0.0,0.0,0.0,0.0,0.0,0.0,0.0,0.0,0.0,0.0,0.0,0.0,0.0,0.0,0.0,0.0,0.0,0.0,0.0,0.0,0.0,0.0,0.0,0.0,0.0,0.0,0.0,0.0,0.0,0.0,0.0,0.0,0.0,0.0,0.0,0.0,0.0,0.0,0.0,0.0,0.0,0.0,0.0,0.0,0.0,0.0,0.0,0.0,0.0,0.0,0.0,0.0,0.0,0.0,0.0,0.0,0.0,0.0,0.0,0.0,0.0,0.0,0.0,0.0,0.0,0.0,0.0,0.0,0.0,0.0,0.0,0.0,0.0,0.0,0.0,0.0,0.0,0.0,0.0,0.0,0.0,0.0,0.0,0.0,0.0,0.0,0.0,0.0,0.0,0.0,0.0,0.0,0.0,0.0,0.0,-2.1926,-2.4664,-2.3223,-2.3695,-2.1471,-1.49,-0.6248,-0.1957,-0.3668,-0.5363,0.0,0.0,0.0,0.0,0.0,0.0,0.0,0.0,0.0,0.0,0.0,0.0,0.0,0.0,0.0,0.0,0.0,0.0,0.0,0.0,0.0,0.0,0.0,0.0,0.0,0.0,0.0,0.0,0.0,0.0,0.0,0.0,0.0,0.0,0.0,0.0,0.0,0.0,0.0,0.0,0.0,0.0,0.0,0.0,0.0,0.0,0.0,0.0,0.0,0.0,0.0,0.0,0.0,0.0,0.0,0.0,0.0,0.0,0.0,0.0,0.0,0.0,0.0,0.0,0.0,0.0,0.0,0.0,0.0,0.0,0.0,0.0,0.0,0.0,0.0,0.0,0.0,0.0,0.0,0.0,0.0,0.0,0.0,0.0,0.0,0.0,0.0,0.0,0.0,0.0,0.0,0.0,0.0,0.0,0.0,0.0,0.0,0.0,0.0,0.0,0.0,0.0,-2.2109,-2.4347,-2.5933,-2.6722,-2.5792,-2.2558,-1.215,-0.7559,-1.1834,-0.8152,0.0,0.0,0.0,0.0,0.0,0.0,0.0,0.0,0.0,0.0,0.0,0.0,0.0,0.0,0.0,0.0,0.0,0.0,0.0,0.0,0.0,0.0,0.0,0.0,0.0,0.0,0.0,0.0,0.0,0.0,0.0,0.0,0.0,0.0,0.0,0.0,0.0,0.0,0.0,0.0,0.0,0.0,0.0,0.0,0.0,0.0,0.0,0.0,0.0,0.0,0.0,0.0,0.0,0.0,0.0,0.0,0.0,0.0,0.0,0.0,0.0,0.0,0.0,0.0,0.0,0.0,0.0,0.0,0.0,0.0,0.0,0.0,0.0,0.0,0.0,0.0,0.0,0.0,0.0,0.0,0.0,0.0,0.0,0.0,0.0,0.0,0.0,0.0,0.0,0.0,0.0,0.0,0.0,0.0,0.0,0.0,0.0,0.0,0.0,0.0,0.0,0.0,-2.4447,-2.6536,0.0,-2.9296,-2.9796,-2.7355,-1.6348,-0.9959,-1.0842,0.0,0.0,0.0,0.0,0.0,0.0,0.0,0.0,0.0,0.0,0.0,0.0,0.0,0.0,0.0,0.0,0.0,0.0,0.0,0.0,0.0,0.0,0.0,0.0,0.0,0.0,0.0,0.0,0.0,0.0,0.0,0.0,0.0,0.0,0.0,0.0,0.0,0.0,0.0,0.0,0.0,0.0,0.0,0.0,0.0,0.0,0.0,0.0,0.0,0.0,0.0,0.0,0.0,0.0,0.0,0.0,0.0,0.0,0.0,0.0,0.0,0.0,0.0,0.0,0.0,0.0,0.0,0.0,0.0,0.0,0.0,0.0,0.0,0.0,0.0,0.0,0.0,0.0,0.0,0.0,0.0,0.0,0.0,0.0,0.0,0.0,0.0,0.0,0.0,0.0,0.0,0.0,0.0,0.0,0.0,0.0,0.0,0.0,0.0,0.0,0.0,0.0,-2.2851,-2.6263,-2.8535,0.0,-3.1904,-3.3083,-3.1247,-2.047,-1.4046,-1.4633,0.0,0.0,0.0,0.0,0.0,0.0,0.0,0.0,0.0,0.0,0.0,0.0,0.0,0.0,0.0,0.0,0.0,0.0,0.0,0.0,0.0,0.0,0.0,0.0,0.0,0.0,0.0,0.0,0.0,0.0,0.0,0.0,0.0,0.0,0.0,0.0,0.0,0.0,0.0,0.0,0.0,0.0,0.0,0.0,0.0,0.0,0.0,0.0,0.0,0.0,0.0,0.0,0.0,0.0,0.0,0.0,0.0,0.0,0.0,0.0,0.0,0.0,0.0,0.0,0.0,0.0,0.0,0.0,0.0,0.0,0.0,0.0,0.0,0.0,0.0,0.0,0.0,0.0,0.0,0.0,0.0,0.0,0.0,0.0,0.0,0.0,0.0,0.0,0.0,0.0,0.0,0.0,0.0,0.0,0.0,0.0,0.0,0.0,0.0,0.0,0.0,0.0,-2.4008,-2.7203,-2.9964,-3.2183,-3.4564,-3.5527,-3.4375,-2.4707,-2.0593,0.0,0.0,0.0,0.0,0.0,0.0,0.0,0.0,0.0,0.0,0.0,0.0,0.0,0.0,0.0,0.0,0.0,0.0,0.0,0.0,0.0,0.0,0.0,0.0,0.0,0.0,0.0,0.0,0.0,0.0,0.0,0.0,0.0,0.0,0.0,0.0,0.0,0.0,0.0,0.0,0.0,0.0,0.0,0.0,0.0,0.0,0.0,0.0,0.0,0.0,0.0,0.0,0.0,0.0,0.0,0.0,0.0,0.0,0.0,0.0,0.0,0.0,0.0,0.0,0.0,0.0,0.0,0.0,0.0,0.0,0.0,0.0,0.0,0.0,0.0,0.0,0.0,0.0,0.0,0.0,0.0,0.0,0.0,0.0,0.0,0.0,0.0,0.0,0.0,0.0,0.0,0.0,0.0,0.0,0.0,0.0,0.0,0.0,0.0,0.0,0.0,0.0,0.0,-2.4757,-2.7899,-3.0594,-3.2866,-3.4289,-3.4402,-3.2742,-2.8459,-2.479,-2.2284,0.0,0.0,0.0,0.0,0.0,0.0,0.0,0.0,0.0,0.0,0.0,0.0,0.0,0.0,0.0,0.0,0.0,0.0,0.0,0.0,0.0,0.0,0.0,0.0,0.0,0.0,0.0,0.0,0.0,0.0,0.0,0.0,0.0,0.0,0.0,0.0,0.0,0.0,0.0,0.0,0.0,0.0,0.0,0.0,0.0,0.0,0.0,0.0,0.0,0.0,0.0,0.0,0.0,0.0,0.0,0.0,0.0,0.0,0.0,0.0,0.0,0.0,0.0,0.0,0.0,0.0,0.0,0.0,0.0,0.0,0.0,0.0,0.0,0.0,0.0,0.0,0.0,0.0,0.0,0.0,0.0,0.0,0.0,0.0,0.0,0.0,0.0,0.0,0.0,0.0,0.0,0.0,0.0,0.0,0.0,0.0,0.0,0.0,0.0,0.0,0.0,0.0,-2.5088,-2.7874,-3.024,-3.2269,-3.3262,-3.3066,-3.1336,-2.919,-2.6073,-2.1722,0.0,0.0,0.0,0.0,0.0,0.0,0.0,0.0,0.0,0.0,0.0,0.0,0.0,0.0,0.0,0.0,0.0,0.0,0.0,0.0,0.0,0.0,0.0,0.0,0.0,0.0,0.0,0.0,0.0,0.0,0.0,0.0,0.0,0.0,0.0,0.0,0.0,0.0,0.0,0.0,0.0,0.0,0.0,0.0,0.0,0.0,0.0,0.0,0.0,0.0,0.0,0.0,0.0,0.0,0.0,0.0,0.0,0.0,0.0,0.0,0.0,0.0,0.0,0.0,0.0,0.0,0.0,0.0,0.0,0.0,0.0,0.0,0.0,0.0,0.0,0.0,0.0,0.0,0.0,0.0,0.0,0.0,0.0,0.0,0.0,0.0,0.0,0.0,0.0,0.0,0.0,0.0,0.0,0.0,0.0,0.0,0.0,0.0,0.0,0.0,0.0,0.0,-2.5201,-2.7589,-2.9484,-3.0988,-3.1865,-3.1675,-3.0057,-2.7774,-2.5219,-2.2344,0.0,0.0,0.0,0.0,0.0,0.0,0.0,0.0,0.0,0.0,0.0,0.0,0.0,0.0,0.0,0.0,0.0,0.0,0.0,0.0,0.0,0.0,0.0,0.0,0.0,0.0,0.0,0.0,0.0,0.0,0.0,0.0,0.0,0.0,0.0,0.0,0.0,0.0,0.0,0.0,0.0,0.0,0.0,0.0,0.0,0.0,0.0,0.0,0.0,0.0,0.0,0.0,0.0,0.0,0.0,0.0,0.0,0.0,0.0,0.0,2.006,0.0,0.0,0.0,0.0,0.0,0.0,0.0,0.0,0.0,0.0,0.0,0.0,0.0,0.0,0.0,0.0,0.0,0.0,0.0,0.0,0.0,0.0,0.0,0.0,0.0,0.0,0.0,0.0,0.0,0.0,0.0,0.0,0.0,0.0,0.0,0.0,0.0,0.0,0.0,0.0,0.0,-2.6178,-2.8832,-3.0728,-3.1483,-3.1744,-3.0948,-2.8714,-2.6962,-2.4362,-2.0679,0.0,0.0,0.0,0.0,0.0,0.0,0.0,0.0,0.0,0.0,0.0,0.0,0.0,0.0,0.0,0.0,0.0,0.0,0.0,0.0,0.0,0.0,0.0,0.0,0.0,0.0,0.0,0.0,0.0,0.0,0.0,0.0,0.0,0.0,0.0,0.0,0.0,0.0,0.0,0.0,0.0,0.0,0.0,0.0,0.0,0.0,0.0,0.0,0.0,0.0,0.0,0.0,0.0,0.0,0.0,0.0,0.0,0.0,0.0,0.0,0.0,2.006,0.0,0.0,0.0,0.0,0.0,0.0,0.0,0.0,0.0,0.0,0.0,0.0,0.0,0.0,0.0,0.0,0.0,0.0,0.0,0.0,0.0,0.0,0.0,0.0,0.0,0.0,0.0,0.0,0.0,0.0,0.0,0.0,0.0,0.0,0.0,0.0,0.0,0.0,0.0,0.0,-2.6475,-2.8817,-3.0237,-3.0249,-3.0259,-2.9392,-2.7274,-2.6129,-2.4132,-2.0971,-1.9267,0.0,0.0,0.0,0.0,0.0,0.0,0.0,0.0,0.0,0.0,0.0,0.0,0.0,0.0,0.0,0.0,0.0,0.0,0.0,0.0,0.0,0.0,0.0,0.0,0.0,0.0,0.0,0.0,0.0,0.0,0.0,0.0,0.0,0.0,0.0,0.0,0.0,0.0,0.0,0.0,0.0,0.0,0.0,0.0,0.0,0.0,0.0,0.0,0.0,0.0,0.0,0.0,0.0,2.5216,2.5996,2.5265,2.6823,2.757,2.7493,2.6714,2.5269,2.2811,0.0,0.0,0.0,0.0,0.0,0.0,0.0,0.0,0.0,0.0,0.0,0.0,0.0,0.0,0.0,0.0,0.0,0.0,0.0,0.0,0.0,0.0,0.0,0.0,0.0,-1.767,-1.827,0.0,0.0,0.0,0.0,0.0,0.0,0.0,0.0,0.0,0.0,0.0,0.0,-2.675,-2.8489,-2.9351,-2.8851,-2.864,-2.7817,-2.6123,-2.5363,-2.3965,-2.1556,-2.0021,-1.8139,0.0,0.0,0.0,0.0,0.0,0.0,0.0,0.0,0.0,0.0,0.0,0.0,0.0,0.0,0.0,0.0,0.0,0.0,0.0,0.0,0.0,0.0,0.0,0.0,0.0,0.0,0.0,0.0,0.0,0.0,0.0,0.0,2.3226,2.3496,0.0,0.0,0.0,0.0,0.0,0.0,0.0,0.0,0.0,0.0,0.0,0.0,0.0,1.9063,2.1182,2.3977,2.5085,2.4589,2.8417,3.0171,3.0151,3.1971,3.2424,3.1721,3.0512,0.0,2.3334,1.9715,0.0,0.0,0.0,0.0,0.0,0.0,0.0,0.0,0.0,0.0,0.0,0.0,0.0,0.0,0.0,0.0,0.0,0.0,0.0,0.0,0.0,0.0,-1.3205,-1.5682,-1.8939,-2.3471,0.0,-3.0084,-2.8024,-2.7612,-2.6281,0.0,0.0,0.0,0.0,0.0,0.0,0.0,-2.7801,-2.8957,-2.9576,-2.9255,-2.834,-2.7198,-2.5917,-2.4812,-2.3035,-2.0384,-1.8907,-1.7399,-1.5796,-1.4031,0.0,0.0,0.0,0.0,0.0,0.0,0.0,0.0,0.0,0.0,0.0,0.0,0.0,0.0,0.0,0.0,0.0,0.0,0.0,0.0,0.0,0.0,0.0,0.0,0.0,0.0,0.0,0.0,0.0,2.1741,2.3544,2.1989,2.2086,2.105,0.0,0.0,0.0,0.0,0.0,0.0,0.0,0.0,0.0,2.2284,2.2119,2.2762,2.4538,2.6142,2.7117,2.7348,2.8199,2.8621,2.8597,2.8435,2.7903,2.7023,2.6474,2.4705,2.2015,1.9287,1.5162,1.0003,0.0,0.0,0.0,0.0,-0.4024,-0.2706,-0.3508,-0.3,0.0,-0.4479,0.0,0.0,0.0,0.0,0.0,0.0,0.0,0.0,0.0,0.0,0.0,-2.088,-2.5176,-3.0162,-3.3329,-3.2714,-3.1219,0.0,-2.9765,-2.8869,-2.6224,0.0,0.0,0.0,0.0,0.0,-2.8115,-2.8496,-2.8497,-2.7995,-2.723,-2.6283,-2.5102,-2.4234,-2.3079,-2.1619,-1.9251,-1.7618,-1.6958,-1.5505,-1.4434,0.0,0.0,0.0,0.0,0.0,0.0,0.0,0.0,0.0,0.0,0.0,0.0,0.0,0.0,0.0,0.0,0.0,0.0,0.0,0.0,0.0,0.0,0.0,0.0,0.0,0.0,0.0,0.0,2.2224,2.3612,2.1276,2.2869,2.2489,0.0,0.0,0.0,0.0,0.0,0.0,1.9068,1.8689,1.9806,2.2849,2.3689,2.462,2.5641,2.6066,2.6459,2.6977,2.5914,2.5539,2.5432,2.4509,2.3448,2.2379,2.2136,2.1298,1.9978,1.8253,1.5688,1.2153,0.6306,0.2759,0.0655,-0.2553,-0.2316,-0.0836,-0.2846,-0.2536,-0.1705,-0.4499,0.0,-1.1272,-1.466,0.0,0.0,0.0,0.0,-2.1777,-1.9734,-2.3733,-2.7969,-2.6593,-3.0563,-3.4541,-3.4172,-3.4137,-3.3715,0.0,-3.2313,-3.1844,-2.8613,0.0,0.0,0.0,0.0,-2.7922,-2.8695,-2.8489,-2.8,-2.7247,-2.6219,-2.5241,-2.4261,-2.3142,-2.2338,-2.1946,-1.9183,-1.7381,-1.6957,-1.5711,-1.4368,-1.2965,0.0,0.0,0.0,0.0,0.0,0.0,0.0,0.0,0.0,0.0,0.0,0.0,0.0,0.0,0.0,0.0,0.0,0.0,0.0,0.0,0.0,0.0,0.0,0.0,0.0,0.0,0.0,0.0,0.0,2.3818,2.5467,0.0,0.0,0.0,0.0,1.7029,1.7766,1.8906,2.0516,2.0228,2.1064,2.3544,2.2677,2.22,2.2218,2.2236,2.181,2.0833,2.1775,2.22,2.2294,2.3303,2.2881,2.1311,2.022,1.8824,1.7432,1.8218,1.5913,1.1573,0.8524,0.5318,0.2393,0.1989,0.1912,0.1737,0.0187,-0.0378,-0.0945,-0.4685,-0.9429,-1.41,-1.6511,-1.9545,0.0,0.0,-2.4064,-2.4949,-2.2947,-2.6078,-2.9841,-3.0389,-3.2604,-3.4402,-3.3616,-3.4064,-3.4357,0.0,-3.3103,-3.2455,-3.1356,0.0,-2.966,-2.9829,-2.9431,-2.9357,-3.0115,-2.9681,-2.8969,-2.8028,-2.5775,-2.4097,-2.3576,-2.1315,-1.9902,-1.9864,-1.7784,-1.5877,-1.4363,-1.329,-1.2572,-1.2184,-1.1048,0.0,0.0,0.0,0.0,0.0,0.0,0.0,0.0,0.0,0.0,0.0,0.0,0.0,0.0,0.0,0.0,0.0,0.0,0.0,0.0,0.0,0.0,0.0,0.0,0.0,0.0,0.0,0.0,2.3256,2.4854,0.0,1.9393,1.9544,1.9343,1.8129,1.7937,1.8279,1.9066,1.8372,1.8339,1.9161,1.9009,1.8944,1.8944,1.8944,1.8758,1.839,1.7767,1.7462,1.7455,1.6751,1.6104,1.5503,1.5153,1.4624,1.387,1.248,1.1838,1.1576,0.9824,0.7314,0.4626,0.3688,0.2823,0.1658,-0.1568,-0.2654,-0.3619,-0.9755,-1.3601,-1.6246,-1.9317,-2.1113,-2.2403,-2.3785,-2.4374,-2.5011,-2.6822,-2.851,-3.028,-3.216,-3.3641,-3.4595,-3.455,-3.4431,-3.4145,-3.3704,-3.328,-3.2594,-3.1286,-3.1244,-3.1004,-2.9887,-2.9905,-2.988,-2.9493,-2.863,-2.745,-2.5903,-2.4175,-2.2726,-2.1741,-2.0002,-1.8882,-1.858,-1.6591,-1.5074,-1.4208,-1.2949,-1.1648,-1.0375,-0.9923,-0.9533,0.0,0.0,0.0,0.0,0.0,0.0,0.0,0.0,0.0,0.0,0.0,0.0,0.0,0.0,0.0,0.0,0.0,0.0,0.0,0.0,0.0,0.0,0.0,0.0,0.0,0.0,2.4554,2.3157,2.4728,2.4194,1.9716,2.0313,2.0492,1.9289,1.846,1.796,1.7789,1.6731,1.6053,1.5555,1.5823,1.5909,1.5909,1.5909,1.5909,1.5909,1.4826,1.4344,1.4344,1.3189,1.2149,1.1132,1.1132,1.0815,1.0022,0.7712,0.8026,0.9805,0.8499,0.691,0.5122,0.3817,0.2512,0.0703,-0.331,-0.5511,-0.7454,-1.2409,-1.5602,-1.8161,-2.0824,-2.2065,-2.3033,-2.5128,-2.5576,-2.608,-2.9052,-3.0287,-3.115,-3.2855,-3.3786,-3.4266,-3.4275,-3.3912,-3.3339,-3.2672,-3.2808,-3.2719,-3.1751,-3.174,-3.161,-3.0767,-3.0427,-3.0109,-2.9694,-2.8611,-2.7148,-2.5334,-2.3966,-2.2454,-2.0729,-1.9348,-1.824,-1.7507,-1.5802,-1.4525,-1.368,-1.2802,-1.1463,-0.9513,-0.9121,-0.84,-0.7435,0.0,0.0,0.0,0.0,0.0,0.0,0.0,0.0,0.0,0.0,0.0,0.0,0.0,0.0,0.0,0.0,0.0,0.0,0.0,0.0,0.0,0.0,0.0,2.2135,2.372,2.4467,2.3604,2.5239,2.485,2.0866,2.2204,2.2456,2.0457,1.9254,1.811,1.6741,1.5731,1.4506,1.3166,1.3176,1.3181,1.3181,1.3181,1.3176,1.3068,1.3058,1.3053,1.3053,1.3048,1.1397,0.8434,0.8434,0.7618,0.6142,0.4579,0.4852,0.5972,0.4549,0.4016,0.3815,0.2514,0.1105,-0.0701,-0.4614,-0.8594,-1.195,-1.1945,-1.5341,-1.9745,-2.0811,-2.2428,-2.4477,-2.6697,-2.774,-2.8435,-2.9558,-3.1187,-3.2563,-3.2602,-3.3093,-3.3355,-3.2684,-3.254,-3.2109,-3.0735,-3.1751,-3.2823,-3.2787,-3.1818,-3.1444,-3.2601,-3.1098,0.0,-3.0757,-2.9679,-2.8196,-2.6507,-2.5058,-2.3225,-2.0643,-1.9209,-1.7898,-1.6513,-1.5329,-1.4072,-1.2572,-1.272,-1.1799,-0.9679,-0.8462,-0.7311,-0.6223,0.0,0.0,0.0,0.0,0.0,0.0,0.0,0.0,0.0,0.0,0.0,0.0,0.0,0.0,0.0,0.0,0.0,0.0,0.0,0.0,0.0,0.0,2.2281,2.3837,2.453,2.4692,2.4427,2.4374,2.3123,2.0371,2.0181,1.9665,1.821,1.7015,1.5692,1.4327,1.3029,1.1722,1.042,1.0432,1.0497,1.0497,1.0497,0.9913,0.8638,0.8649,0.8033,0.6896,0.6932,0.6438,0.5645,0.5645,0.5265,0.4642,0.3291,0.2928,0.3197,0.3742,0.3416,0.2514,0.2113,-0.01,-0.3209,-0.5322,-0.8594,-1.2037,-1.2956,-1.6067,-1.9761,-2.0899,-2.2183,-2.3941,-2.6887,-2.7536,-2.7913,-3.0724,-3.1454,-3.1723,-3.2419,-3.2749,-3.2939,-3.3256,-3.2876,-3.2412,-3.2013,-3.1479,-3.0925,-3.0451,-3.0336,-3.0331,-3.0359,-3.0128,0.0,-2.9204,-2.8358,-2.7116,-2.5217,-2.3717,-2.1949,-1.9668,-1.8389,-1.6884,-1.4932,-1.3564,-1.2349,-1.1272,-1.0565,-0.9482,-0.7999,-0.764,-0.7163,0.0,0.0,0.0,0.0,0.0,0.0,0.0,0.0,0.0,0.0,0.0,0.0,0.0,0.0,0.0,0.0,0.0,0.0,0.0,0.0,0.0,0.0,2.1492,2.3062,2.4602,2.4766,2.4837,2.4809,2.4045,2.2656,2.0326,1.9905,1.9194,1.7529,1.6299,1.5252,1.4386,1.2613,1.1159,1.0266,0.9676,0.9381,0.9381,0.9381,0.891,0.7968,0.7196,0.6355,0.5426,0.4775,0.4177,0.0,0.3587,0.3445,0.3188,0.1189,0.0744,0.0,0.0,0.0,0.0,0.0,-0.2809,-0.502,-0.6329,-0.9099,-1.2037,-1.2775,-1.5624,-1.8864,-1.9579,-2.1033,-2.2795,-2.5228,-2.5992,-2.6925,-3.0333,-3.0834,-3.074,-3.2234,-3.2318,-3.2145,-3.2219,-3.216,-3.1889,-3.1282,-3.0763,0.0,-2.9245,-2.9428,-2.9648,-2.9435,-2.9371,-2.9053,-2.8146,-2.7455,-2.6332,-2.4614,-2.3345,-2.1771,-1.9629,-1.8148,0.0,0.0,0.0,-1.2076,-1.1341,-0.9897,0.0,0.0,0.0,0.0,0.0,0.0,0.0,0.0,-0.6632,-0.6742,0.0,0.0,0.0,0.0,0.0,0.0,0.0,0.0,0.0,0.0,0.0,0.0,0.0,0.0,0.0,0.0,2.2687,2.3546,2.4501,2.4571,2.4581,2.4711,2.391,2.2603,2.0691,2.0565,1.9821,1.7813,1.6667,1.6041,1.5955,0.0,0.0,0.0,0.0,0.9432,0.9432,0.9432,0.9312,0.9192,0.7644,0.6813,0.6341,0.496,0.3435,0.1947,0.1915,0.19,0.1451,-0.1098,-0.1507,-0.0631,-0.1732,-0.2213,-0.2514,-0.5024,-0.6029,-0.6229,-0.7537,0.0,0.0,-1.1658,-1.4333,-1.749,-1.749,-1.9214,-2.1364,-2.2456,-2.3834,-2.5655,-2.8635,-2.9297,-2.9711,-3.1547,-3.1605,-3.1029,-3.0329,-3.0703,-3.0852,-2.9534,-2.9783,-2.9841,-2.8729,-2.8969,-2.9275,-2.9196,-2.867,-2.8046,-2.7375,-2.6582,-2.5591,-2.4266,0.0,0.0,-1.9879,-1.815,-1.652,-1.4854,-1.3393,-1.2472,-1.198,-1.0121,-0.91,-0.9159,-0.7573,-0.6445,-0.5827,-0.5844,-0.5861,-0.594,-0.7149,-0.7476,0.0,0.0,0.0,0.0,0.0,0.0,0.0,0.0,0.0,0.0,0.0,0.0,0.0,0.0,0.0,2.1135,2.2646,2.3722,2.3979,2.3362,2.3174,2.386,2.2224,2.0996,2.0868,1.9328,1.8135,1.7936,1.7679,1.7245,1.6216,1.464,0.0,1.1996,1.0498,0.9737,0.9737,0.9737,0.9125,0.7782,0.0,0.0,0.3347,0.302,0.1949,0.0459,0.0451,-0.0224,-0.1339,-0.1978,-0.3314,-0.4961,-0.3949,-0.3615,-0.3817,-0.5425,-0.6029,-0.6229,-0.7537,-0.9019,-1.0386,-1.0386,-1.2967,-1.6108,-1.6108,-1.7887,0.0,-2.1166,-2.2418,-2.3811,-2.5565,-2.7001,-2.8209,-2.8893,-2.927,-2.9442,-2.9317,-2.938,-2.9414,-2.9101,-2.8745,-2.8386,-2.8148,-2.8451,-2.8596,-2.802,-2.7327,-2.6864,-2.6692,-2.4898,-2.3592,-2.3251,-2.1918,-2.0298,-1.8476,-1.7609,-1.6158,-1.375,-1.2422,-1.1514,-1.121,-1.0269,-0.9405,-0.8757,-0.7583,-0.669,-0.5986,-0.6112,-0.623,-0.6335,-0.6504,-0.6547,0.0,0.0,0.0,0.0,0.0,0.0,0.0,0.0,0.0,0.0,0.0,2.0021,2.1037,0.0,2.1168,2.2288,2.2685,2.284,2.3037,2.2093,2.1854,2.2991,2.1683,2.0524,2.0006,1.9126,1.8436,1.8023,1.8183,1.8053,1.7641,1.6281,1.4891,1.3372,1.1807,1.066,0.9822,0.9822,0.9451,0.859,0.7793,0.6554,0.4851,0.3294,0.209,0.1161,0.034,-0.0448,-0.123,-0.2635,-0.4849,-0.7401,-0.6484,-0.6073,-0.6124,-0.6731,-0.7033,-0.7132,-0.7736,-0.8924,-0.9998,-0.9998,-1.1731,-1.3933,-1.4607,-1.6108,-1.7872,-1.9058,-2.0685,-2.2573,-2.4282,-2.5993,-2.7508,-2.8438,-2.9053,-2.9247,-2.8495,-2.8684,-2.8876,-2.8427,-2.8438,-2.8388,-2.8037,-2.7764,-2.7371,-2.6963,-2.5978,-2.519,-2.4799,-2.3364,-2.2177,-2.1856,-2.0685,-1.9388,-1.7996,-1.626,-1.4509,-1.2699,-1.2004,-1.1368,-1.0729,-0.9987,-0.9155,-0.83,-0.7338,-0.667,-0.6366,-0.6444,-0.6519,-0.6586,-0.6593,-0.6593,0.0,0.0,0.0,0.0,0.0,0.0,0.0,0.0,2.2103,2.3152,2.2644,2.2305,2.3281,2.2768,2.2502,2.3255,2.2621,2.208,2.2099,2.1034,2.0687,2.176,2.1072,2.0245,1.9239,1.9236,1.8942,1.811,1.841,1.8698,1.8991,1.745,1.602,1.5074,1.2928,1.1257,1.0301,0.994,0.9822,0.9822,0.8465,0.7728,0.7352,0.4639,0.3052,0.2345,0.0454,-0.056,-0.1119,-0.3633,-0.6221,-0.8686,-0.8448,-0.8245,-0.8079,-0.8052,-0.8038,-0.8038,-0.8038,-0.8726,-0.9608,-0.9608,-1.0485,-1.175,-1.3102,-1.4327,-1.5644,-1.6922,-1.9039,-2.1337,-2.2994,-2.4859,-2.664,-2.784,-2.8438,-2.8383,-2.7275,-2.7471,-2.7709,-2.7018,-2.7459,-2.7759,-2.7216,-2.6388,-2.578,-2.5896,-2.4713,-2.3526,-2.2807,-2.1858,-2.1009,-2.0386,-1.941,-1.8325,-1.7173,-1.4649,-1.2799,-1.2022,-1.2011,-1.1742,-1.0925,-1.0132,-0.9349,-0.8414,-0.7388,-0.6817,-0.6702,-0.6476,-0.6492,-0.6749,-0.6379,-0.6344,2.5447,2.5465,2.5982,2.7281,2.6778,2.6626,0.0,0.0,2.6818,2.7914,2.6917,2.5739,2.5369,2.4343,2.3255,2.219,2.251,2.2479,2.1335,2.0326,1.9721,1.9926,1.9502,1.9363,1.9545,1.8745,1.8225,1.8417,1.8711,1.9005,1.9299,1.6492,1.5429,1.6727,1.2449,1.066,1.1976,1.0539,0.9822,0.9822,0.9576,0.8833,0.7352,0.6776,0.504,0.2345,-0.068,-0.2683,-0.4136,-0.5797,-0.7284,-0.8706,-0.8672,-0.8489,-0.8228,-0.8092,-0.8038,-0.8038,-0.8038,-0.8137,-0.8233,-0.8233,-0.9118,-1.0485,-1.175,-1.3006,-1.4351,-1.5622,-1.7755,-1.9761,-2.0,-2.2169,-2.4341,-2.4523,-2.467,-2.482,-2.4625,-2.4322,-2.4062,-2.4013,-2.4074,-2.4123,-2.3994,-2.3544,-2.3541,-2.4849,-2.3603,-2.2336,-2.1894,-2.0512,-1.9552,-1.9431,-1.793,-1.6131,-1.4299,-1.3055,-1.2398,-1.2251,-1.2505,-1.2645,-1.257,-1.1829,-1.0856,-0.9741,-0.8693,-0.7737,-0.6702,-0.5718,-0.586,-0.682,-0.4844,-0.4489,2.9258,2.9643,0.0,0.0,3.0845,3.0902,3.0301,2.9614,2.9168,2.9416,2.7885,2.6405,2.6192,2.4888,2.3687,0.0,2.3116,2.2673,2.1587,2.028,1.9045,1.8341,1.8023,1.8072,1.8373,1.8007,1.7976,1.8457,1.7796,1.747,1.8021,1.579,1.448,1.4237,1.2213,1.102,1.0778,1.0183,0.9329,0.8343,0.8343,0.8097,0.7352,0.5351,0.3137,0.1028,-0.0338,-0.2237,-0.4583,-0.514,-0.6785,-0.8835,-0.8747,-0.8581,-0.8377,-0.8228,-0.8116,-0.8038,-0.8038,-0.8038,-0.8038,-0.8038,-0.8333,-0.9118,-1.0386,-1.1653,-1.3006,-1.4364,-1.6532,-1.8588,-1.9314,-2.1484,-2.3483,-2.395,-2.4551,-2.4882,-2.4312,-2.3514,-2.2875,-2.2584,-2.204,-2.1645,-2.1645,-2.0974,-2.0535,-2.093,-2.1199,-2.1162,-2.0742,-1.9172,-1.7798,-1.6982,-1.5908,-1.4895,-1.4037,-1.3251,-1.2826,-1.2826,-1.2946,-1.2452,-1.1157,-1.0781,-0.9846,-0.8154,-0.7743,-0.7289,-0.6956,-0.6489,-0.6521,-0.6967,-0.6042,-0.5507,3.1671,0.0,0.0,3.3297,3.401,3.3895,3.1034,3.0472,3.0351,2.9499,2.7799,2.6389,2.6058,2.485,2.3835,2.3875,2.3416,2.253,2.1298,2.0047,1.868,1.7461,1.7201,1.7268,1.7555,1.7662,1.7929,1.845,1.7067,1.6498,1.6944,1.5069,1.3651,1.2933,1.1976,1.1137,1.0418,1.0061,0.8958,0.736,0.736,0.7116,0.6621,0.3809,0.1847,0.056,0.0224,-0.1679,-0.447,-0.447,-0.6255,-0.8927,-0.8818,-0.8655,-0.8469,-0.8367,-0.8208,-0.8038,-0.8038,-0.8038,-0.8038,-0.8038,-0.8038,-0.8237,-0.9608,-1.0681,-1.175,-1.3392,-1.5488,-1.7468,-1.8672,-2.072,-2.2582,-2.2752,-2.3492,-2.3945,-2.2943,-2.1928,-2.1086,-2.0829,-2.0033,-1.9472,-1.9472,-1.8882,-1.8259,-1.7995,-1.8958,-1.9502,-1.886,-1.7668,-1.6418,-1.5203,-1.4597,-1.4229,-1.3932,-1.3464,-1.3213,-1.3213,-1.3287,-1.2419,-1.0518,-1.05,-0.9619,-0.7497,-0.7415,-0.7295,-0.7139,-0.6786,-0.6786,-0.7051,-0.6425,-0.5908,0.0,0.0,3.4693,3.5348,3.5316,3.4682,3.2904,3.1847,3.0618,2.856,2.7279,2.6141,2.5041,2.425,2.3554,2.2635,2.2739,2.2235,1.9987,1.9453,1.876,1.7745,1.7321,1.7268,0.0,1.7856,1.8163,1.847,1.7239,1.6686,1.6956,1.3994,1.2933,1.4485,1.1495,1.066,1.2093,1.0539,0.8958,0.736,0.736,0.6505,0.4911,0.3216,0.2423,0.2012,0.0672,-0.1679,-0.447,-0.447,-0.6255,-0.894,-0.8933,-0.8747,-0.8482,-0.8476,-0.8292,-0.8038,-0.8038,-0.8038,-0.8038,-0.8038,-0.8038,-0.8237,-0.9608,-0.9998,-1.0578,-1.3199,-1.4804,-1.6115,-1.739,-1.9579,-2.1105,-1.9926,-2.0271,-2.0524,-1.9264,-1.8452,-1.7954,-1.7946,-1.7655,-1.7415,-1.7415,-1.7334,-1.7334,-1.7317,-1.739,-1.7116,-1.6226,-1.6051,-1.5679,-1.4694,-1.4624,-1.4258,-1.3272,-1.3206,-1.3213,-1.3213,-1.3474,-1.3035,-1.1852,-1.2085,-1.1193,-0.8882,-0.8794,-0.8273,-0.7139,-0.5983,-0.5983,-0.7051,-0.4727,-0.4422,0.0,0.0,3.6222,3.6339,3.6651,3.6181,3.3253,3.2393,3.1596,2.9639,2.7517,2.5898,2.5562,2.431,2.3041,2.2161,2.2568,2.2235,1.9884,1.9351,1.8789,1.7488,1.7208,0.0,0.0,0.0,0.0,1.8457,1.6049,1.4892,1.5408,1.2333,1.0899,1.1378,1.0301,1.0061,1.066,1.0061,0.8958,0.736,0.6261,0.4255,0.1672,0.2244,0.1847,0.0672,0.0224,-0.1679,-0.447,-0.447,-0.6255,-0.894,-0.894,-0.875,-0.8482,-0.8482,-0.8296,-0.8038,-0.8038,-0.8038,-0.8038,-0.8038,-0.8038,-0.8038,-0.8531,-0.9316,-1.0386,-1.2134,-1.3482,-1.5,-1.7109,-1.8319,-1.9039,-1.9405,-1.9669,-1.969,-1.9001,-1.7962,-1.7048,-1.6738,-1.5851,-1.5151,-1.5151,-1.5151,-1.5151,-1.5151,-1.616,-1.6555,-1.5614,-1.5234,-1.4717,-1.3738,-1.3839,-1.3803,-1.3494,-1.3681,-1.345,-1.2671,-1.3445,-1.2734,-0.999,-1.0742,-1.0091,-0.7753,-0.7665,-0.7489,-0.7139,-0.6694,-0.6834,-0.7292,-0.6469,-0.645,3.5579,3.6521,3.6946,3.7062,3.7239,3.6538,3.3323,3.2593,3.1893,2.9453,2.7105,2.5475,2.4974,2.3577,2.2256,2.1699,2.2164,2.1836,1.9854,1.9448,1.8906,1.7813,1.7535,0.0,0.0,0.0,0.0,1.8464,1.6168,1.4667,1.4584,1.2097,1.0418,0.9822,0.9822,0.9822,0.9822,0.9822,0.8711,0.6505,0.4794,0.2673,0.0,0.1061,0.1043,0.0,0.0,-0.1344,-0.3688,-0.4247,-0.5919,-0.8156,-0.8716,-0.8784,-0.8557,-0.8503,-0.833,-0.8113,-0.8058,-0.8038,-0.8038,-0.8038,-0.8038,-0.8038,-0.8038,-0.8627,-0.9509,-1.0877,-1.2139,-1.3674,-1.5778,-1.7016,-1.7777,-1.8126,-1.8495,-1.8617,-1.7933,-1.7004,-1.6152,-1.5748,-1.494,-1.4208,-1.4108,-1.4088,-1.4088,-1.4088,-1.5047,-1.5544,-1.4916,-1.4581,-1.4219,-1.3601,-1.3694,-1.3801,-1.3801,-1.3975,-1.3737,-1.3027,-1.3294,-1.226,-0.9579,-0.9836,-0.9056,-0.7139,-0.7139,-0.7166,-0.7221,-0.7221,-0.7302,-0.7451,-0.7451,-0.7533,3.687,3.6951,3.6987,3.7641,3.7144,3.5869,3.3199,3.2579,3.1487,2.7964,2.6144,2.4759,0.0,0.0,2.1221,2.1174,2.1572,2.1311,1.9793,1.9642,1.9386,0.0,0.0,0.0,0.0,0.0,0.0,1.851,0.0,1.5997,1.4826,1.3172,1.1495,0.994,0.9822,0.9822,0.9822,0.9822,0.8102,0.4916,0.3322,0.1711,0.0,0.0,0.0,0.0,0.0,-0.0784,-0.2347,-0.3799,-0.525,-0.6813,-0.8266,-0.8732,-0.8693,-0.8547,-0.8397,-0.8248,-0.8102,-0.8045,-0.8038,-0.8038,-0.8038,-0.8038,-0.8038,-0.8038,-0.8233,-0.9608,-1.0877,-1.2139,-1.3488,-1.5589,-1.7124,-1.5913,-1.6567,-1.7124,-1.592,-1.5504,-1.5311,-1.5037,-1.4736,-1.4436,-1.4155,-1.4095,-1.4088,-1.3997,-1.3997,-1.3997,-1.3997,-1.4088,-1.4082,-1.3913,-1.3997,-1.3997,-1.3913,-1.3913,-1.3913,-1.3828,-1.2851,-1.1724,-1.0524,-0.9492,-0.8368,-0.7238,-0.7153,-0.7227,-0.7383,-0.7383,-0.7461,-0.7611,-0.7611,-0.7685,3.8284,3.8419,3.8231,3.7882,3.6644,3.5011,3.3059,3.1779,3.0217,2.7517,2.5419,2.3646,0.0,0.0,0.0,2.0337,2.1338,0.0,1.9728,1.974,0.0,0.0,0.0,1.8404,1.8484,1.8684,0.0,0.0,1.7363,1.646,1.6362,1.376,1.1976,1.1615,1.0418,0.9822,0.9822,0.9822,0.8102,0.4916,0.4426,0.2791,0.0,0.0,0.0,0.0,0.0,-0.0784,-0.2235,-0.2571,-0.4355,-0.6702,-0.7146,-0.785,-0.8706,-0.8665,-0.8489,-0.8265,-0.8225,-0.8136,-0.8038,-0.8038,-0.8038,-0.8038,-0.8038,-0.8038,-0.8233,-0.9608,-1.0194,-1.0779,-1.2042,-1.2904,-1.329,-1.3011,-1.3872,-1.4734,-1.4453,-1.4922,-1.5378,-1.5297,-1.487,-1.4496,-1.4422,-1.4229,-1.3822,-1.2857,-1.2766,-1.2766,-1.2766,-1.3555,-1.3392,-1.1649,-1.2248,-1.2419,-1.1563,-1.1477,-1.1133,-1.0274,-1.0697,-1.0524,-0.941,-0.9061,-0.8777,-0.8637,-0.7757,-0.7387,-0.7543,-0.7543,-0.7614,-0.7756,-0.7756,-0.7838,3.9276,3.8963,3.8302,3.7921,3.6199,3.4185,3.2331,3.0623,2.8664,2.5983,2.3844,0.0,0.0,0.0,0.0,0.0,0.0,0.0,1.9618,1.9425,1.9248,0.0,1.8871,0.0,1.8871,1.9025,1.9118,0.0,1.8288,1.7524,1.7079,1.4594,1.2933,1.2213,1.066,0.9822,0.9822,0.9822,0.8102,0.4916,0.4916,0.317,0.0,0.0,0.0,0.0,0.0,-0.0448,-0.1231,-0.19,-0.3239,-0.4912,-0.6142,-0.7108,-0.7919,-0.8514,-0.8604,-0.8445,-0.8316,-0.8214,-0.813,-0.8062,-0.8038,-0.8038,-0.8038,-0.8038,-0.8137,-0.892,-0.9509,-1.0194,-1.0877,-1.1458,-1.1945,-1.1945,-1.2431,-1.3006,-1.3006,-1.3481,-1.3826,-1.3707,-1.3724,-1.3711,-1.3711,-1.3477,-1.3294,-1.3118,-1.2248,-1.1552,-1.1552,-1.2169,-1.2083,-1.0783,-1.1209,-1.1295,-1.0611,-1.0611,-1.0351,-0.9666,-0.9749,-0.9878,-0.9883,-0.9363,-0.9182,-0.9271,-0.8643,-0.8091,-0.7692,-0.7692,-0.777,-0.7913,-0.7913,-0.7957,3.9631,3.8707,3.7632,3.7499,3.5649,3.326,3.1128,2.9157,2.6964,2.3898,0.0,2.0059,1.8335,1.8857,1.9069,1.7662,0.0,1.9622,1.9426,1.8999,1.8867,1.9239,1.9339,1.9366,1.9366,1.9366,1.9366,1.9366,1.9366,1.8765,1.7443,1.5553,1.3765,1.1976,1.0539,0.9822,0.9822,0.9822,0.8102,0.4916,0.4916,0.3196,0.0,0.0,0.0,0.0,0.0,0.0,-0.0112,-0.1343,-0.2013,-0.2458,-0.5137,-0.6364,-0.68,-0.8019,-0.8507,-0.8672,-0.8394,-0.8286,-0.8245,-0.8089,-0.8038,-0.8038,-0.8038,-0.8038,-0.8038,-0.8038,-0.8825,-0.9706,-0.9706,-1.0583,-1.1361,-1.1361,-1.1556,-1.1658,-1.1658,-1.175,-1.1793,-1.1587,-1.2048,-1.246,-1.2426,-1.229,-1.2375,-1.3307,-1.1655,-1.0351,-1.0178,-1.0438,-1.0524,-1.0178,-1.0265,-1.0351,-1.0178,-1.0178,-1.0178,-1.0178,-0.9231,-0.9319,-1.0756,-0.9696,-0.9167,-0.9461,-0.9372,-0.8812,-0.7841,-0.7841,-0.7909,-0.8038,-0.8038,-0.8038,3.8342,3.7499,3.6645,3.5856,3.4234,3.2121,2.9314,2.7256,0.0,0.0,0.0,1.8609,1.6674,1.7064,0.0,1.7346,0.0,0.0,0.0,0.0,1.9606,0.0,0.0,0.0,0.0,0.0,0.0,0.0,0.0,1.9249,1.9004,1.6144,1.3292,1.0301,0.994,0.9822,0.9822,0.9822,0.8102,0.4916,0.4916,0.3178,0.0,0.0,0.0,0.0,0.0,0.0,0.0,-0.0224,-0.1119,-0.2235,-0.2793,-0.4467,-0.67,-0.7011,-0.7713,-0.8686,-0.8506,-0.837,-0.8245,-0.8089,-0.8038,-0.8038,-0.8038,-0.8038,-0.8038,-0.8038,-0.8137,-0.8333,-0.8333,-0.8528,-0.8627,-0.8627,-0.9509,-1.0288,-1.0288,-1.117,-1.1935,-1.1798,-1.1762,-1.1615,-1.1527,-1.1304,-1.074,-0.9956,-0.9497,-0.8798,-0.7837,-0.9396,-0.9831,-0.7921,-0.8623,-0.8798,-0.7749,-0.7749,-0.7749,-0.7749,-0.7489,-0.7997,-0.9413,-0.8355,-0.8321,-0.9473,-0.853,-0.8039,-0.7997,-0.7997,-0.8014,-0.8038,-0.8038,-0.8038,3.7978,3.7203,3.6384,3.5461,3.3653,3.1348,2.8074,0.0,0.0,0.0,0.0,1.7026,1.4806,0.0,0.0,0.0,0.0,0.0,0.0,0.0,0.0,0.0,0.0,0.0,0.0,0.0,0.0,0.0,0.0,1.9366,1.9366,1.6385,1.3526,1.114,1.0179,0.9822,0.9822,0.9822,0.8593,0.6139,0.5284,0.3675,0.1218,0.0357,0.0,0.0,0.0,0.0,0.0,0.0,-0.0448,-0.1119,-0.1901,-0.3128,-0.4467,-0.525,-0.6443,-0.7583,-0.7381,-0.7802,-0.8343,-0.8113,-0.8038,-0.8038,-0.8038,-0.8038,-0.8038,-0.8038,-0.8038,-0.8038,-0.8038,-0.8038,-0.8038,-0.8038,-0.8531,-0.892,-0.892,-0.941,-0.9899,-0.9899,-1.0224,-1.0441,-1.035,-1.0163,-0.9999,-1.0083,-0.8914,-0.815,-0.8139,-0.85,-0.8356,-0.7228,-0.7577,-0.7753,-0.7139,-0.7139,-0.7139,-0.7139,-0.7217,-0.7862,-0.9287,-0.8846,-0.9021,-0.9761,-0.9186,-0.8648,-0.8038,-0.8038,-0.8038,-0.8038,-0.8038,-0.8038,3.7216,3.6507,3.5743,3.4604,3.2897,3.051,2.6848,2.4074,0.0,0.0,1.7131,1.5889,1.3642,0.0,0.0,0.0,0.0,0.0,0.0,0.0,0.0,0.0,0.0,0.0,0.0,0.0,0.0,0.0,0.0,0.0,1.8409,1.5671,1.3407,1.1736,1.0422,0.9822,0.9822,0.9822,0.8958,0.736,0.6016,0.4426,0.246,0.1078,0.0354,0.0,0.0,0.0,0.0,0.0,0.0,-0.0112,-0.1231,-0.1901,-0.2347,-0.3576,-0.4916,-0.6224,-0.5903,-0.6569,-0.7482,-0.7217,-0.7534,-0.8038,-0.8038,-0.8038,-0.8038,-0.8038,-0.8038,-0.8038,-0.8038,-0.8038,-0.8038,-0.8038,-0.8038,-0.8038,-0.8038,-0.8038,-0.8038,-0.8038,-0.8623,-0.9192,-0.9156,-0.9033,-0.9295,-1.0177,-0.8678,-0.7781,-0.8679,-0.7814,-0.719,-0.719,-0.716,-0.7139,-0.7139,-0.7139,-0.7139,-0.7139,-0.7285,-0.789,-0.9056,-0.9238,-0.9421,-0.9604,-0.9608,-0.9019,-0.8038,-0.8038,-0.8038,-0.8038,-0.8038,-0.8038,3.4787,3.4283,3.3794,3.2006,3.1036,2.9418,2.5134,0.0,0.0,1.7493,1.6468,1.5709,1.4137,1.432,0.0,0.0,0.0,0.0,0.0,0.0,0.0,0.0,0.0,0.0,0.0,0.0,0.0,0.0,0.0,0.0,1.5079,1.3407,1.1736,1.0061,0.9819,0.9822,0.9822,0.9822,0.8958,0.736,0.7238,0.5525,0.2461,0.2299,0.1431,0.0,0.0,0.0,0.0,0.0,0.0,0.0,-0.0112,-0.1008,-0.2235,-0.2347,-0.3352,-0.467,-0.4511,-0.4454,-0.4534,-0.4369,-0.6024,-0.8038,-0.8038,-0.8038,-0.8038,-0.8038,-0.8038,-0.8038,-0.8038,-0.8038,-0.8038,-0.8038,-0.8038,-0.8038,-0.8038,-0.8038,-0.8038,-0.8038,-0.8028,-0.8072,-0.7931,-0.799,-0.7938,-0.7897,-0.7771,-0.7577,-0.7764,-0.7537,-0.735,-0.735,-0.7224,-0.7139,-0.7139,-0.7139,-0.7139,-0.7139,-0.7285,-0.753,-0.7778,-0.7924,-0.8073,-0.8134,-0.8137,-0.8137,-0.8038,-0.8038,-0.8038,-0.8038,-0.8038,-0.8038,3.4118,3.4027,3.3518,3.1669,3.009,2.8151,2.4714,0.0,1.9802,1.7591,1.6562,1.5681,1.4277,1.4312,1.4183,0.0,0.0,0.0,0.0,0.0,0.0,0.0,0.0,0.0,0.0,0.0,0.0,0.0,0.0,0.0,1.4604,1.3048,1.1856,1.1257,1.0301,0.9822,0.9822,0.9822,0.9451,0.8836,0.785,0.6747,0.5399,0.3389,0.2147,0.141,0.0463,0.0,0.0,0.0,0.0,0.0,0.0,-0.0336,-0.0896,-0.0896,-0.179,-0.3118,-0.2938,-0.3428,-0.4225,-0.4015,-0.476,-0.562,-0.562,-0.6126,-0.6631,-0.5822,-0.6728,-0.7637,-0.6024,-0.6226,-0.7033,-0.7839,-0.8038,-0.8038,-0.8038,-0.8038,-0.8038,-0.8038,-0.8038,-0.8021,-0.796,-0.7946,-0.7929,-0.7872,-0.7787,-0.7726,-0.7726,-0.76,-0.7509,-0.7509,-0.7288,-0.7139,-0.7139,-0.7139,-0.7139,-0.7139,-0.7373,-0.7536,-0.7597,-0.7824,-0.7977,-0.8038,-0.8038,-0.8038,-0.8038,-0.8038,-0.8038,-0.8038,-0.8038,-0.8038,3.2826,3.3031,3.282,3.1193,2.9173,2.6993,0.0,0.0,1.9218,1.7688,1.6885,1.6084,1.4858,1.4672,1.4379,0.0,0.0,0.0,0.0,0.0,0.0,0.0,0.0,0.0,0.0,0.0,0.0,0.0,0.0,0.0,0.0,1.3048,1.1976,1.1499,1.0418,0.9822,0.9822,0.9822,0.9822,0.9822,0.8711,0.785,0.7357,0.4979,0.3708,0.3049,0.0,0.0,0.0,0.0224,0.0,0.0,0.0,0.0224,0.0672,0.0672,0.0336,-0.0223,-0.011,-0.1076,-0.2326,-0.218,-0.2241,-0.2309,-0.2714,-0.4019,-0.5222,-0.4218,-0.532,-0.6426,-0.4516,-0.4718,-0.5625,-0.6628,-0.6828,-0.6828,-0.6828,-0.6828,-0.693,-0.7335,-0.7434,-0.7537,-0.7939,-0.8038,-0.8038,-0.8038,-0.7946,-0.7879,-0.7879,-0.775,-0.7662,-0.7662,-0.7431,-0.7258,-0.7214,-0.7207,-0.7207,-0.7207,-0.7492,-0.7662,-0.7662,-0.7906,-0.8038,-0.8038,-0.8038,-0.8038,-0.8038,-0.8038,-0.8038,-0.8038,-0.8038,-0.8038,3.0388,3.0831,3.097,3.0075,2.8194,2.6166,0.0,2.1952,1.9594,1.7747,1.7373,1.7081,1.6105,1.5532,1.5033,1.4612,0.0,0.0,0.0,0.0,0.0,0.0,0.0,0.0,0.0,0.0,0.0,0.0,0.0,0.0,0.0,1.3048,1.1499,0.9819,0.9822,0.9822,0.9822,0.9822,0.9822,0.9822,0.9819,0.8958,0.736,0.7357,0.6393,0.0,0.0,0.0,0.0,0.056,0.0,0.0,0.0,0.0896,0.2124,0.2124,0.3129,0.446,0.4383,0.3448,0.212,0.2186,0.2044,0.1711,0.0404,-0.1913,-0.4016,-0.4016,-0.4016,-0.4016,-0.4016,-0.4016,-0.4016,-0.4016,-0.4016,-0.4016,-0.4016,-0.4016,-0.4418,-0.5727,-0.6029,-0.6431,-0.7736,-0.8038,-0.8038,-0.8038,-0.8038,-0.8038,-0.8038,-0.7902,-0.7811,-0.7811,-0.7682,-0.7533,-0.7383,-0.737,-0.737,-0.737,-0.7645,-0.7811,-0.7811,-0.7957,-0.8038,-0.8038,-0.8038,-0.8038,-0.8038,-0.8038,-0.8038,-0.8038,-0.8038,-0.8038,2.7906,2.8306,2.793,2.6057,2.4507,2.3069,2.1732,1.9975,1.8524,1.7929,1.7578,1.7187,1.6469,1.6269,1.591,1.5068,1.4758,0.0,0.0,0.0,0.0,0.0,0.0,0.0,0.0,0.0,0.0,0.0,0.0,0.0,0.0,1.3641,1.1976,1.1499,1.0422,1.0301,1.1378,1.0301,0.9822,0.9822,0.9822,0.9572,0.8958,0.785,0.0,0.0,0.0,0.0,0.0,0.2125,0.1454,0.1454,0.0448,0.0336,0.0784,0.1789,0.2459,0.3126,0.411,0.4168,0.3772,0.36,0.3535,0.3372,0.2927,0.1504,-0.01,-0.0997,-0.06,-0.0301,-0.2203,-0.2608,-0.2814,-0.3815,-0.4016,-0.4016,-0.4016,-0.4016,-0.4116,-0.4518,-0.4618,-0.502,-0.6429,-0.6631,-0.6933,-0.7839,-0.8038,-0.8038,-0.8038,-0.7997,-0.7967,-0.7967,-0.7834,-0.7685,-0.7539,-0.7529,-0.7529,-0.7529,-0.7706,-0.7811,-0.7811,-0.796,-0.8038,-0.8038,-0.8038,-0.8038,-0.8038,-0.8038,-0.8038,-0.8038,-0.8038,-0.8038,0.0,2.5871,2.5459,2.4013,2.2511,2.1202,2.0432,1.9094,1.8008,1.8008,1.7803,1.7552,1.717,1.6567,1.5931,1.5404,0.0,0.0,0.0,0.0,0.0,0.0,0.0,0.0,0.0,0.0,0.0,0.0,0.0,0.0,0.0,1.5063,1.3999,1.3999,1.1852,1.1137,1.2213,1.1257,1.0422,0.9822,0.9822,0.9822,0.9819,0.8711,0.0,0.0,0.0,0.0,0.0,0.3687,0.3017,0.3017,0.2014,0.2014,0.2683,0.3575,0.4242,0.4912,0.5806,0.5744,0.532,0.512,0.4588,0.4282,0.5238,0.4209,0.2602,0.1698,0.2103,0.241,0.0701,0.0301,0.01,-0.0801,-0.1002,-0.1102,-0.1605,-0.1706,-0.2007,-0.3013,-0.3215,-0.3717,-0.5022,-0.5627,-0.6129,-0.6426,-0.7332,-0.7839,-0.7335,-0.7637,-0.8038,-0.8038,-0.7953,-0.7862,-0.7773,-0.7712,-0.7678,-0.7678,-0.7818,-0.7896,-0.7896,-0.7987,-0.8038,-0.8038,-0.8038,-0.8038,-0.8038,-0.8038,-0.8038,-0.7939,-0.7434,-0.7235,0.0,2.3487,2.3388,2.3221,2.1597,2.0098,2.003,1.8914,0.0,1.7969,1.7988,1.7959,1.7949,1.6569,1.5488,1.5634,0.0,0.0,0.0,0.0,0.0,0.0,0.0,0.0,0.0,0.0,0.0,0.0,0.0,0.0,0.0,1.7085,1.7085,1.7202,1.4118,1.2573,1.2573,1.2453,1.1619,0.994,0.994,0.994,0.9822,0.9812,0.0,0.0,0.0,0.0,0.0,0.5252,0.4695,0.4695,0.4583,0.5361,0.6589,0.67,0.7595,0.8716,0.8826,0.7959,0.6848,0.6719,0.5585,0.4718,0.7232,0.6224,0.4116,0.4216,0.4216,0.4116,0.4116,0.4116,0.4016,0.4016,0.4016,0.3615,0.2414,0.2113,0.1408,-0.1207,-0.1711,-0.2212,-0.3615,-0.492,-0.5325,-0.4216,-0.6124,-0.7235,-0.6029,-0.6933,-0.7736,-0.7839,-0.7839,-0.7939,-0.8038,-0.7909,-0.7828,-0.7828,-0.796,-0.8038,-0.8038,-0.8038,-0.8038,-0.8038,-0.8038,-0.8038,-0.8038,-0.7939,-0.7839,-0.7839,-0.6531,-0.5829,1.9799,0.0,2.017,1.8589,1.8055,1.7759,0.0,1.7293,1.7529,0.0,0.0,1.7927,1.7688,1.7685,1.7378,0.0,0.0,0.0,0.0,0.0,0.0,0.0,0.0,0.0,0.0,0.0,0.0,0.0,0.0,0.0,0.0,1.7683,1.7566,1.8765,1.685,1.5897,1.5897,1.4594,1.3287,1.1615,1.1615,1.102,0.9819,0.9707,0.0,0.0,0.0,0.0,0.8266,0.6813,0.6144,0.6033,0.4916,0.4693,0.514,0.6255,0.6924,0.7371,0.8491,0.8692,0.8397,0.814,0.7555,0.7132,0.7836,0.683,0.5724,0.6728,0.6326,0.5525,0.5525,0.472,0.4016,0.4016,0.4016,0.3915,0.3615,0.3516,0.3013,0.1408,0.1107,0.0302,-0.2112,-0.2715,-0.3217,-0.3915,-0.4516,-0.4818,-0.4518,-0.4718,-0.532,-0.6329,-0.6431,-0.6933,-0.7939,-0.8007,-0.7984,-0.7984,-0.8021,-0.8038,-0.8038,-0.8038,-0.8038,-0.8038,-0.8038,-0.8038,-0.8038,-0.6933,-0.6431,-0.6429,-0.512,-0.4518,1.795,1.8216,1.8533,1.7624,1.7174,1.701,1.7174,0.0,0.0,0.0,0.0,0.0,1.7987,0.0,0.0,0.0,0.0,0.0,0.0,0.0,0.0,0.0,0.0,0.0,0.0,0.0,0.0,0.0,0.0,0.0,0.0,1.8525,1.8519,1.9366,1.8525,1.78,1.6968,1.6138,1.4475,1.2213,1.2213,1.1339,0.972,0.9646,0.949,0.0,0.0,0.0,0.8826,0.8042,0.7706,0.7595,0.6813,0.6478,0.6591,0.7371,0.7706,0.782,0.8605,0.9325,0.9649,0.8769,0.8731,0.8918,0.8258,0.7537,0.7033,0.7839,0.7434,0.6933,0.6933,0.6429,0.5822,0.5822,0.5822,0.5622,0.502,0.492,0.4518,0.3215,0.2914,0.2211,0.0201,-0.0703,-0.1306,-0.2012,-0.3215,-0.3815,-0.3115,-0.3615,-0.4318,-0.502,-0.5122,-0.5422,-0.6124,-0.6124,-0.6728,-0.7939,-0.7434,-0.7033,-0.7033,-0.7033,-0.683,-0.6224,-0.6124,-0.6124,-0.6124,-0.5422,-0.5122,-0.5022,-0.3717,-0.3115,1.7376,1.7532,1.8197,1.8123,1.7547,1.7273,1.8115,0.0,0.0,0.0,0.0,0.0,0.0,0.0,0.0,0.0,0.0,0.0,0.0,0.0,0.0,0.0,0.0,0.0,0.0,0.0,0.0,0.0,0.0,0.0,0.0,1.9366,1.9366,1.9366,1.9366,1.8765,1.7325,1.7325,1.5897,1.2928,1.2662,1.1618,0.9958,0.9676,0.9398,0.915,0.0,0.0,0.894,0.894,0.894,0.894,0.894,0.9047,0.9265,0.9265,0.9372,0.9592,0.9592,1.0341,1.1005,0.9598,0.9832,1.0444,0.9099,0.8645,0.8627,0.8627,0.8333,0.8038,0.8237,0.8137,0.8038,0.8038,0.8038,0.7736,0.6531,0.6331,0.5927,0.4518,0.4316,0.3915,0.2514,0.1405,0.0602,0.0605,-0.1508,-0.2711,-0.1509,-0.2513,-0.3515,-0.3715,-0.3715,-0.3815,-0.4016,-0.3815,-0.4718,-0.7232,-0.6329,-0.5727,-0.5727,-0.5727,-0.5122,-0.4016,-0.4016,-0.4016,-0.4016,-0.3815,-0.3613,-0.331,-0.2011,-0.1308,1.8558,1.9345,1.9354,1.7029,1.7481,1.8185,1.7244,0.0,0.0,0.0,0.0,0.0,0.0,0.0,0.0,0.0,0.0,0.0,0.0,0.0,0.0,0.0,0.0,0.0,0.0,0.0,0.0,0.0,0.0,0.0,1.9366,1.9366,1.9366,1.9366,1.9366,1.9249,1.9004,1.9004,1.8046,1.625,1.4753,1.3245,1.1573,1.0022,0.9198,0.9147,0.0,0.8957,0.894,0.894,0.894,0.894,0.894,0.9699,1.0781,1.0781,1.1538,1.2615,1.2615,1.269,1.26,1.236,1.2191,1.2074,1.1839,1.1505,1.1263,1.1263,0.9702,0.8233,0.941,0.8825,0.8038,0.8038,0.8038,0.7939,0.7739,0.7736,0.7335,0.5927,0.5727,0.5222,0.3917,0.3512,0.3412,0.3416,0.211,0.1106,0.1408,0.0201,-0.1008,-0.2213,-0.2314,-0.2814,-0.3915,-0.2914,-0.3016,-0.4516,-0.4416,-0.4316,-0.4316,-0.4316,-0.4216,-0.4016,-0.4016,-0.4016,-0.4016,-0.2814,-0.1707,-0.0601,0.0804,0.201,1.7159,1.8967,2.0355,1.8491,1.979,2.1275,2.0163,0.0,0.0,0.0,0.0,0.0,0.0,0.0,0.0,0.0,0.0,0.0,0.0,0.0,0.0,0.0,0.0,0.0,0.0,0.0,0.0,0.0,0.0,0.0,1.9366,1.9366,1.9366,1.9366,1.9212,1.9125,1.9125,1.8971,1.8148,1.6756,1.5935,1.4594,1.2766,1.1907,1.1436,1.1444,0.0,1.1324,1.1324,1.1324,1.1324,1.1324,1.1324,1.1647,1.2295,1.2295,1.2729,1.3264,1.3264,1.373,1.415,1.3277,1.3418,1.3722,1.2756,1.2307,1.2299,1.2851,1.1551,1.0288,1.0877,1.0096,0.9213,0.9899,0.9019,0.8237,0.892,0.8528,0.7839,0.7235,0.7033,0.6631,0.5322,0.5122,0.482,0.4116,0.3515,0.3115,0.3115,0.2514,0.1609,0.0302,0.0201,-0.0402,-0.1711,-0.131,-0.1511,-0.2815,-0.2914,-0.2914,-0.2914,-0.2213,-0.1812,-0.1812,-0.1105,-0.0803,-0.0803,0.0602,0.1605,0.2205,0.281,0.3416,1.6222,1.8371,2.0765,2.0495,0.0,2.3478,2.3091,0.0,0.0,0.0,0.0,0.0,0.0,0.0,0.0,0.0,0.0,0.0,0.0,0.0,0.0,0.0,0.0,0.0,0.0,0.0,0.0,0.0,0.0,0.0,1.9366,1.9299,1.9265,1.9265,1.8978,1.8824,1.8824,1.8604,1.8019,1.6954,1.6541,1.5513,1.404,1.3658,1.3431,1.3264,1.3264,1.3264,1.3264,1.3264,1.3264,1.3264,1.3264,1.348,1.3804,1.4126,1.4341,1.4341,1.4341,1.499,1.5707,1.4439,1.4769,1.5396,1.3965,1.3468,1.3435,1.4219,1.3636,1.2721,1.2431,1.1458,1.0681,1.1653,1.0386,0.9118,0.9801,0.9217,0.8333,0.8038,0.8038,0.7637,0.6631,0.6431,0.6126,0.5118,0.4718,0.4418,0.4418,0.4216,0.3615,0.2614,0.2514,0.2012,0.1008,0.0907,0.0504,-0.0502,-0.1208,-0.1409,-0.1107,-0.0101,0.0605,0.0907,0.1913,0.2514,0.2514,0.3515,0.4116,0.4418,0.4418,0.4618,1.7567,1.888,2.0259,2.218,0.0,0.0,2.3678,0.0,0.0,0.0,0.0,0.0,0.0,0.0,0.0,0.0,0.0,0.0,0.0,0.0,0.0,0.0,0.0,0.0,0.0,0.0,0.0,0.0,0.0,0.0,1.9482,1.9105,1.8958,1.8958,1.8677,1.8524,1.8524,1.8504,1.8497,1.8288,1.6765,1.584,1.5689,1.4033,1.328,1.3264,1.3264,1.3264,1.3264,1.3264,1.3264,1.3264,1.3264,1.4126,1.5417,1.6823,1.7259,1.7259,1.7259,1.7364,1.747,1.7338,1.7153,1.7038,1.6889,1.65,1.6064,1.6142,1.584,1.5242,1.407,1.2716,1.175,1.1853,1.1755,1.1361,1.0194,0.9899,0.9509,0.8237,0.8038,0.7939,0.7839,0.7839,0.7839,0.7736,0.6631,0.5829,0.5829,0.482,0.3915,0.3915,0.3815,0.3815,0.3715,0.3715,0.3715,0.3613,0.1209,0.0403,0.1711,0.1812,0.2414,0.3715,0.3815,0.3815,0.3815,0.3915,0.462,0.5829,0.5829,0.6531,1.6853,1.875,2.0809,2.2496,0.0,0.0,0.0,0.0,0.0,0.0,0.0,0.0,0.0,0.0,0.0,0.0,0.0,0.0,0.0,0.0,0.0,0.0,0.0,0.0,0.0,0.0,0.0,0.0,0.0,0.0,0.0,1.9744,1.9703,1.8657,1.922,1.9052,1.8217,1.8023,1.7929,1.7929,1.7443,1.7162,1.6977,1.6223,1.5962,1.5962,1.5962,1.5962,1.5962,1.5962,1.5962,1.5962,1.5962,1.628,1.6823,1.7364,1.7582,1.7582,1.7582,1.7582,1.7582,1.7582,1.7508,1.7382,1.7201,1.6867,1.6506,1.6326,1.6059,1.573,1.5242,1.4076,1.3295,1.4178,1.3108,1.2042,1.2328,1.1745,1.1072,1.0485,0.9801,0.9217,0.9217,0.8528,0.8038,0.8038,0.7537,0.7235,0.7235,0.683,0.6126,0.5322,0.4518,0.4016,0.4016,0.4016,0.4016,0.4016,0.3015,0.2715,0.3215,0.3215,0.3515,0.4016,0.482,0.5222,0.5222,0.6124,0.6728,0.7235,0.7235,0.7537,1.6467,1.8539,2.0934,0.0,0.0,0.0,0.0,0.0,0.0,0.0,0.0,0.0,0.0,0.0,0.0,0.0,0.0,0.0,0.0,0.0,0.0,0.0,0.0,0.0,0.0,0.0,0.0,0.0,0.0,0.0,0.0,2.0413,2.0369,1.9635,1.9832,1.9451,1.8524,1.7894,1.7582,1.7589,1.7796,1.7789,1.7582,1.7582,1.7582,1.7582,1.7582,1.7582,1.7582,1.7582,1.7582,1.7687,1.8094,1.7989,1.7687,1.8603,1.8603,1.8199,1.8199,1.8499,1.8805,1.8401,1.8499,1.8866,1.8657,1.8297,1.7824,1.7232,1.6697,1.6298,1.592,1.5146,1.4752,1.5629,1.4472,1.3301,1.3782,1.3199,1.2431,1.1945,1.117,1.0489,1.0096,0.9217,0.8531,0.8038,0.8038,0.8038,0.8038,0.8038,0.7637,0.6734,0.5824,0.522,0.522,0.522,0.522,0.522,0.522,0.5118,0.462,0.4618,0.482,0.522,0.6126,0.6631,0.6631,0.7537,0.8038,0.8038,0.8038,0.8038,1.6871,1.8309,2.0409,0.0,0.0,0.0,0.0,0.0,0.0,0.0,0.0,0.0,0.0,0.0,0.0,0.0,0.0,0.0,0.0,0.0,0.0,0.0,0.0,0.0,0.0,0.0,0.0,0.0,0.0,0.0,0.0,2.1038,2.0755,2.2004,2.0519,1.9627,1.9627,1.8297,1.7582,1.7582,1.7582,1.7582,1.7582,1.7582,1.7582,1.7582,1.7582,1.7582,1.7687,1.7687,1.7687,1.7786,1.9117,1.8812,1.7989,2.0735,2.0845,1.9627,1.9627,2.0538,2.1448,2.0033,2.0538,2.1752,2.1752,2.1139,2.0377,1.9033,1.8185,1.7412,1.6109,1.5825,1.5825,1.5832,1.5832,1.5439,1.4166,1.3878,1.3488,1.2237,1.1945,1.1556,1.0194,0.9998,0.9509,0.8237,0.8038,0.8038,0.8038,0.8038,0.8038,0.8038,0.8038,0.8038,0.8038,0.8038,0.8038,0.8038,0.8038,0.7434,0.6029,0.6029,0.6631,0.7939,0.8038,0.8038,0.8038,0.8038,0.8038,0.8038,0.8038,0.8038,1.7977,2.0053,0.0,0.0,0.0,0.0,0.0,0.0,0.0,0.0,0.0,0.0,0.0,0.0,0.0,0.0,0.0,0.0,0.0,0.0,0.0,0.0,0.0,0.0,0.0,0.0,0.0,0.0,0.0,0.0,0.0,2.2677,2.2595,2.1824,2.2224,2.1558,1.9627,1.922,1.8506,1.7582,1.861,1.8506,1.7582,1.7582,1.8094,1.8909,1.7996,1.8708,2.0531,2.0531,2.0531,2.0531,2.0939,2.0837,2.0531,2.1448,2.1448,2.1041,2.1041,2.1347,2.1651,2.1245,2.1347,2.1752,2.1752,2.1139,2.0473,2.0184,1.9493,1.868,1.7404,1.7131,1.6943,1.6015,1.5832,1.573,1.5343,1.5242,1.5146,1.4758,1.3884,1.2909,1.1556,1.0583,0.9509,0.8237,0.8038,0.8038,0.8038,0.8038,0.8038,0.8038,0.8038,0.8038,0.8038,0.8038,0.8038,0.8038,0.8038,0.7839,0.7434,0.7434,0.7637,0.8038,0.8038,0.8038,0.8038,0.8038,0.8038,0.8038,0.8038,0.8038,1.945,0.0,0.0,0.0,0.0,0.0,0.0,0.0,0.0,0.0,0.0,0.0,0.0,0.0,0.0,0.0,0.0,0.0,0.0,0.0,0.0,0.0,0.0,0.0,0.0,0.0,0.0,0.0,0.0,0.0,0.0,2.3842,2.3725,2.3285,2.3583,2.2667,2.0436,1.9834,1.922,1.8401,1.922,1.942,1.9213,1.9213,1.962,2.0436,1.962,2.0128,2.1752,2.1752,2.1752,2.1752,2.2265,2.2156,2.1853,2.2868,2.2976,2.2458,2.2458,2.2868,2.3176,2.2667,2.2868,2.3249,2.309,2.2602,2.1975,2.1354,2.0686,1.9943,1.8772,1.8411,1.7948,1.6197,1.5832,1.5832,1.5832,1.5832,1.5832,1.5832,1.5146,1.4268,1.2915,1.2037,1.0965,0.9118,0.8333,0.8237,0.8726,0.8333,0.8038,0.8038,0.8038,0.8038,0.8038,0.8038,0.8038,0.8038,0.8038,0.8038,0.8038,0.8038,0.8038,0.8038,0.8038,0.8038,0.8038,0.8038,0.8038,0.8038,0.8038,0.8038,2.1027,0.0,0.0,0.0,0.0,0.0,0.0,0.0,0.0,0.0,0.0,0.0,0.0,0.0,0.0,0.0,0.0,0.0,0.0,0.0,0.0,0.0,0.0,0.0,0.0,0.0,0.0,0.0,0.0,0.0,0.0,2.451,2.4412,2.5635,2.451,2.3276,2.1853,2.0641,1.993,1.9834,1.993,2.0641,2.1853,2.1752,2.1752,2.1744,2.1954,2.1954,2.1853,2.2055,2.2055,2.2156,2.3384,2.3176,2.2357,2.4815,2.4922,2.389,2.389,2.4707,2.5528,2.4304,2.4688,2.5596,2.5195,2.4736,2.3992,2.2594,2.1807,2.1203,1.9943,1.967,1.9031,1.6655,1.6015,1.6015,1.6015,1.5927,1.5832,1.5832,1.5832,1.5439,1.4166,1.3878,1.3006,1.0583,0.9118,0.8825,0.9998,0.9118,0.8333,0.8333,0.8237,0.8134,0.8134,0.8038,0.8038,0.8038,0.8038,0.8038,0.8137,0.8038,0.8038,0.8038,0.8038,0.8038,0.8038,0.8038,0.8038,0.8038,0.8038,0.8038,0.0,2.2755,0.0,0.0,0.0,0.0,0.0,0.0,0.0,0.0,0.0,0.0,0.0,0.0,0.0,0.0,0.0,0.0,0.0,0.0,0.0,0.0,0.0,0.0,0.0,0.0,0.0,0.0,0.0,0.0,2.5635,2.543,2.543,2.5732,2.543,2.4609,2.3276,2.2976,2.2265,0.0,2.2366,2.2976,2.3276,2.2156,2.1752,2.1853,2.3899,2.4205,2.3384,2.4402,2.4815,2.4913,2.5128,2.5118,2.4922,2.5538,2.5528,2.5226,2.5226,2.543,2.5635,2.5333,2.5295,2.5195,2.5098,2.4531,2.3906,2.3538,2.3102,2.2403,2.1212,2.0935,2.0567,1.9031,1.7948,1.7318,1.7318,1.648,1.5832,1.5832,1.5832,1.5439,1.4166,1.3878,1.3392,1.175,1.1263,1.1165,1.1463,1.1263,1.1072,1.1072,1.0194,0.9608,0.9608,0.8627,0.8038,0.8038,0.8038,0.8432,0.9509,0.8528,0.8038,0.8038,0.8038,0.8038,0.8038,0.8038,0.8038,0.8038,0.8038,0.8038,0.0,0.0,0.0,0.0,0.0,0.0,0.0,0.0,0.0,0.0,0.0,0.0,0.0,0.0,0.0,0.0,0.0,0.0,0.0,0.0,0.0,0.0,0.0,0.0,0.0,0.0,0.0,0.0,0.0,2.5508,2.5723,2.5742,2.5742,2.5742,2.5742,2.4925,2.3403,2.3403,2.2903,2.2025,2.2726,2.3514,2.4309,2.3808,2.3592,2.3683,2.5118,2.5323,2.4707,2.543,2.5742,2.5742,2.5742,2.5742,2.5742,2.5742,2.5742,2.5742,2.5742,2.611,2.6436,2.5671,2.5625,2.5815,2.4756,2.4141,2.375,2.3535,2.332,2.296,2.2306,2.2129,2.2031,2.14,1.9861,1.8596,1.8596,1.7584,1.6669,1.6669,1.6197,1.5635,1.4949,1.4262,1.3878,1.3788,1.2721,1.2139,1.2813,1.2334,1.1945,1.1945,1.1268,1.0877,1.0877,1.0288,0.9899,0.9899,0.9899,1.019,1.0877,1.019,0.9608,0.892,0.8333,0.8333,0.892,0.8333,0.8333,0.892,0.8336,0.8038,0.0,0.0,0.0,0.0,0.0,0.0,0.0,0.0,0.0,0.0,0.0,0.0,0.0,0.0,0.0,0.0,0.0,0.0,0.0,0.0,0.0,0.0,0.0,0.0,0.0,0.0,0.0,0.0,0.0,2.5234,2.5605,2.5693,2.5703,2.5625,2.5625,2.4813,2.3286,2.3286,2.3112,2.2708,2.2708,2.3551,2.4971,2.5342,2.5596,2.5742,2.5742,2.5742,2.5732,2.5838,2.5809,2.5615,2.5902,2.5968,2.5786,2.5968,2.6064,2.6064,2.6064,2.6699,2.7368,2.5979,2.6167,2.6588,2.4865,2.4335,2.4107,2.3573,2.3387,2.3387,2.3135,2.3135,2.3135,2.3135,2.1587,2.0034,1.9852,1.8864,1.8048,1.8048,1.7037,1.6015,1.5825,1.4949,1.4561,1.5635,1.398,1.3011,1.4076,1.3301,1.2528,1.2528,1.2334,1.2237,1.2237,1.2042,1.1945,1.1945,1.1945,1.2042,1.2237,1.2042,1.1556,1.0681,0.9312,0.9213,1.0288,0.9213,0.9213,1.0293,0.892,0.8432,0.0,0.0,0.0,0.0,0.0,0.0,0.0,0.0,0.0,0.0,0.0,0.0,0.0,0.0,0.0,0.0,0.0,0.0,0.0,0.0,0.0,0.0,0.0,0.0,0.0,0.0,0.0,0.0,2.4853,2.5098,2.5156,2.5527,2.5557,2.5166,2.5156,2.4847,2.4224,2.4214,2.4185,2.4127,2.4127,2.4258,2.4502,2.457,2.501,2.5742,2.5742,2.5742,2.5703,2.6327,2.606,2.5297,2.687,2.689,2.6121,2.7058,2.7403,2.7403,2.7403,2.758,2.7657,2.7414,2.7206,2.7026,2.6722,2.6403,2.5895,2.4893,2.4542,2.4382,2.3387,2.3135,2.3135,2.3135,2.2862,2.2315,2.1302,2.0124,1.9222,1.9222,1.8319,1.7131,1.6015,1.5635,1.5629,1.5737,1.5534,1.5343,1.5534,1.5439,1.5248,1.5248,1.4268,1.3584,1.3584,1.2528,1.1945,1.1945,1.1945,1.2431,1.3584,1.2522,1.2334,1.3392,1.2037,1.1458,1.1658,1.1458,1.1458,1.1653,1.0288,1.0288,1.94,0.0,0.0,0.0,0.0,0.0,0.0,0.0,0.0,0.0,0.0,0.0,0.0,0.0,0.0,0.0,0.0,0.0,0.0,0.0,0.0,0.0,0.0,0.0,0.0,0.0,0.0,0.0,2.4238,2.4453,2.4687,2.4893,2.4902,2.4707,2.4697,2.4502,2.4072,2.4062,2.3945,2.3701,2.3955,2.4062,2.4072,2.4307,2.4629,2.5,2.5,2.5137,2.5322,2.5425,2.5653,2.6011,2.6631,2.6875,2.7051,2.7568,2.7732,2.7732,2.7732,2.8177,2.8648,2.7678,2.7697,2.7983,2.7042,2.6651,2.64,2.588,2.5294,2.4702,2.4211,2.3551,2.3135,2.3135,2.3135,2.295,2.2403,2.1391,2.0305,1.967,1.8503,1.7498,1.6943,1.6292,1.5832,1.5832,1.5832,1.5832,1.5832,1.5832,1.5832,1.5832,1.5337,1.4949,1.4949,1.4465,1.4082,1.4082,1.4082,1.437,1.4949,1.437,1.437,1.4949,1.2915,1.2237,1.3006,1.2237,1.2334,1.3006,1.1653,1.1361,0.0,0.0,0.0,0.0,0.0,0.0,0.0,0.0,0.0,0.0,0.0,0.0,0.0,0.0,0.0,0.0,0.0,0.0,0.0,0.0,0.0,0.0,0.0,0.0,0.0,0.0,0.0,0.0,2.3721,2.3926,2.4238,2.4355,2.4365,2.4258,2.4258,2.4053,2.3633,2.3623,2.3457,2.3144,2.3467,2.3623,2.3633,2.3945,2.4092,2.4102,2.4326,2.46,2.4873,2.47,2.5148,2.6042,2.6459,2.6954,2.745,2.806,2.823,2.823,2.823,2.8843,2.9462,2.8232,2.8445,2.8862,2.7661,2.7313,2.7302,2.6964,2.6284,2.5619,2.5294,2.4382,2.3551,2.3551,2.3299,2.3135,2.3135,2.2394,2.1391,2.0215,1.9222,1.8503,1.8234,1.7397,1.6749,1.6749,1.6473,1.6386,1.6655,1.6197,1.592,1.6292,1.6015,1.5832,1.5832,1.5832,1.5832,1.5832,1.5832,1.5832,1.5832,1.5832,1.5832,1.5832,1.3884,1.3397,1.4364,1.3397,1.3397,1.4364,1.3011,1.2592,0.0,0.0,0.0,0.0,0.0,0.0,0.0,0.0,0.0,0.0,0.0,0.0,0.0,0.0,0.0,0.0,0.0,0.0,0.0,0.0,0.0,0.0,0.0,0.0,0.0,0.0,0.0,0.0,2.3555,2.3799,2.3828,2.4199,2.4238,2.3838,2.3828,2.3613,2.3174,2.3174,2.3164,2.3135,2.3164,2.3174,2.3174,2.3193,2.3203,2.3252,2.4062,2.4424,2.4506,2.5122,2.4781,2.4237,2.6967,2.7441,2.6809,2.8955,2.9711,2.9711,2.9711,2.9711,2.9789,2.9674,2.9674,2.9739,2.9636,2.9624,2.9378,2.8347,2.8004,2.7683,2.6719,2.5557,2.4702,2.4702,2.3887,2.3135,2.3135,2.3047,2.2677,2.148,2.1203,2.0755,1.9579,1.9314,1.9314,1.9314,1.8319,1.8048,1.9131,1.7203,1.6298,1.7505,1.648,1.5832,1.5832,1.5832,1.5832,1.5832,1.5832,1.5832,1.5832,1.5832,1.5832,1.5832,1.5635,1.5635,1.573,1.5635,1.5635,1.5635,1.4364,1.4325,0.0,0.0,0.0,0.0,0.0,0.0,0.0,0.0,0.0,0.0,0.0,0.0,0.0,0.0,0.0,0.0,0.0,0.0,0.0,0.0,0.0,0.0,0.0,0.0,0.0,0.0,0.0,0.0,0.0,2.3369,2.3369,2.3516,2.3525,2.3379,2.3369,2.3301,2.3135,2.3135,2.3135,2.3135,2.3135,2.3135,2.3135,2.3135,2.3135,2.3154,2.3467,2.376,2.3984,2.3968,2.4718,2.5958,2.5972,2.7035,2.8621,2.87,2.9197,2.9792,2.9792,2.9792,2.9792,2.9792,2.9792,2.9792,2.9792,2.9792,2.9702,2.9287,2.8676,2.8016,2.7614,2.6707,2.5714,2.4957,2.3963,2.3135,2.3135,2.3135,2.296,2.258,2.1845,2.1114,2.0683,2.0042,1.9497,1.9497,1.9131,1.9039,1.9405,1.8764,1.8311,1.8772,1.777,1.7037,1.7037,1.6292,1.5832,1.5832,1.5832,1.5832,1.5832,1.5832,1.5832,1.5832,1.5832,1.5832,1.5832,1.5832,1.5832,1.5825,1.5155,1.5019,1.4046,0.0,0.0,0.0,0.0,0.0,0.0,0.0,0.0,0.0,0.0,0.0,0.0,0.0,0.0,0.0,0.0,0.0,0.0,0.0,0.0,0.0,0.0,0.0,0.0,0.0,0.0,0.0,0.0,0.0,2.3135,2.3135,2.3135,2.3135,2.3135,2.3135,2.3135,2.3135,2.3135,2.3135,2.3135,2.3135,2.3135,2.3135,2.3135,2.3135,2.3135,2.3301,2.3545,2.3262,2.4395,2.6234,2.5581,2.6953,2.9197,2.8767,2.9118,2.9792,2.9792,2.9792,2.9792,2.9792,2.9792,2.9792,2.9792,2.9792,2.9792,2.9792,2.9275,2.8688,2.8688,2.7867,2.6789,2.563,2.4798,2.4145,2.3714,2.3387,2.3135,2.3135,2.2492,2.1943,2.1872,2.123,2.0674,2.0674,2.0395,2.0215,2.0674,1.9679,1.9222,2.0034,1.8311,1.7225,1.7692,1.6574,1.5832,1.5832,1.5832,1.5832,1.5832,1.5832,1.5832,1.5832,1.5832,1.5832,1.5832,1.5832,1.5832,1.5818,1.5531,1.5291,0.0,0.0,0.0,0.0,0.0,0.0,0.0,0.0,0.0,0.0,0.0,0.0,0.0,0.0,0.0,0.0,0.0,0.0,0.0,0.0,0.0,0.0,0.0,0.0,0.0,0.0,0.0,0.0,2.3135,2.3135,2.3135,2.3135,2.3135,2.3135,2.3135,2.3135,2.3135,2.3135,2.3135,2.3135,2.3135,2.3135,2.3135,2.3135,2.3135,2.3135,2.3135,2.3135,2.3135,2.3135,2.38,2.4872,2.6058,2.7128,2.8255,2.9365,2.9792,2.9792,2.9792,2.9792,2.9792,2.9792,2.9792,2.9792,2.9792,2.9792,2.9792,2.9792,2.9792,2.9792,2.9792,2.8937,2.7855,2.6801,2.6483,2.6141,2.5041,2.3963,2.3135,2.3135,2.3135,2.3135,2.3135,2.3135,2.3135,2.3135,2.212,2.1756,2.296,1.996,1.868,2.1025,1.8018,1.6386,1.7591,1.6574,1.5832,1.5832,1.5832,1.5832,1.5832,1.5832,1.5832,1.5832,1.5818,1.5812,1.5812,1.5812,1.5812,1.5805,1.5511,1.5064,1.0887,0.0,0.0,0.0,0.0,0.0,0.0,0.0,0.0,0.0,0.0,0.0,0.0,0.0,0.0,0.0,0.0,0.0,0.0,0.0,0.0,0.0,0.0,0.0,0.0,0.0,0.0,0.0,2.3135,2.3135,2.3135,2.3135,2.3135,2.3135,2.3135,2.3135,2.3135,2.3135,2.3135,2.3135,2.3135,2.3135,2.3135,2.3135,2.3135,2.3135,2.3135,2.3135,2.3135,2.3135,2.38,2.4872,2.5126,2.6449,2.8176,2.8426,2.9106,2.9792,2.9792,2.9792,2.9792,2.9792,2.9792,2.9792,2.9792,2.9792,2.9792,2.9792,2.9792,2.9792,2.9792,2.8937,2.8016,2.7763,2.6449,2.5378,2.5891,2.4478,2.3135,2.3135,2.3135,2.3135,2.3135,2.3135,2.3135,2.3135,2.2862,2.2677,2.3047,2.1489,2.0576,2.1203,1.8856,1.7318,1.7692,1.6574,1.5832,1.5832,1.5832,1.5832,1.5832,1.5832,1.5832,1.5832,1.5625,1.5518,1.5518,1.5518,1.5518,1.5504,1.4997,1.4563,0.0,0.0,0.0,0.0,0.0,0.0,0.0,1.7236,0.0,0.0,0.0,0.0,0.0,0.0,0.0,0.0,0.0,0.0,0.0,0.0,0.0,0.0,0.0,0.0,0.0,2.38,2.3135,2.3135,2.3135,2.3135,2.3135,2.3135,2.3135,2.3135,2.3135,2.3135,2.3135,2.3135,2.3135,2.3135,2.3135,2.3135,2.3135,2.3135,2.3135,2.3135,2.3135,2.3135,2.3135,2.3135,2.38,2.4787,2.4787,2.587,2.7441,2.7441,2.8119,2.9106,2.9106,2.9365,2.9792,2.9792,2.9792,2.9792,2.9792,2.9792,2.9792,2.9792,2.9792,2.9792,2.9792,2.9287,2.8767,2.8767,2.7441,2.6284,2.6472,2.5052,2.38,2.38,2.3474,2.3135,2.3135,2.3135,2.3135,2.3135,2.3135,2.3135,2.3135,2.2031,2.1471,2.2031,1.9861,1.8411,1.8411,1.7762,1.6929,1.5825,1.6292,1.6386,1.5825,1.5832,1.5832,1.5832,1.5545,1.5277,1.503,1.5157,1.515,1.5023,1.4683,1.4362,0.0,0.0,0.0,0.0,0.0,0.0,1.4515,1.489,0.0,0.0,0.0,0.0,0.0,0.0,0.0,0.0,0.0,0.0,0.0,0.0,0.0,0.0,0.0,0.0,2.4787,2.38,2.3135,2.3135,2.3135,2.3135,2.3135,2.3135,2.3047,2.2862,2.2862,2.2862,2.2862,2.2862,2.296,2.3135,2.3135,2.3135,2.3135,2.3135,2.3135,2.3135,2.3135,2.3135,2.3135,2.3135,2.3714,2.4617,2.4787,2.5378,2.6307,2.6472,2.7209,2.8096,2.8096,2.8858,2.9792,2.9792,2.9792,2.9792,2.9792,2.9792,2.9792,2.9792,2.9792,2.9792,2.9792,2.9792,2.9792,2.9624,2.8858,2.7844,2.6719,2.563,2.4787,2.4787,2.3877,2.3135,2.3135,2.3135,2.3135,2.3135,2.3135,2.3135,2.3135,2.2031,2.1756,2.2775,2.0863,1.9497,1.9497,1.9497,1.858,1.6379,1.7311,1.7311,1.6015,1.5981,1.5873,1.5785,1.555,1.5197,1.4636,1.4858,1.4763,1.4476,1.4476,1.4335,0.0,0.0,0.0,0.0,0.0,0.0,0.0,1.2271,0.0,0.0,0.0,0.0,0.0,0.0,0.0,0.0,0.0,0.0,0.0,0.0,0.0,0.0,0.0,0.0,2.4787,2.38,2.3135,2.3135,2.3135,2.3135,2.3135,2.3135,2.2677,2.1658,2.1658,2.1658,2.1658,2.1658,2.2129,2.3135,2.3135,2.3135,2.3135,2.3135,2.3135,2.3135,2.3135,2.3135,2.3135,2.3135,2.3222,2.3551,2.4457,2.4957,2.521,2.6141,2.7209,2.8096,2.8096,2.8858,2.9792,2.9792,2.9792,2.9792,2.9792,2.9792,2.9792,2.9792,2.9792,2.9792,2.9792,2.9792,2.9534,2.8676,2.8255,2.7844,2.6719,2.563,2.4787,2.4787,2.3877,2.3135,2.3135,2.3135,2.3135,2.3135,2.3135,2.3135,2.3135,2.2031,2.1382,2.1667,2.0395,1.9497,1.9497,1.9497,1.9306,1.8856,1.9039,1.8588,1.7412,1.7047,1.6458,1.5478,1.5814,1.5762,1.5467,1.4881,1.4456,1.4168,1.4168,1.4142,0.0,0.0,0.0,0.9139,0.0,0.0,0.0,0.0,0.0,0.0,0.0,0.0,0.0,0.0,0.0,0.0,0.0,0.0,0.0,0.0,0.0,0.0,0.0,0.0,2.3639,2.3345,2.3135,2.3135,2.3135,2.3135,2.3135,2.3135,2.2862,2.2217,2.2217,2.1933,2.1293,2.1293,2.1569,2.2217,2.2217,2.2492,2.3135,2.3135,2.3135,2.3135,2.3135,2.3135,2.3135,2.3135,2.3135,2.3135,2.3714,2.3963,2.4049,2.4553,2.5462,2.6438,2.6438,2.7197,2.8211,2.8779,2.8937,2.9028,2.9624,2.9792,2.9792,2.9792,2.9792,2.9792,2.9792,2.9792,2.9624,2.9106,2.8108,2.7279,2.7279,2.5546,2.4125,2.4702,2.3877,2.3135,2.3135,2.3135,2.3135,2.3135,2.3135,2.3135,2.3135,2.258,2.2217,2.2217,2.1676,2.1033,2.0486,2.0944,2.0764,1.9579,2.0034,1.9768,1.8336,1.7613,1.648,1.4963,1.6282,1.653,1.5696,1.5288,1.505,1.4894,1.4334,1.4088,0.0,0.0,0.0,0.0,0.0,0.873,0.0,0.0,0.0,0.0,0.0,0.0,0.0,0.0,0.0,0.0,0.0,0.0,0.0,0.0,0.0,0.0,0.0,0.0,0.0,2.249,2.2783,2.3115,2.291,2.2881,2.3125,2.3135,2.296,2.2765,2.2765,2.2306,2.1293,2.1025,2.1114,2.1293,2.1025,2.1489,2.2403,2.2677,2.2765,2.2775,2.296,2.3135,2.3047,2.2862,2.2862,2.3135,2.3135,2.3135,2.3135,2.3135,2.38,2.4787,2.4787,2.5546,2.6637,2.7522,2.7763,2.7936,2.887,2.9287,2.9456,2.9456,2.9624,2.9792,2.9792,2.9792,2.9714,2.9534,2.8291,2.7302,2.7695,2.587,2.4296,2.4957,2.4382,2.3637,2.3135,2.3299,2.3387,2.3135,2.3474,2.3637,2.3135,2.3299,2.3299,2.3135,2.3135,2.2687,2.1756,2.258,2.2287,2.021,2.1007,2.074,1.9117,1.7888,1.6617,1.5033,1.7028,1.7466,1.6355,1.6355,1.6108,1.5696,1.4573,1.4088,0.0,0.0,0.0,0.0,0.984,0.0,0.0,0.0,0.0,0.0,0.0,0.0,0.0,0.0,0.0,0.0,0.0,0.0,0.0,0.0,0.0,0.0,0.0,0.0,0.0,2.1064,2.1494,2.3027,2.209,2.1943,2.3076,2.3135,2.2589,2.1569,2.148,2.148,2.1293,2.0215,2.0215,2.1293,2.0215,1.977,1.9951,2.1025,2.148,2.1569,2.2677,2.3135,2.3047,2.1943,2.212,2.3135,2.3135,2.3135,2.3135,2.3135,2.38,2.4787,2.4787,2.5546,2.6554,2.6637,2.6719,2.673,2.6812,2.7533,2.8267,2.8267,2.9028,2.9792,2.9792,2.9792,2.9534,2.8518,2.8858,2.8961,2.7058,2.7116,2.7267,2.6472,2.6224,2.5484,2.3474,2.3963,2.4296,2.3212,2.4808,2.54,2.3387,2.3963,2.4211,2.3222,2.3135,2.3047,2.2872,2.3047,2.2805,2.216,2.2312,2.1589,1.9947,1.8507,1.7479,1.7,1.821,1.8763,1.863,1.863,1.7658,1.5696,1.4573,1.4088,0.0,0.0,0.0,0.0,0.0,0.0,0.0,0.0,0.7832,0.0,0.0,0.0,0.0,0.0,0.0,0.0,0.0,0.0,0.0,0.0,0.0,0.0,0.0,0.0,0.0,0.0,0.0,0.0,2.0876,2.0805,2.2353,2.2646,2.2611,2.2394,2.2306,2.1667,2.0305,1.9761,1.9405,1.9222,1.868,1.8864,1.9497,2.0034,2.0305,2.0305,2.1569,2.2031,2.2031,2.2217,2.2677,2.3135,2.3135,2.3135,2.3135,2.3135,2.3387,2.38,2.38,2.4135,2.4648,2.5305,2.5975,2.6483,2.6483,2.6801,2.7279,2.7924,2.8426,2.8937,2.9624,2.9792,2.9702,2.9197,2.8937,2.8779,2.8462,2.7787,2.7209,2.736,2.6964,2.6235,2.5221,2.5473,2.5641,2.5136,2.5891,2.6141,2.5231,2.5473,2.5389,2.4211,2.4125,2.37,2.2793,2.2773,2.2598,2.2178,2.1914,2.1167,1.9787,1.957,1.8717,1.7342,1.9036,1.9599,1.9036,1.9036,1.855,1.7568,1.5869,1.5061,0.7936,0.0,0.0,0.0,0.0,0.0,0.0,0.0,0.0,0.0,0.0,0.0,0.0,0.0,0.0,0.0,0.0,0.0,0.0,0.0,0.0,0.0,0.0,0.0,0.0,0.0,0.0,0.0,0.0,1.9653,2.1816,2.2178,2.2588,2.3125,2.2775,2.1765,2.0034,1.9314,1.8596,1.7692,1.7318,1.7677,1.8488,1.8856,1.9047,1.9039,2.0305,2.0845,2.0845,2.1765,2.2315,2.2589,2.2589,2.2775,2.3135,2.3135,2.3135,2.3135,2.3135,2.3135,2.3222,2.4049,2.4882,2.5557,2.5557,2.5808,2.6213,2.7023,2.7429,2.7936,2.9028,2.9365,2.9443,2.9714,2.9197,2.8767,2.9624,2.8542,2.7626,2.8438,2.7947,2.7383,2.7383,2.7139,2.6801,2.6565,2.7058,2.7221,2.6565,2.6606,2.6259,2.5174,2.49,2.4366,2.3246,2.2892,2.2472,2.1728,2.1289,2.0716,1.9876,2.032,1.9835,1.823,1.9756,2.0245,1.9441,1.9441,1.9441,1.9362,1.7163,1.6108,0.0,0.0,0.0,0.7761,0.0,0.0,0.0,0.0,0.7024,0.0,0.0,0.0,0.0,0.0,0.0,0.0,0.0,0.0,0.0,0.0,0.0,0.0,0.0,0.0,0.0,0.0,0.0,0.0,0.0,0.0,2.1748,2.1894,2.2285,2.3105,2.1943,2.1293,2.1203,1.8956,1.7777,1.7692,1.648,1.592,1.592,1.7225,1.7777,1.7777,1.9039,1.9579,1.9579,1.9579,2.0305,2.1382,2.1382,2.2031,2.3135,2.3135,2.3135,2.3135,2.3135,2.3135,2.3144,2.3135,2.3135,2.3222,2.3222,2.3963,2.4872,2.4872,2.5714,2.6801,2.7855,2.8164,2.8426,2.9534,2.9792,2.9792,2.9792,2.9714,2.9714,2.9714,2.9714,2.9702,2.9702,2.8779,2.7683,2.6637,2.8303,2.8961,2.6812,2.6931,2.6854,2.5732,2.507,2.4781,2.4692,2.3823,2.2695,2.1279,2.083,2.0586,2.0586,2.0576,2.0566,2.0489,2.0566,2.0566,2.0566,2.0566,2.0566,2.0489,1.8301,1.7253,0.0,0.0,1.0956,0.9996,0.0,0.0,0.0,0.0,0.0,0.0,0.0,0.0,0.0,0.0,0.0,0.0,0.0,0.0,0.0,0.0,0.0,0.0,0.0,0.0,0.0,0.0,0.0,0.0,1.7122,0.0,0.0,2.1406,2.2139,2.2705,2.2533,2.212,2.1293,1.967,1.8503,1.7692,1.6386,1.5832,1.5825,1.6292,1.648,1.648,1.777,1.8772,1.9579,2.0395,2.1391,2.2492,2.2492,2.2765,2.3135,2.3135,2.3135,2.3135,2.3135,2.3135,2.3135,2.3135,2.3135,2.3135,2.3135,2.3387,2.379,2.4628,2.5041,2.563,2.6707,2.7602,2.8176,2.8597,2.9275,2.9792,2.9792,2.9792,2.9792,2.9792,2.9792,2.9792,2.9792,2.9456,2.9106,2.8712,2.8978,2.8897,2.8167,2.7934,2.7442,2.6275,2.6047,2.5486,2.4457,2.3208,2.2205,2.1763,2.1023,2.0566,2.0566,2.0566,2.0566,2.0566,2.0566,2.0566,2.0566,2.0566,2.0566,2.0566,1.9835,1.9107,1.1149,1.1558,0.0,1.126,1.0779,0.0,0.8074,0.0,0.0,0.0,0.0,0.0,0.0,0.0,0.0,0.0,0.0,0.0,0.0,0.0,0.0,0.0,0.0,0.0,0.0,0.0,1.422,1.6522,0.0,0.0,0.0,0.0,2.1924,2.249,2.2466,2.212,2.1293,1.967,1.8503,1.7692,1.6386,1.5832,1.5832,1.5832,1.5832,1.5825,1.6662,1.749,1.8303,1.9488,2.0494,2.123,2.2129,2.2492,2.2492,2.295,2.3135,2.3135,2.3135,2.3135,2.3135,2.3135,2.3135,2.3135,2.3135,2.3135,2.3212,2.3963,2.4211,2.4467,2.5641,2.6707,2.7602,2.8016,2.8937,2.9792,2.9792,2.9792,2.9792,2.9792,2.9792,2.9729,2.9528,2.9478,2.9478,2.9478,2.9164,2.885,2.8662,2.816,2.7578,2.6833,2.6577,2.5946,2.4636,2.3631,2.2925,2.2553,2.1593,2.1078,2.1078,2.0789,2.0566,2.0566,2.0566,2.0566,2.0566,2.0566,2.0566,2.0566,2.0566,2.0245]}]]